[[{"header":{"parameterUnit":"m.s-1","parameterCategory":1,"la1":30.6,"la2":29.2853,"lo1":-89.7004,"lo2":-87.6739,"dy":0.0162,"dx":0.0183,"nx":112,"ny":82,"refTime":"2026-05-12T00:00:00:Z","depth":0,"parameterNumber":2,"parameterNumberName":"U-component_of_WINDS"},"data":[0.0,0.0,0.0,0.0,0.0,0.0,0.0,0.0,0.0,0.0,0.0,0.0,0.0,0.0,0.0,0.0,0.0,0.0,0.0,0.0,0.0,0.0,0.0,0.0,0.0,0.0,0.0,0.0,0.0,0.0,0.0,0.0,0.0,0.0,0.0,0.0,0.0,0.0,0.0,0.0,0.0,0.0,0.0,0.0,0.0,0.0,0.0,0.0,0.0,0.0,0.0,0.0,0.0,0.0,0.0,0.0,0.0,0.0,0.0,0.0,0.0,0.0,0.0,0.0,0.0,0.0,0.0,0.0,0.0,0.0,0.0,0.0,0.0,0.0,0.0,0.0,0.0,0.0,0.0,0.0,0.0,0.0,0.0,0.0,0.0,0.0,0.0,0.0,0.0,0.0,0.0,2.4927,2.7924,3.0206,3.1323,2.9072,2.6649,2.4337,0.0,0.0,0.0,0.0,0.0,0.0,0.0,0.0,0.0,0.0,0.0,0.0,0.0,0.0,0.0,0.0,0.0,0.0,0.0,0.0,0.0,0.0,0.0,0.0,0.0,0.0,0.0,0.0,0.0,0.0,0.0,0.0,0.0,0.0,0.0,0.0,0.0,0.0,0.0,0.0,0.0,0.0,0.0,0.0,0.0,0.0,0.0,0.0,0.0,0.0,0.0,0.0,0.0,0.0,0.0,0.0,0.0,0.0,0.0,0.0,0.0,0.0,0.0,0.0,0.0,0.0,0.0,0.0,0.0,0.0,0.0,0.0,0.0,0.0,0.0,0.0,0.0,0.0,0.0,0.0,0.0,0.0,0.0,0.0,0.0,0.0,0.0,0.0,0.0,0.0,0.0,0.0,0.0,0.0,0.0,0.0,0.0,0.0,0.0,0.0,0.0,0.0,0.0,0.0,2.2848,2.8747,3.0127,3.0822,3.1359,2.8558,2.6025,2.43,0.0,0.0,0.0,0.0,0.0,0.0,0.0,0.0,0.0,0.0,0.0,0.0,0.0,0.0,0.0,0.0,0.0,0.0,0.0,0.0,0.0,0.0,0.0,0.0,0.0,0.0,0.0,0.0,0.0,0.0,0.0,0.0,0.0,0.0,0.0,0.0,0.0,0.0,0.0,0.0,0.0,0.0,0.0,0.0,0.0,0.0,0.0,0.0,0.0,0.0,0.0,0.0,0.0,0.0,0.0,0.0,0.0,0.0,0.0,0.0,0.0,0.0,0.0,0.0,0.0,0.0,0.0,0.0,0.0,0.0,0.0,0.0,0.0,0.0,0.0,0.0,0.0,0.0,0.0,0.0,0.0,0.0,0.0,0.0,0.0,0.0,0.0,0.0,0.0,0.0,0.0,0.0,0.0,0.0,0.0,0.0,0.0,0.0,0.0,0.0,0.0,0.0,0.0,2.1962,2.4918,2.9464,3.0198,3.0592,3.1048,2.8333,2.5915,2.43,2.1473,0.0,0.0,0.0,0.0,0.0,0.0,0.0,0.0,0.0,0.0,0.0,0.0,0.0,0.0,0.0,0.0,0.0,0.0,0.0,0.0,0.0,0.0,0.0,0.0,0.0,0.0,0.0,0.0,0.0,0.0,0.0,0.0,0.0,0.0,0.0,0.0,0.0,0.0,0.0,0.0,0.0,0.0,0.0,0.0,0.0,0.0,0.0,0.0,0.0,0.0,0.0,0.0,0.0,0.0,0.0,0.0,0.0,0.0,0.0,0.0,0.0,0.0,0.0,0.0,0.0,0.0,0.0,0.0,0.0,0.0,0.0,0.0,0.0,0.0,0.0,0.0,0.0,0.0,0.0,0.0,0.0,0.0,0.0,0.0,0.0,0.0,0.0,0.0,0.0,0.0,0.0,0.0,0.0,0.0,0.0,0.0,0.0,0.0,0.0,0.0,0.0,0.0,2.43,2.6754,2.9105,2.954,2.9889,3.0335,2.7792,2.5549,2.4049,2.0856,0.0,0.0,0.0,0.0,0.0,0.0,0.0,0.0,0.0,0.0,0.0,0.0,0.0,0.0,0.0,0.0,0.0,0.0,0.0,0.0,0.0,0.0,0.0,0.0,0.0,0.0,0.0,0.0,0.0,0.0,0.0,0.0,0.0,0.0,0.0,0.0,0.0,0.0,0.0,0.0,0.0,0.0,0.0,0.0,0.0,0.0,0.0,0.0,0.0,0.0,0.0,0.0,0.0,0.0,0.0,0.0,0.0,0.0,0.0,0.0,0.0,0.0,0.0,0.0,0.0,0.0,0.0,0.0,0.0,0.0,0.0,0.0,0.0,0.0,0.0,0.0,0.0,0.0,0.0,0.0,0.0,0.0,0.0,0.0,0.0,0.0,0.0,0.0,0.0,0.0,0.0,0.0,0.0,0.0,0.0,0.0,0.0,0.0,0.0,0.0,0.0,0.0,2.3951,2.7129,2.8447,2.8548,2.8708,2.9195,2.658,2.4441,2.3353,2.0065,0.0,0.0,0.0,0.0,0.0,0.0,0.0,0.0,0.0,0.0,0.0,0.0,0.0,0.0,0.0,0.0,0.0,0.0,0.0,0.0,0.0,0.0,0.0,0.0,0.0,0.0,0.0,0.0,0.0,0.0,0.0,0.0,0.0,0.0,0.0,0.0,0.0,0.0,0.0,0.0,0.0,0.0,0.0,0.0,0.0,0.0,0.0,0.0,0.0,0.0,0.0,0.0,0.0,0.0,0.0,0.0,0.0,0.0,0.0,0.0,0.0,0.0,0.0,0.0,0.0,0.0,0.0,0.0,0.0,0.0,0.0,0.0,0.0,0.0,0.0,0.0,0.0,0.0,0.0,0.0,0.0,0.0,0.0,0.0,0.0,0.0,0.0,0.0,0.0,0.0,0.0,0.0,0.0,0.0,0.0,0.0,0.0,0.0,0.0,0.0,0.0,0.0,2.4222,2.7233,0.0,2.8973,2.9173,2.9333,2.6816,2.4633,2.3283,0.0,0.0,0.0,0.0,0.0,0.0,0.0,0.0,0.0,0.0,0.0,0.0,0.0,0.0,0.0,0.0,0.0,0.0,0.0,0.0,0.0,0.0,0.0,0.0,0.0,0.0,0.0,0.0,0.0,0.0,0.0,0.0,0.0,0.0,0.0,0.0,0.0,0.0,0.0,0.0,0.0,0.0,0.0,0.0,0.0,0.0,0.0,0.0,0.0,0.0,0.0,0.0,0.0,0.0,0.0,0.0,0.0,0.0,0.0,0.0,0.0,0.0,0.0,0.0,0.0,0.0,0.0,0.0,0.0,0.0,0.0,0.0,0.0,0.0,0.0,0.0,0.0,0.0,0.0,0.0,0.0,0.0,0.0,0.0,0.0,0.0,0.0,0.0,0.0,0.0,0.0,0.0,0.0,0.0,0.0,0.0,0.0,0.0,0.0,0.0,0.0,0.0,2.1278,2.4763,2.7537,0.0,2.9006,2.8939,2.8939,2.6521,2.427,2.2653,0.0,0.0,0.0,0.0,0.0,0.0,0.0,0.0,0.0,0.0,0.0,0.0,0.0,0.0,0.0,0.0,0.0,0.0,0.0,0.0,0.0,0.0,0.0,0.0,0.0,0.0,0.0,0.0,0.0,0.0,0.0,0.0,0.0,0.0,0.0,0.0,0.0,0.0,0.0,0.0,0.0,0.0,0.0,0.0,0.0,0.0,0.0,0.0,0.0,0.0,0.0,0.0,0.0,0.0,0.0,0.0,0.0,0.0,0.0,0.0,0.0,0.0,0.0,0.0,0.0,0.0,0.0,0.0,0.0,0.0,0.0,0.0,0.0,0.0,0.0,0.0,0.0,0.0,0.0,0.0,0.0,0.0,0.0,0.0,0.0,0.0,0.0,0.0,0.0,0.0,0.0,0.0,0.0,0.0,0.0,0.0,0.0,0.0,0.0,0.0,0.0,0.0,2.2124,2.5509,2.8146,2.896,2.8315,2.7806,2.7806,2.535,2.3076,0.0,0.0,0.0,0.0,0.0,0.0,0.0,0.0,0.0,0.0,0.0,0.0,0.0,0.0,0.0,0.0,0.0,0.0,0.0,0.0,0.0,0.0,0.0,0.0,0.0,0.0,0.0,0.0,0.0,0.0,0.0,0.0,0.0,0.0,0.0,0.0,0.0,0.0,0.0,0.0,0.0,0.0,0.0,0.0,0.0,0.0,0.0,0.0,0.0,0.0,0.0,0.0,0.0,0.0,0.0,0.0,0.0,0.0,0.0,0.0,0.0,0.0,0.0,0.0,0.0,0.0,0.0,0.0,0.0,0.0,0.0,0.0,0.0,0.0,0.0,0.0,0.0,0.0,0.0,0.0,0.0,0.0,0.0,0.0,0.0,0.0,0.0,0.0,0.0,0.0,0.0,0.0,0.0,0.0,0.0,0.0,0.0,0.0,0.0,0.0,0.0,0.0,0.0,2.2835,2.6353,2.8924,2.9702,2.9567,2.9228,2.8687,2.6419,2.4086,2.1773,0.0,0.0,0.0,0.0,0.0,0.0,0.0,0.0,0.0,0.0,0.0,0.0,0.0,0.0,0.0,0.0,0.0,0.0,0.0,0.0,0.0,0.0,0.0,0.0,0.0,0.0,0.0,0.0,0.0,0.0,0.0,0.0,0.0,0.0,0.0,0.0,0.0,0.0,0.0,0.0,0.0,0.0,0.0,0.0,0.0,0.0,0.0,0.0,0.0,0.0,0.0,0.0,0.0,0.0,0.0,0.0,0.0,0.0,0.0,0.0,0.0,0.0,0.0,0.0,0.0,0.0,0.0,0.0,0.0,0.0,0.0,0.0,0.0,0.0,0.0,0.0,0.0,0.0,0.0,0.0,0.0,0.0,0.0,0.0,0.0,0.0,0.0,0.0,0.0,0.0,0.0,0.0,0.0,0.0,0.0,0.0,0.0,0.0,0.0,0.0,0.0,0.0,2.3511,2.686,2.9397,3.0446,3.0277,2.9803,2.9059,2.7165,2.4768,2.1735,0.0,0.0,0.0,0.0,0.0,0.0,0.0,0.0,0.0,0.0,0.0,0.0,0.0,0.0,0.0,0.0,0.0,0.0,0.0,0.0,0.0,0.0,0.0,0.0,0.0,0.0,0.0,0.0,0.0,0.0,0.0,0.0,0.0,0.0,0.0,0.0,0.0,0.0,0.0,0.0,0.0,0.0,0.0,0.0,0.0,0.0,0.0,0.0,0.0,0.0,0.0,0.0,0.0,0.0,0.0,0.0,0.0,0.0,0.0,0.0,0.0,0.0,0.0,0.0,0.0,0.0,0.0,0.0,0.0,0.0,0.0,0.0,0.0,0.0,0.0,0.0,0.0,0.0,0.0,0.0,0.0,0.0,0.0,0.0,0.0,0.0,0.0,0.0,0.0,0.0,0.0,0.0,0.0,0.0,0.0,0.0,0.0,0.0,0.0,0.0,0.0,0.0,2.4117,2.7131,2.9567,3.1021,3.0615,2.9905,2.9161,2.7672,2.527,2.1691,0.0,0.0,0.0,0.0,0.0,0.0,0.0,0.0,0.0,0.0,0.0,0.0,0.0,0.0,0.0,0.0,0.0,0.0,0.0,0.0,0.0,0.0,0.0,0.0,0.0,0.0,0.0,0.0,0.0,0.0,0.0,0.0,0.0,0.0,0.0,0.0,0.0,0.0,0.0,0.0,0.0,0.0,0.0,0.0,0.0,0.0,0.0,0.0,0.0,0.0,0.0,0.0,0.0,0.0,0.0,0.0,0.0,0.0,0.0,0.0,2.3173,0.0,0.0,0.0,0.0,0.0,0.0,0.0,0.0,0.0,0.0,0.0,0.0,0.0,0.0,0.0,0.0,0.0,0.0,0.0,0.0,0.0,0.0,0.0,0.0,0.0,0.0,0.0,0.0,0.0,0.0,0.0,0.0,0.0,0.0,0.0,0.0,0.0,0.0,0.0,0.0,0.0,2.4117,2.7131,2.9567,3.1021,3.1055,3.0683,2.9939,2.845,2.6387,2.3579,2.0411,0.0,0.0,0.0,0.0,0.0,0.0,0.0,0.0,0.0,0.0,0.0,0.0,0.0,0.0,0.0,0.0,0.0,0.0,0.0,0.0,0.0,0.0,0.0,0.0,0.0,0.0,0.0,0.0,0.0,0.0,0.0,0.0,0.0,0.0,0.0,0.0,0.0,0.0,0.0,0.0,0.0,0.0,0.0,0.0,0.0,0.0,0.0,0.0,0.0,0.0,0.0,0.0,0.0,0.0,0.0,0.0,0.0,0.0,0.0,0.0,2.4572,0.0,0.0,0.0,0.0,0.0,0.0,0.0,0.0,0.0,0.0,0.0,0.0,0.0,0.0,0.0,0.0,0.0,0.0,0.0,0.0,0.0,0.0,0.0,0.0,0.0,0.0,0.0,0.0,0.0,0.0,0.0,0.0,0.0,0.0,0.0,0.0,0.0,0.0,0.0,0.0,2.4695,2.7672,2.9939,3.1089,3.119,3.0886,3.0176,2.9364,2.7737,2.4944,2.2358,0.0,0.0,0.0,0.0,0.0,0.0,0.0,0.0,0.0,0.0,0.0,0.0,0.0,0.0,0.0,0.0,0.0,0.0,0.0,0.0,0.0,0.0,0.0,0.0,0.0,0.0,0.0,0.0,0.0,0.0,0.0,0.0,0.0,0.0,0.0,0.0,0.0,0.0,0.0,0.0,0.0,0.0,0.0,0.0,0.0,0.0,0.0,0.0,0.0,0.0,0.0,0.0,0.0,3.2949,3.3322,3.278,3.3355,3.3584,3.3287,3.0824,2.8943,2.7453,0.0,0.0,0.0,0.0,0.0,0.0,0.0,0.0,0.0,0.0,0.0,0.0,0.0,0.0,0.0,0.0,0.0,0.0,0.0,0.0,0.0,0.0,0.0,0.0,0.0,2.8594,2.8215,0.0,0.0,0.0,0.0,0.0,0.0,0.0,0.0,0.0,0.0,0.0,0.0,2.5507,2.8315,3.0378,3.1123,3.119,3.0954,3.0345,3.0176,2.8924,2.6184,2.4594,2.253,0.0,0.0,0.0,0.0,0.0,0.0,0.0,0.0,0.0,0.0,0.0,0.0,0.0,0.0,0.0,0.0,0.0,0.0,0.0,0.0,0.0,0.0,0.0,0.0,0.0,0.0,0.0,0.0,0.0,0.0,0.0,0.0,2.3422,2.5075,0.0,0.0,0.0,0.0,0.0,0.0,0.0,0.0,0.0,0.0,0.0,0.0,0.0,3.2273,3.3132,3.5572,3.6818,3.6907,3.8396,3.9039,3.8937,3.9005,3.8656,3.792,3.7524,0.0,3.0381,2.8297,0.0,0.0,0.0,0.0,0.0,0.0,0.0,0.0,0.0,0.0,0.0,0.0,0.0,0.0,0.0,0.0,0.0,0.0,0.0,0.0,0.0,0.0,3.1336,3.0794,3.0789,3.0717,0.0,2.6319,2.2835,2.1887,2.0677,0.0,0.0,0.0,0.0,0.0,0.0,0.0,2.6251,2.8619,3.0378,3.1123,3.119,3.1157,3.1055,3.048,2.9364,2.7603,2.615,2.456,2.2868,2.0805,0.0,0.0,0.0,0.0,0.0,0.0,0.0,0.0,0.0,0.0,0.0,0.0,0.0,0.0,0.0,0.0,0.0,0.0,0.0,0.0,0.0,0.0,0.0,0.0,0.0,0.0,0.0,0.0,0.0,2.3912,2.6208,2.6381,2.6455,2.5756,0.0,0.0,0.0,0.0,0.0,0.0,0.0,0.0,0.0,3.454,3.5309,3.6389,3.7989,3.9205,3.9952,4.0392,4.1035,4.1096,4.0634,4.0634,4.016,3.9328,3.8854,3.7408,3.5078,3.1883,2.9495,2.7736,0.0,0.0,0.0,0.0,2.7595,2.7488,2.9042,2.9131,0.0,2.8183,0.0,0.0,0.0,0.0,0.0,0.0,0.0,0.0,0.0,0.0,0.0,3.4303,3.4336,3.4201,3.3761,3.1224,2.8315,0.0,2.4833,2.3482,2.067,0.0,0.0,0.0,0.0,0.0,2.8416,3.0581,3.1935,3.1833,3.1799,3.163,3.1224,3.0886,3.0074,2.8552,2.7435,2.6184,2.4695,2.2868,2.1216,0.0,0.0,0.0,0.0,0.0,0.0,0.0,0.0,0.0,0.0,0.0,0.0,0.0,0.0,0.0,0.0,0.0,0.0,0.0,0.0,0.0,0.0,0.0,0.0,0.0,0.0,0.0,0.0,2.6584,2.8443,2.7853,2.9148,2.8888,0.0,0.0,0.0,0.0,0.0,0.0,3.3621,3.4995,3.6884,3.9316,3.9695,4.0696,4.2354,4.2307,4.2534,4.3071,4.2869,4.2377,4.1754,4.1754,4.1329,4.0482,3.9741,3.919,3.853,3.4848,3.2553,3.1195,3.0007,2.9633,3.0018,3.1436,3.1622,3.1393,3.3284,3.3325,3.2497,3.1628,0.0,3.1089,2.8893,0.0,0.0,0.0,0.0,3.2235,3.3499,3.4993,3.6366,3.6941,3.7077,3.6907,3.6332,3.5182,3.322,0.0,2.8822,2.7571,2.4086,0.0,0.0,0.0,0.0,2.9803,3.0581,3.2273,3.3119,3.2374,3.2313,3.1968,3.1258,3.119,3.0548,2.9059,2.845,2.7435,2.5947,2.4661,2.317,2.1557,0.0,0.0,0.0,0.0,0.0,0.0,0.0,0.0,0.0,0.0,0.0,0.0,0.0,0.0,0.0,0.0,0.0,0.0,0.0,0.0,0.0,0.0,0.0,0.0,0.0,0.0,0.0,0.0,0.0,3.0455,3.2355,0.0,0.0,0.0,0.0,3.3911,3.4471,3.5717,3.7964,3.9793,4.1256,4.2102,4.4181,4.5365,4.5466,4.5302,4.52,4.52,4.4333,4.3869,4.3869,4.3869,4.3358,4.2519,4.1798,4.0689,3.9182,3.6484,3.4955,3.4205,3.3516,3.2856,3.2466,3.3847,3.4328,3.4418,3.5135,3.4565,3.3849,3.6537,3.6443,3.5194,3.4327,3.3413,0.0,0.0,3.4506,3.6011,3.6469,3.7178,3.7787,3.7855,3.7855,3.7855,3.7787,3.7178,3.5723,0.0,3.1495,3.0751,2.9803,0.0,2.9803,2.9736,3.0514,3.136,3.207,3.2882,3.3119,3.2374,3.2313,3.1968,3.1258,3.119,3.0548,2.9059,2.8958,2.8247,2.6691,2.5913,2.4917,2.366,2.1603,0.0,0.0,0.0,0.0,0.0,0.0,0.0,0.0,0.0,0.0,0.0,0.0,0.0,0.0,0.0,0.0,0.0,0.0,0.0,0.0,0.0,0.0,0.0,0.0,0.0,0.0,0.0,0.0,3.4189,3.6028,0.0,3.3964,3.5011,3.6258,3.7319,3.8819,4.0458,4.2312,4.3478,4.4418,4.5162,4.5974,4.6144,4.5535,4.5458,4.5113,4.4494,4.4161,4.3685,4.3161,4.3161,4.2695,4.1849,4.1607,4.1173,4.0606,3.9679,3.8123,3.6327,3.6118,3.5878,3.5729,3.6178,3.6357,3.6387,3.6656,3.6784,3.7094,3.8753,3.8611,3.7903,3.8063,3.7861,3.758,3.7699,3.8526,3.9438,3.9596,3.9817,4.002,4.002,3.9309,3.8599,3.8599,3.8024,3.7178,3.6096,3.4506,3.278,3.1089,3.1596,3.1901,3.0954,3.2239,3.3423,3.366,3.437,3.4539,3.3795,3.3288,3.2713,3.1968,3.1021,3.0074,2.9059,2.8518,2.7571,2.6048,2.5744,2.4815,2.3108,2.1814,1.959,0.0,0.0,0.0,0.0,0.0,0.0,0.0,0.0,0.0,0.0,0.0,0.0,0.0,0.0,0.0,0.0,0.0,0.0,0.0,0.0,0.0,0.0,0.0,0.0,0.0,0.0,3.5908,3.638,3.8826,3.9614,3.7347,3.8971,4.046,4.1204,4.2625,4.3978,4.5263,4.6041,4.6684,4.7158,4.7631,4.7407,4.6453,4.6421,4.5785,4.4591,4.4235,4.3707,4.289,4.289,4.2591,4.2013,4.1803,4.1713,4.1683,4.1474,4.0337,3.8721,3.8512,3.8422,3.8392,3.8469,3.8516,3.8554,3.858,3.9181,3.9941,4.0336,4.037,4.0241,4.0695,4.0832,4.0832,4.0832,4.1204,4.1576,4.1576,4.1576,4.1576,4.1576,4.0629,3.9749,3.9749,3.914,3.8565,3.8328,3.684,3.5115,3.3355,3.3897,3.4134,3.2882,3.3931,3.4878,3.4878,3.5318,3.5318,3.4573,3.4066,3.3355,3.2374,3.119,3.004,2.9059,2.8247,2.7266,2.6015,2.5744,2.489,2.335,2.1799,1.9842,1.7453,0.0,0.0,0.0,0.0,0.0,0.0,0.0,0.0,0.0,0.0,0.0,0.0,0.0,0.0,0.0,0.0,0.0,0.0,0.0,0.0,0.0,0.0,0.0,3.2735,3.5419,3.724,3.7055,4.0814,4.2638,4.0527,4.2963,4.4959,4.5703,4.5771,4.6109,4.6853,4.7597,4.8003,4.8037,4.939,4.962,4.8625,4.8368,4.7415,4.565,4.4769,4.4018,4.3389,4.3389,4.3389,4.3359,4.2701,4.2432,4.2372,4.1713,4.1444,4.1384,4.0696,4.0427,4.0484,4.0685,4.0752,4.0733,4.096,4.1545,4.2137,4.1502,4.1777,4.2354,4.2354,4.2354,4.2354,4.2354,4.2354,4.2354,4.2354,4.2354,4.232,4.232,4.1779,4.1238,4.1238,4.0629,3.9918,3.9208,3.8464,3.7719,3.6941,3.6806,3.6535,3.5791,3.5611,0.0,3.5577,3.5577,3.5273,3.453,3.4472,3.3863,3.2449,3.1596,3.0548,2.9096,2.8247,2.7469,2.6691,2.5981,2.5236,2.4489,2.1763,2.0062,1.9577,0.0,0.0,0.0,0.0,0.0,0.0,0.0,0.0,0.0,0.0,0.0,0.0,0.0,0.0,0.0,0.0,0.0,0.0,0.0,0.0,0.0,0.0,3.5265,3.4783,3.7716,4.0271,4.1399,4.3522,4.489,4.4936,4.5703,4.6481,4.7259,4.7327,4.7868,4.912,4.939,4.9729,5.0304,4.9992,4.9381,4.8361,4.7593,4.6546,4.5384,4.5169,4.4915,4.4766,4.4766,4.4766,4.4706,4.4047,4.3778,4.3718,4.306,4.2791,4.2701,4.1564,4.1115,4.116,4.1173,4.126,4.1548,4.2363,4.2813,4.3079,4.3528,4.3833,4.3944,4.3944,4.3944,4.3944,4.3944,4.3944,4.3944,4.3944,4.3538,4.3098,4.3098,4.2523,4.1982,4.1982,4.1407,4.0832,4.0629,3.9986,3.9073,3.7821,3.7584,3.7347,3.6569,3.6028,0.0,3.4944,3.4878,3.4612,3.3835,3.3738,3.3322,3.2374,3.1123,3.0006,2.9059,2.8247,2.7232,2.5981,2.571,2.5,2.3714,2.2002,2.1024,0.0,0.0,0.0,0.0,0.0,0.0,0.0,0.0,0.0,0.0,0.0,0.0,0.0,0.0,0.0,0.0,0.0,0.0,0.0,0.0,0.0,0.0,3.6538,3.8733,3.8246,3.9994,4.1992,4.3953,4.52,4.6242,4.72,4.753,4.8037,4.8781,4.8815,4.9323,5.0507,5.0574,5.0777,5.1217,5.049,4.9681,4.8733,4.795,4.6977,4.5723,4.5723,4.5574,4.5304,4.5304,4.5304,0.0,4.4885,4.4736,4.4676,4.4018,4.3748,0.0,0.0,0.0,0.0,0.0,4.3088,4.3913,4.4528,4.453,4.4415,4.4913,4.4823,4.4587,4.4587,4.4587,4.4587,4.4587,4.4587,4.4587,4.4587,4.4248,4.391,4.391,4.3335,4.276,4.276,4.2185,4.1644,4.1644,4.1068,0.0,3.9445,3.8768,3.7995,3.6898,3.6157,3.5416,3.4691,3.4365,3.4137,3.3952,3.3927,3.3738,3.3254,3.1867,0.0,0.0,0.0,2.7638,2.6116,2.5778,0.0,0.0,0.0,0.0,0.0,0.0,0.0,0.0,2.266,2.2923,0.0,0.0,0.0,0.0,0.0,0.0,0.0,0.0,0.0,0.0,0.0,0.0,0.0,0.0,0.0,0.0,3.9918,4.2122,4.214,4.2105,4.2976,4.5144,4.6157,4.7038,4.8017,4.8748,4.9424,5.0168,5.0202,5.0541,5.1285,0.0,0.0,0.0,0.0,5.0359,4.9469,4.8903,4.7935,4.6441,4.6441,4.6112,4.5514,4.5514,4.5514,4.5514,4.5454,4.5394,4.5364,4.4706,4.4436,4.4287,4.297,4.2539,4.2833,4.3787,4.5308,4.6768,4.6667,0.0,0.0,4.5572,4.5043,4.4505,4.4461,4.4428,4.4428,4.4428,4.4451,4.4474,4.4541,4.4508,4.444,4.4587,4.399,4.3428,4.3483,4.2963,4.2422,4.2422,4.1745,4.1152,4.11,3.9919,3.8505,3.7048,3.6186,3.5389,3.4601,3.3973,3.3732,3.417,0.0,0.0,3.4273,3.3111,3.207,3.1258,2.9803,2.8383,2.6996,2.6319,2.5642,2.4896,2.4864,2.5507,2.6826,2.6826,2.7266,2.801,2.4777,2.4844,0.0,0.0,0.0,0.0,0.0,0.0,0.0,0.0,0.0,0.0,0.0,0.0,0.0,0.0,0.0,3.897,4.1249,4.2937,4.3301,4.3385,4.3874,4.5098,4.6518,4.7967,4.9531,4.9796,5.0202,5.0947,5.1014,5.1319,5.2063,5.2097,5.2401,5.3044,5.1368,5.0358,5.0205,4.8481,4.7392,4.713,0.0,0.0,4.692,4.692,4.692,4.689,4.6352,4.6142,4.6082,4.5394,4.5095,4.4975,4.3658,4.359,4.4384,4.4795,4.5633,4.6447,4.5851,4.5553,4.5296,4.4561,4.4203,4.4042,4.346,4.3299,0.0,4.3299,4.3411,4.3694,4.423,4.3932,4.3739,4.444,4.3963,4.3539,4.4238,4.3741,4.32,4.32,4.2117,4.1013,4.0446,3.952,3.8639,3.7702,3.6469,3.5174,3.3855,3.3606,3.3131,3.2113,3.3031,3.3485,3.2883,3.3024,3.2611,3.1292,2.9803,2.8892,2.8552,2.8416,2.7977,2.7199,2.7165,2.73,2.7604,2.7604,2.8315,2.9634,2.8351,2.822,0.0,0.0,0.0,0.0,0.0,0.0,0.0,0.0,0.0,0.0,0.0,3.4134,3.6366,0.0,4.0975,4.1906,4.3169,4.3939,4.3738,4.4476,4.5168,4.5661,4.6808,4.8297,4.9936,5.0101,5.0541,5.1691,5.1758,5.2097,5.2875,5.2909,5.3011,5.3161,5.135,5.0324,5.0119,4.8255,4.7309,4.7309,4.7309,4.7309,4.7309,4.7309,4.7309,4.7279,4.695,4.68,4.677,4.6082,4.5603,4.5214,4.4556,4.4716,4.5215,4.5018,4.5553,4.6315,4.5958,4.5534,4.5176,4.4673,4.4313,4.3962,4.3611,4.3515,4.3515,4.3515,4.3588,4.3653,4.3653,4.3394,4.3163,4.3295,4.2986,4.2892,4.3739,4.3322,4.2848,4.3265,4.1806,4.0442,4.0066,3.8753,3.763,3.7253,3.6268,3.5241,3.412,3.3391,3.2863,3.2492,3.2814,3.3026,3.2967,3.33,3.2827,3.1358,3.0566,2.9791,2.912,2.905,2.8789,2.8416,2.8416,2.8586,2.8958,2.933,3.0108,3.119,3.119,3.107,0.0,0.0,0.0,0.0,0.0,0.0,0.0,0.0,3.3599,3.5704,3.7331,3.8903,4.0832,4.276,4.4145,4.4388,4.4946,4.4953,4.3753,4.511,4.6173,4.6173,4.7302,4.8694,5.0375,5.0379,5.0789,5.2135,5.2068,5.2267,5.3037,5.3104,5.3019,5.2768,5.1302,5.0277,5.0049,4.8486,4.7608,4.7489,4.7489,4.7429,4.7309,4.7309,4.7309,4.7309,4.7309,4.7309,4.7279,4.6741,4.6202,4.5663,4.5544,4.5616,4.5772,4.5201,4.5468,4.6173,4.5961,4.5539,4.5024,4.4812,4.4331,4.3857,4.3939,4.3944,4.3944,4.3944,4.3986,4.3831,4.3123,4.2833,4.2614,4.2109,4.1853,4.2013,4.2863,4.252,4.2205,4.2925,4.1355,3.9809,3.9686,3.7933,3.66,3.66,3.6044,3.5309,3.4598,3.3425,3.2854,3.3253,3.2863,3.2949,3.3751,3.3743,3.3226,3.2077,3.1758,3.1127,3.0087,2.9916,2.9837,2.9837,2.9837,3.0142,3.0751,3.1326,3.1935,3.251,3.3254,3.3288,2.7977,2.8186,2.9627,3.1881,3.3133,3.5247,0.0,0.0,4.0297,4.3484,4.3902,4.3978,4.4925,4.5805,4.6079,4.5137,4.5635,4.5435,4.3572,4.4986,4.6173,4.6173,4.8365,5.0443,5.1928,5.126,5.1074,5.1867,5.1132,5.0896,5.1604,5.1637,5.188,5.2365,5.1309,5.0754,5.0646,4.9637,4.8745,4.8177,4.8177,4.7878,4.7309,4.7309,4.7309,4.7309,4.7309,4.7309,4.7309,4.7219,4.716,4.701,4.6441,4.6256,4.6154,4.5786,4.5845,4.6103,4.5227,4.4899,4.4688,4.3805,4.3464,4.3408,4.3747,4.3853,4.3853,4.3853,4.3952,4.389,4.2997,4.2248,4.1903,4.1979,4.1396,4.1064,4.1917,4.2045,4.2045,4.2141,4.0924,3.9686,3.8966,3.7561,3.66,3.66,3.6009,3.5289,3.4625,3.3844,3.3216,3.2676,3.2614,3.3077,3.4366,3.443,3.4317,3.4148,3.3516,3.3077,3.2934,3.2908,3.2916,3.2916,3.2916,3.2949,3.3051,3.3119,3.322,3.3288,3.4032,3.4336,3.3694,3.4219,3.522,0.0,3.8999,4.1056,4.3439,4.3617,4.3692,4.522,4.6045,4.6616,4.6921,4.7597,4.7905,0.0,4.6974,4.6465,4.554,4.619,4.6973,4.7357,4.9392,5.098,5.1623,5.1158,5.113,5.1855,5.1318,5.1133,5.1374,5.1726,5.1946,5.2009,5.1211,5.0728,5.0454,4.9704,4.9134,4.8865,4.8865,4.8716,4.8446,4.8057,4.7668,4.7309,4.7309,4.7309,4.7309,4.7309,4.7309,4.7279,4.701,4.6651,4.6202,4.5677,4.5611,4.5649,4.5239,4.4838,4.4425,4.4058,4.4025,4.4174,4.4322,4.4757,4.5119,4.4569,4.4455,4.4122,4.2401,4.1741,4.1401,4.0624,4.02,4.017,4.1095,4.0826,4.0653,4.1131,3.9707,3.835,3.7983,3.6823,3.5943,3.5943,3.5718,3.54,3.513,3.4472,3.3848,3.3145,3.2752,3.313,3.4496,3.4565,3.4384,3.4029,3.4028,3.37,3.2917,3.322,3.3423,3.3423,3.3423,3.3423,3.3423,3.3829,3.4032,3.4066,3.481,3.5148,3.728,3.8284,0.0,4.0997,4.3412,4.532,4.507,4.5664,4.6295,4.6564,4.7462,4.8206,4.8206,4.8646,4.8811,4.8357,4.769,4.7151,4.6936,4.7044,4.7525,4.8296,4.9892,5.0851,5.0759,5.0744,5.0896,5.1418,5.088,5.0586,5.0775,5.1403,5.1701,5.1659,5.1199,5.0756,5.0511,5.0032,4.9703,4.9523,4.9523,4.9434,4.9254,4.8596,4.8027,4.7578,4.7369,4.7309,4.7309,4.7309,4.7309,4.7309,4.7309,4.701,4.6531,4.6022,4.5603,4.5304,4.5304,4.4855,4.4317,4.4317,4.4552,4.4887,4.5079,4.585,4.6384,4.5416,4.5227,4.462,4.2063,4.1384,4.1055,3.9738,3.9409,3.9553,4.017,3.9879,3.9523,3.9859,3.8462,3.7098,3.6681,3.5908,3.5274,3.5096,3.5294,3.5519,3.5519,3.4891,3.4242,3.3573,3.3294,3.3456,3.4252,3.4463,3.4314,3.3645,3.3988,3.3835,3.2812,3.3226,3.3528,3.3738,3.3705,3.3826,3.4032,3.4539,3.481,3.481,3.5351,3.5723,3.6806,0.0,4.056,4.261,4.4836,4.6707,4.7361,4.8121,4.8747,4.8836,4.8951,4.8984,4.8984,4.8984,4.862,4.7452,4.7189,4.7151,4.6936,4.7044,4.7548,4.859,4.9555,5.0051,0.0,5.0163,5.0442,5.0474,4.9158,4.8655,4.9374,4.9944,5.0603,5.1169,5.1169,5.1169,5.1199,5.1169,5.084,5.0212,5.0212,4.9883,4.9254,4.8596,4.8267,4.8207,4.7578,4.7309,4.7309,4.7309,4.7309,4.7309,4.7309,4.7309,4.7279,4.7249,4.6411,4.5304,4.5304,4.4855,4.4317,4.4317,4.4552,4.4962,4.5921,4.6799,4.7373,4.6384,4.6173,4.5429,4.2213,4.1384,4.1055,3.9738,3.9409,3.9409,3.9409,3.9409,3.909,3.8069,3.7267,3.631,3.4724,3.4723,3.4692,3.4128,3.4905,3.5519,3.5519,3.4891,3.4242,3.3573,3.4108,3.4281,3.3681,3.4219,3.4317,3.3668,3.3617,3.3585,3.3585,3.3585,3.3906,3.4574,3.4574,3.4891,3.5554,3.5588,3.5588,3.5588,3.5622,3.6028,3.9783,0.0,4.4234,4.6446,4.828,4.9803,5.0564,5.0154,4.9664,4.9723,4.8545,4.7699,4.8206,4.7868,4.7888,4.896,4.8399,4.8126,4.9075,4.8246,4.7464,4.7372,4.8296,0.0,0.0,0.0,0.0,5.0442,5.0144,5.0069,5.0284,5.0608,5.099,5.1199,5.1229,5.1229,5.1229,5.1229,5.1109,5.09,5.09,5.0541,4.9912,4.9673,4.9105,4.8297,4.8506,4.8356,4.7967,4.7967,4.7967,4.7908,4.7489,4.7309,4.7309,4.7309,4.701,4.6621,4.6621,4.6202,4.5657,4.5849,4.6143,4.6453,4.6961,4.7803,4.8225,4.6662,4.6173,4.5524,4.2728,4.1713,4.1145,4.0277,3.9738,3.9409,3.9409,3.887,3.8219,3.7843,3.6694,3.5655,3.5051,3.4677,3.4534,3.4552,3.5133,3.5519,3.5519,3.4891,3.4574,3.4812,3.5117,3.5208,3.4984,3.5551,3.5654,3.4952,3.4505,3.427,3.427,3.4734,3.5119,3.5317,3.6285,3.6922,3.7144,3.7144,3.7144,3.7144,3.7144,3.728,4.2963,4.509,4.6893,4.9182,5.0429,5.1218,5.1424,5.0782,4.9864,4.9052,4.7564,4.6481,4.6684,4.6109,4.6262,4.8413,4.7985,4.7946,4.9789,4.8702,4.7712,4.7637,4.7965,4.8233,0.0,0.0,0.0,4.9867,5.0414,5.0599,5.0314,5.0819,5.1229,5.1229,5.1229,5.1229,5.1229,5.1229,5.1229,5.1229,5.1229,5.099,5.0571,5.0361,4.9763,4.8985,4.9194,4.9015,4.8626,4.8386,4.8297,4.8207,4.7549,4.7309,4.7309,4.7309,4.7309,4.7309,4.7309,4.686,4.6371,4.6647,4.6944,4.7277,4.7535,4.7998,4.8161,4.6592,4.5961,4.5185,4.2954,4.2043,4.1504,4.0606,3.9743,3.9136,3.89,3.7994,3.7098,3.6788,3.5857,3.4898,3.4286,3.4294,3.4446,3.4796,3.5457,3.5759,3.5519,3.513,3.5027,3.5459,3.5556,3.5521,3.5244,3.5623,3.5623,3.4904,3.4466,3.4216,3.4216,3.4952,3.5461,3.572,3.6871,3.7614,3.7922,3.7922,3.7922,3.7922,3.7922,3.8058,4.6143,4.7564,4.8714,5.0811,5.1352,5.1116,5.0371,5.0101,4.9424,4.7192,4.6041,4.5196,0.0,0.0,4.4034,4.6055,4.6173,4.6789,4.901,4.8404,4.8057,0.0,0.0,0.0,0.0,0.0,0.0,4.8872,0.0,5.0401,4.9494,5.0511,5.1229,5.1229,5.1229,5.1229,5.1229,5.1229,5.1229,5.1229,5.1229,5.1229,5.1199,5.0571,5.0272,5.0212,4.9613,4.9344,4.9284,4.8656,4.8386,4.8327,4.7638,4.7369,4.7369,4.7309,4.7309,4.7309,4.7309,4.689,4.6401,4.6757,4.6975,4.7269,4.7601,4.7605,4.7306,4.6384,4.5488,4.4463,4.2861,4.2372,4.1966,4.0681,3.9513,3.8515,3.7882,3.6866,3.5814,3.4897,3.4677,3.4079,3.2592,3.3489,3.4576,3.4982,3.5869,3.6237,3.5579,3.5519,3.5477,3.5522,3.555,3.5272,3.4623,3.462,3.4358,3.3636,3.3574,3.3544,3.3544,3.4327,3.5137,3.5742,3.6574,3.7303,3.8024,3.8024,3.8024,3.8024,3.8024,3.8396,4.8578,5.0642,5.2232,5.2773,5.2909,5.2706,5.1928,5.0473,4.8646,4.6447,4.3606,4.1305,0.0,0.0,0.0,4.5547,4.6843,0.0,4.9917,4.8511,0.0,4.7045,0.0,4.7479,4.7407,4.881,0.0,0.0,5.0187,5.0931,5.1138,5.1212,5.1229,5.1229,5.1229,5.1229,5.1229,5.1229,5.1229,5.1229,5.1229,5.1229,5.1199,5.105,5.069,5.0242,5.0571,5.0451,4.9972,4.9823,4.9733,4.9613,4.8476,4.8027,4.7967,4.7489,4.7309,4.7309,4.7309,4.7189,4.7262,4.831,4.7851,4.7007,4.8115,4.7528,4.6384,4.5416,4.5005,4.4555,4.3356,4.204,4.0866,4.0159,3.8688,3.7386,3.6744,3.5842,3.4979,3.4759,3.4037,3.3674,3.3996,3.4658,3.5356,3.6184,3.6428,3.6237,3.5579,3.5519,3.5494,3.5507,3.5952,3.6014,3.5269,3.5769,3.5769,3.5045,3.4502,3.4233,3.4233,3.5506,3.6366,3.6533,3.8328,3.9328,3.9512,3.9512,3.9512,3.9512,3.9512,3.9614,5.1454,5.3247,5.4397,5.4059,5.3754,5.2875,5.0439,4.868,4.6447,4.2591,4.0121,0.0,3.6806,3.8633,0.0,0.0,0.0,0.0,4.9839,4.9122,4.8292,0.0,4.8076,0.0,4.8177,4.9061,4.9604,0.0,5.0655,5.1159,5.1147,5.121,5.1229,5.1229,5.1229,5.1229,5.1229,5.1229,5.1229,5.1229,5.1229,5.1229,5.1229,5.1229,5.102,5.069,0.0,5.102,5.0661,5.0361,5.0242,5.0122,4.8805,4.8297,4.8207,4.7549,4.7309,4.7309,4.7309,4.7309,4.7417,4.8355,4.7934,4.7279,4.7838,4.7116,4.5793,4.5024,4.451,4.3897,4.2871,4.1767,4.0732,3.9694,3.8256,3.6956,3.6089,3.5103,3.4237,3.4004,3.3471,3.3471,3.4511,3.525,3.5941,3.6671,3.7075,3.7075,3.6417,3.5848,3.5519,3.5519,3.591,3.5943,3.5584,3.5879,3.5943,3.5489,3.513,3.5082,3.5429,3.6578,3.7351,3.7741,3.9272,3.9901,3.9558,3.9558,3.9401,3.9102,3.9454,3.9558,5.4329,5.5378,5.5683,5.4938,5.4025,5.2198,4.78,4.5906,4.347,3.7652,0.0,3.5419,3.3355,3.552,3.8396,4.0798,0.0,4.7078,4.9513,4.9846,4.9905,4.9832,4.9748,4.9554,4.9404,4.9464,4.9763,5.0331,5.121,5.13,5.0361,5.09,5.1229,5.1229,5.1229,5.1229,5.1229,5.1229,5.1229,5.1229,5.1229,5.1229,5.1229,5.1229,5.1229,5.1229,0.0,0.0,5.1169,5.0601,5.0361,5.0242,4.9015,4.8536,4.8446,4.7523,4.7138,4.7138,4.7048,4.7019,4.716,4.7671,4.7719,4.749,4.7308,4.6429,4.5341,4.4711,4.3801,4.282,4.167,4.1253,4.0746,3.9084,3.7853,3.6796,3.5634,3.4597,3.3746,3.3194,3.3068,3.3471,3.465,3.5574,3.6409,3.7065,3.7824,3.8182,3.7614,3.6507,3.5729,3.5639,3.5699,3.5699,3.5519,3.5579,3.5609,3.5519,3.5619,3.5943,3.6538,3.744,3.8246,3.8908,3.9662,3.9714,3.8908,3.8908,3.8525,3.7822,3.858,3.8908,5.6156,5.6528,5.6427,5.5716,5.3991,5.1522,4.7665,4.4282,0.0,0.0,3.3423,3.1867,3.0852,3.3592,3.7144,4.0629,4.3547,4.6651,5.0105,5.0435,5.0153,0.0,5.0777,0.0,0.0,0.0,0.0,0.0,0.0,5.1206,5.105,5.1169,5.1229,5.1229,5.1229,5.1229,5.1229,5.1229,5.1229,5.1229,5.1229,5.1229,5.1229,5.1229,5.1229,5.1229,5.1229,0.0,5.1199,5.1079,5.105,5.096,5.0212,4.9912,4.955,4.7395,4.6563,4.6475,4.5953,4.5689,4.6018,4.8026,4.766,4.6736,4.7459,4.6229,4.4308,4.3231,4.249,4.1587,4.049,3.9448,3.8488,3.7723,3.6664,3.5628,3.497,3.4287,3.3746,3.3194,3.3068,3.37,3.5574,3.6053,3.681,3.8693,3.8609,3.8362,3.8242,3.7554,3.6896,3.6357,3.6776,3.6656,3.5609,3.5998,3.6088,3.5549,3.607,3.6446,3.66,3.793,3.8745,3.8908,3.9662,3.9714,3.8908,3.8908,3.8525,3.7822,3.858,3.8908,5.707,5.7374,5.7103,5.5987,5.3414,4.9955,4.5476,0.0,0.0,0.0,3.0784,2.9702,2.8552,3.1698,3.5182,3.7347,4.0769,4.459,4.8723,4.967,5.051,5.182,5.2803,5.284,0.0,0.0,0.0,0.0,0.0,5.1229,5.1229,5.1229,5.1229,5.1229,5.1229,5.1229,5.1229,5.1229,5.1229,5.1229,5.1229,5.1229,5.1229,5.1229,5.1229,5.1229,5.1229,0.0,5.1229,5.1229,5.0793,5.0132,4.9391,4.8719,4.7903,4.6288,4.556,4.5222,4.4941,4.4631,4.4627,4.5634,4.643,4.6856,4.694,4.5544,4.3793,4.2878,4.1653,4.0404,3.9271,3.8559,3.7873,3.7065,3.6192,3.5479,3.5203,3.45,3.3822,3.3545,3.3269,3.3784,3.5814,3.6212,3.6916,3.909,3.914,3.8931,3.8931,3.8661,3.8063,3.7075,3.7225,3.7165,3.6537,3.6477,3.6357,3.6028,3.6027,3.6415,3.7203,3.7962,3.869,3.9506,3.9901,3.9707,3.8853,3.8853,3.8408,3.7621,3.8878,3.9405,5.734,5.7645,5.7306,5.5852,5.2468,4.8263,4.3002,3.832,0.0,2.9618,2.8619,2.818,2.7131,2.9973,3.2949,0.0,3.799,4.2252,4.7225,4.9059,5.0834,0.0,5.4453,0.0,5.2634,5.2723,0.0,0.0,0.0,0.0,5.1229,5.1349,5.1379,5.1229,5.1229,5.1229,5.1229,5.1229,5.1289,5.1439,5.1289,5.1289,5.1439,5.1289,5.1229,5.1229,5.1229,0.0,0.0,5.0793,4.9969,4.8709,4.8195,4.7306,4.622,4.5212,4.4611,4.4092,4.3955,4.3518,4.3122,4.3409,4.484,4.6344,4.5844,4.4589,4.3253,4.2448,4.0984,3.9373,3.8201,3.7848,3.7494,3.6615,3.6031,3.568,3.5579,3.4876,3.4173,3.3947,3.3882,3.4296,3.5922,3.648,3.7317,3.9119,3.9409,3.9409,3.9409,3.9409,3.902,3.7943,3.7823,3.7734,3.7434,3.6956,3.6686,3.6686,3.6255,3.6629,3.8211,3.8386,3.9126,4.0561,4.0561,4.008,3.901,3.901,3.8435,3.7473,3.9125,3.987,5.6867,5.69,5.6562,5.5074,5.1296,4.6636,4.1485,0.0,3.2529,2.871,2.7402,2.7063,2.7604,2.8619,3.0717,3.4844,0.0,4.0493,4.7022,4.9734,5.1425,5.233,0.0,0.0,5.1635,5.2305,0.0,0.0,0.0,0.0,5.1289,5.1798,5.1828,5.1229,5.1229,5.1229,5.1229,5.1229,5.1528,5.2097,5.1498,5.1528,5.2097,5.1498,5.1229,5.1229,5.1229,0.0,0.0,4.9357,4.8539,4.7299,4.7244,4.7114,4.6751,4.4911,4.3936,4.3353,4.2849,4.2166,4.1985,4.3122,4.3693,4.3882,4.3826,4.3194,4.2416,4.1233,4.0027,3.8714,3.7566,3.6925,3.6546,3.6452,3.6332,3.6157,3.5655,3.5454,3.5102,3.4098,3.5166,3.6204,3.6246,3.7473,3.8735,3.9354,3.9409,3.9409,3.9409,3.9409,3.9379,3.926,3.923,3.8721,3.7524,3.7345,3.7315,3.7315,3.7353,3.8122,3.9646,4.0365,4.1143,4.2083,4.2083,4.1344,3.9774,3.9774,3.8967,3.7473,3.9125,3.987,5.5108,5.5818,5.5784,5.4296,4.9893,4.4781,4.0588,3.535,3.0655,2.7926,2.6991,2.6793,2.7097,2.7774,2.905,3.1391,3.2942,3.5802,4.1251,4.4192,4.7077,5.0326,5.2735,0.0,0.0,0.0,5.3285,0.0,0.0,0.0,5.2456,5.2665,5.2486,5.1828,5.1798,5.1618,5.1229,5.1618,5.1947,5.2187,5.1947,5.1947,5.2187,5.1528,5.0793,4.9969,4.9969,0.0,0.0,4.7909,4.7094,4.5872,4.5872,4.5342,4.4509,4.3759,4.3105,4.2541,4.2003,4.1439,4.1004,4.1149,4.1219,4.1518,4.3026,4.2522,4.1394,4.0914,3.9425,3.7807,3.7379,3.6784,3.6358,3.6358,3.6358,3.6307,3.6081,3.578,3.5403,3.4977,3.5709,3.6529,3.6687,3.7862,3.8975,3.9354,3.9409,3.9409,3.9409,3.9409,3.9409,3.9409,3.9409,3.92,3.8661,3.8242,3.8003,3.8003,3.8188,3.8717,3.987,4.0678,4.1455,4.2286,4.1787,4.1198,4.048,3.9976,3.9349,3.8601,4.0381,4.1149,5.3044,5.4126,5.4465,5.3416,4.8662,4.3313,3.9714,3.4497,2.9746,2.7453,2.6856,2.6691,2.6691,2.7131,2.7866,2.9006,3.0342,3.3004,3.8048,4.0779,4.3893,4.8344,0.0,5.1784,0.0,5.2855,5.3556,5.3241,0.0,0.0,5.3803,5.3773,5.3384,5.2516,5.2486,5.2276,5.1798,5.2247,5.2606,5.2785,5.2159,5.1875,5.1816,5.0749,4.9629,4.8539,0.0,0.0,0.0,4.6474,4.5661,4.4427,4.4427,4.3797,4.2986,4.2986,4.2635,4.2108,4.1706,4.1103,4.045,4.0074,3.9823,4.0083,4.1789,4.1497,4.0421,4.0421,3.903,3.7337,3.7036,3.6659,3.6358,3.6358,3.6358,3.6358,3.6358,3.6056,3.5823,3.6014,3.6813,3.7605,3.7863,3.8961,3.9806,3.9682,3.9709,3.9649,3.9439,3.9409,3.9409,3.9409,3.9409,3.9409,3.9409,3.8781,3.8482,3.8691,3.8892,3.9469,4.051,4.139,4.2209,4.2963,4.2119,4.1499,4.1214,4.0376,3.9711,3.9409,4.1162,4.2269,5.0845,5.1792,5.2334,5.2334,4.7847,4.2493,3.874,3.4372,3.0267,2.733,2.6691,2.6691,2.6691,2.6691,2.7261,2.894,3.0366,3.3373,3.9421,4.1428,4.3459,0.0,0.0,4.9268,4.841,5.1259,5.3174,5.3174,0.0,0.0,5.5179,5.5179,5.4551,5.3204,5.3174,5.3174,5.3144,5.3174,5.3503,5.4162,5.202,5.1062,5.1004,4.891,4.7674,0.0,0.0,0.0,0.0,4.5048,4.4209,4.2986,4.2986,4.2986,4.2986,4.2986,4.2635,4.2158,4.2158,4.143,4.0526,4.0501,4.0149,3.9697,3.9697,3.9697,3.9672,3.9672,3.8868,3.7739,3.6659,3.6358,3.6358,3.6358,3.6358,3.6358,3.6358,3.6358,3.6531,3.719,3.8688,3.9842,3.9757,4.1214,4.1893,4.0576,4.0397,4.0157,3.9499,3.9409,3.9409,3.9409,3.9409,3.9409,3.9409,3.8781,3.8691,3.9379,3.9596,4.0344,4.1949,4.2831,4.368,4.4553,4.3739,4.2831,4.1981,4.1131,4.0239,3.9409,4.1162,4.2892,4.4248,4.5669,4.665,4.5094,4.1765,3.8077,3.4971,3.1891,2.9009,2.6703,2.6487,2.6691,2.6691,2.6691,2.735,2.95,3.0551,3.2449,3.6451,3.9783,4.2635,4.5048,4.845,5.0908,0.0,0.0,5.3563,5.4491,0.0,0.0,5.5179,5.42,5.3789,5.3922,5.3892,5.3228,5.1728,5.2136,5.1914,5.1116,5.0073,4.9553,4.9497,4.8048,0.0,0.0,0.0,0.0,0.0,4.3602,4.3406,4.2986,4.2986,4.2986,4.2986,4.2986,4.2861,4.266,4.2283,4.1932,4.1505,4.0752,4.04,4.0199,3.9798,3.9697,3.9546,3.8768,3.8291,3.7739,3.6659,3.6358,3.6358,3.6358,3.6358,3.6358,3.6358,3.6964,3.7625,3.778,3.9546,4.0912,4.0412,4.146,4.1923,4.0606,4.0397,4.0157,3.9499,3.9409,3.9409,3.9409,3.9409,3.9409,3.9409,3.923,3.92,3.9409,4.0572,4.1501,4.1981,4.341,4.4327,4.4587,4.3169,4.2269,4.1981,4.0516,3.999,4.0309,4.1494,4.2332,3.9512,4.1407,4.2557,4.1136,3.8539,3.5671,3.3094,3.0434,2.7992,2.6033,2.5811,2.6017,2.6051,2.6114,2.6775,2.8666,2.9557,3.1322,3.5078,0.0,0.0,4.4752,0.0,0.0,0.0,5.2965,5.3922,5.476,0.0,0.0,5.4406,5.2963,5.2337,5.2804,5.2907,5.2289,5.0918,5.1059,5.0691,4.9801,4.8654,4.8056,4.7784,4.6411,0.0,0.0,0.0,0.0,0.0,4.2986,4.2986,4.2986,4.2986,4.2986,4.2986,4.2986,4.2986,4.2936,4.2585,4.2333,4.2007,4.1128,4.0551,4.0149,3.9798,3.9697,3.9446,3.8316,3.8015,3.7739,3.6659,3.6358,3.6358,3.6358,3.6358,3.6358,3.6358,3.7335,3.8198,3.8649,4.029,4.1637,4.1587,4.2199,4.2372,4.1294,4.1145,4.0905,4.0247,3.9948,3.9798,3.9798,3.9559,3.9409,3.9409,3.9409,3.9409,3.9409,4.069,4.1528,4.1528,4.3169,4.3948,4.3621,4.2583,4.1981,4.1981,4.0585,4.017,4.069,4.0894,4.1362,0.0,3.8227,3.9411,3.9242,3.711,3.4506,3.2307,2.9668,0.0,2.5311,2.4909,2.4941,2.5176,2.5277,2.5862,2.7444,2.8355,3.0494,0.0,3.7709,0.0,0.0,4.8445,0.0,5.0206,5.2532,5.4022,5.3952,0.0,0.0,5.2857,5.1372,5.0602,5.0602,5.0491,5.0491,5.0602,5.0051,4.9748,4.9583,4.7611,4.6389,4.5809,4.4393,0.0,0.0,0.0,0.0,0.0,4.2986,4.2986,4.2986,4.2986,4.2986,4.2986,4.2986,4.2986,4.2986,4.2986,4.2635,4.2108,4.153,4.0601,3.9697,3.9697,3.9697,3.9471,3.8366,3.804,3.7764,3.6709,3.6383,3.6358,3.6358,3.6358,3.6452,3.6546,3.7402,3.8559,3.9798,4.0916,4.2029,4.317,4.3329,4.312,4.2462,4.2372,4.2132,4.1474,4.0816,4.0427,4.0457,3.9828,3.9439,3.9499,3.9439,3.9409,3.9409,4.0239,4.069,4.069,4.2332,4.2863,4.2013,4.1917,4.1853,4.1788,4.1064,4.069,4.0554,3.9879,4.0309,2.8213,0.0,3.2848,3.1123,3.0176,2.9228,0.0,2.6623,2.5847,2.4837,0.0,2.5782,2.6926,2.6796,2.7858,3.202,3.2962,3.4265,3.7436,4.1667,0.0,5.0769,5.1878,5.1892,5.093,5.1817,5.2214,5.1553,0.0,5.1263,5.1263,4.9847,4.8965,4.8965,4.7977,4.786,4.8965,4.8946,4.8109,4.6566,4.554,4.4865,4.4306,4.3563,0.0,0.0,0.0,0.0,4.2986,4.2986,4.2986,4.2986,4.2986,4.2986,4.2986,4.2986,4.2986,4.2986,4.2986,4.2886,4.261,4.1656,4.0601,3.9697,3.9697,3.9697,3.9546,3.8868,3.8341,3.7839,3.7161,3.6684,3.6358,3.6358,3.6358,3.6615,3.7494,3.8649,3.9798,4.1,4.2111,4.2981,4.325,4.3329,4.312,4.2462,4.2372,4.2132,4.1474,4.0816,4.0606,4.1085,4.0098,3.9619,4.0127,3.9709,3.9409,3.9409,4.0239,4.069,4.069,4.1723,4.2205,4.1981,4.133,4.069,3.999,4.0516,4.0378,3.9737,4.017,4.0239,2.5101,2.7841,3.0311,2.8755,2.8349,2.8044,2.6894,2.5575,0.0,0.0,0.0,2.5013,2.6007,2.7,2.8767,3.2369,3.3654,0.0,0.0,0.0,4.8688,5.2215,5.239,5.2046,0.0,5.1413,5.1253,5.0796,0.0,4.9328,4.9328,4.7643,4.6863,4.7147,4.6375,4.6256,4.7147,4.6888,4.6141,4.507,4.4267,4.384,4.379,4.3237,4.2986,0.0,0.0,0.0,4.2986,4.2986,4.2986,4.2986,4.2986,4.2986,4.2986,4.2986,4.2986,4.2986,4.2986,4.2811,4.2459,4.1605,4.0752,4.0023,3.9772,3.9697,3.9572,3.9019,3.8467,3.7889,3.7337,3.6784,3.6358,3.6358,3.6358,3.6709,3.7861,3.9094,4.0232,4.142,4.2548,4.3329,4.3329,4.3329,4.321,4.2851,4.2791,4.2671,4.2312,4.1713,4.1444,4.1803,4.0935,4.0337,4.0397,4.0068,3.9738,3.9439,3.9849,4.01,4.01,4.0961,4.1396,4.1396,4.0961,4.0239,3.9409,4.0239,4.0239,3.9409,3.9849,3.9849,2.4591,2.7334,2.9766,2.8513,2.8446,2.841,2.7432,0.0,0.0,0.0,0.0,0.0,0.0,2.7299,0.0,0.0,0.0,0.0,4.3593,4.6987,4.9621,5.1862,5.1695,0.0,5.1327,5.071,5.0241,4.9908,0.0,4.7293,4.7214,4.554,4.4844,4.5347,4.5347,4.5321,4.5221,4.492,4.4719,4.4618,4.3589,4.3313,4.3664,4.3187,4.2986,0.0,0.0,0.0,4.2986,4.2986,4.2986,4.2986,4.2986,4.2986,4.2986,4.2986,4.2986,4.2986,4.2986,4.261,4.2082,4.1605,4.1028,4.0425,3.9948,3.9747,3.9597,3.912,3.8592,3.804,3.7563,3.696,3.6483,3.6483,3.6597,3.6964,3.8107,3.936,4.049,4.167,4.2629,4.3329,4.3329,4.3329,4.3329,4.3329,4.3329,4.3329,4.3329,4.2761,4.2402,4.2491,4.1833,4.1145,4.0606,4.0457,4.0127,3.9469,3.9409,3.9409,3.9409,4.013,4.0485,4.0485,4.0485,4.01,3.9409,4.01,4.01,3.9409,3.9409,3.9409,2.4992,2.774,2.9185,2.5444,2.5936,2.6866,2.4777,0.0,0.0,0.0,0.0,0.0,0.0,3.0486,3.2303,0.0,0.0,4.321,0.0,0.0,4.9854,5.1523,0.0,5.1519,4.8423,4.8619,4.809,4.6422,0.0,4.5598,4.5117,4.4785,4.4669,4.4744,4.4744,4.4543,4.4066,4.492,4.5121,4.4618,4.3991,4.3463,4.3112,4.3011,4.2986,4.2986,0.0,4.2986,4.2986,4.2986,4.2986,4.2986,4.2986,4.2986,4.2986,4.2986,4.2986,4.2986,4.2986,4.261,4.2133,4.2057,4.1329,4.0501,4.0425,4.0074,3.9672,3.9597,3.917,3.8718,3.8642,3.7839,3.7061,3.7061,3.751,3.8198,3.936,4.0575,4.1699,4.282,4.317,4.3329,4.3329,4.3329,4.3329,4.3329,4.3329,4.3329,4.3329,4.2761,4.2581,4.312,4.2102,4.1354,4.1235,4.0726,4.0127,3.9469,3.9409,3.9409,3.9409,3.9553,3.9625,3.9625,3.9625,3.9553,3.9409,3.9553,3.9553,3.9409,3.9409,3.9409,2.3575,2.5981,2.7837,2.5969,2.803,3.0009,2.8156,0.0,0.0,0.0,0.0,0.0,0.0,0.0,3.5213,4.0547,0.0,4.589,4.8769,0.0,0.0,0.0,0.0,4.9118,4.7748,4.6835,4.6064,4.5045,0.0,0.0,4.4192,4.389,4.3865,4.4166,4.4192,4.4192,4.4242,4.4468,4.4443,4.4166,4.3614,4.3388,4.3413,4.3112,4.2986,4.2986,0.0,4.2986,4.2986,4.2986,4.2986,4.2986,4.2986,4.2986,4.2986,4.2986,4.2986,4.2986,4.2986,4.2811,4.2559,4.2258,4.1806,4.1386,4.1465,4.0821,4.0178,4.0644,3.9854,3.8868,3.8868,3.8241,3.7563,3.7262,3.7438,3.7883,3.8729,3.9885,4.1,4.2111,4.29,4.3329,4.3329,4.3329,4.3329,4.3329,4.3329,4.3329,4.3329,4.306,4.3,4.3299,4.2791,4.2162,4.1444,4.1115,4.0487,3.9499,3.9409,3.9409,3.9409,3.9409,3.9409,3.9409,3.9409,3.9409,3.9409,3.9409,3.9409,3.9409,3.9409,3.9409,2.3236,2.5038,2.6956,2.7651,0.0,3.2158,3.2064,0.0,0.0,0.0,0.0,0.0,0.0,3.4898,0.0,4.2947,4.5649,0.0,0.0,0.0,0.0,0.0,0.0,4.6863,4.697,4.554,4.4568,4.4443,0.0,0.0,4.3614,4.3212,4.3162,4.3589,4.3614,4.3815,4.4242,4.3815,4.3664,4.379,4.3237,4.3212,4.3589,4.3162,4.2986,4.2986,4.2986,4.2986,4.2986,4.2986,4.2986,4.2986,4.2986,4.2986,4.2986,4.2986,4.2986,4.2986,4.2986,4.2986,4.2911,4.2484,4.2258,4.2283,4.2475,4.1595,4.0689,4.1376,4.0434,3.9069,3.9069,3.8642,3.809,3.7688,3.7754,3.791,3.8358,3.9303,4.0368,4.1199,4.1951,4.2467,4.2467,4.2467,4.2467,4.2467,4.2739,4.29,4.29,4.317,4.3329,4.3329,4.3329,4.2791,4.1504,4.1235,4.0726,3.9709,3.9499,3.9409,3.9409,3.9409,3.9409,3.9409,3.9409,3.9409,3.9409,3.9589,3.9559,3.9439,3.9738,3.9709,2.5909,2.6718,2.7514,2.9502,2.9247,0.0,3.371,3.1838,0.0,0.0,0.0,0.0,0.0,3.9818,4.2705,4.4018,4.6692,4.8475,0.0,0.0,0.0,0.0,0.0,0.0,4.5016,4.4644,4.4418,0.0,0.0,0.0,4.3062,4.3011,4.2986,4.3037,4.3037,4.3062,4.3087,4.3062,4.3288,4.379,4.3237,4.3011,4.3037,4.2986,4.2986,4.2986,4.2986,4.2986,4.2986,4.2986,4.2986,4.2986,4.2986,4.2986,4.2986,4.2986,4.2986,4.2986,4.2986,4.2986,4.2961,4.2936,4.2585,4.2359,4.2945,4.1904,4.0689,4.1376,4.0617,3.9647,3.9647,3.922,3.8793,3.8768,3.918,3.9607,3.9675,4.0221,4.0686,4.0775,4.0447,4.0145,4.0145,4.0145,4.0145,4.0145,4.1085,4.167,4.167,4.2629,4.3329,4.3329,4.3329,4.2791,4.1504,4.0816,4.0427,4.0337,3.9768,3.9409,3.9409,3.9409,3.9409,3.9409,3.9409,3.9409,3.9409,4.0038,4.0008,3.9439,4.0666,4.0576,2.4455,2.6421,2.8598,2.9828,3.1106,0.0,0.0,0.0,0.0,0.0,0.0,0.0,0.0,0.0,4.4164,4.5387,4.6783,4.7988,4.8682,4.7829,0.0,0.0,0.0,0.0,4.4116,4.379,4.3514,0.0,0.0,0.0,4.2986,4.2986,4.2986,4.2986,4.2986,4.2986,4.2986,4.2986,4.3087,4.3288,4.3087,4.2986,4.2986,4.2986,4.2986,4.2986,4.2986,4.2986,4.2986,4.2986,4.2986,4.2986,4.2986,4.2986,4.2986,4.2986,4.2986,4.2986,4.2986,4.2986,4.2986,4.2986,4.2836,4.2865,4.3518,4.2471,4.1115,4.1925,4.0926,3.9697,3.9697,3.9546,3.9295,3.8944,3.9094,3.9111,3.8753,3.9406,4.016,4.016,4.0522,4.09,4.09,4.0597,4.0438,4.0438,4.0455,4.0575,4.0575,4.0916,4.1449,4.2193,4.2545,4.2521,4.2043,4.1384,4.0995,4.0995,4.0786,4.0457,4.0038,4.0038,3.9828,3.9439,3.9409,3.9619,4.0038,4.0277,4.0487,4.0666,4.1145,4.1115,2.4176,2.6073,2.8537,3.0038,0.0,0.0,3.7694,3.9093,0.0,0.0,0.0,0.0,0.0,0.0,0.0,0.0,4.6828,4.7634,4.7869,4.654,4.5463,4.5051,0.0,0.0,4.3539,4.3212,0.0,0.0,0.0,0.0,0.0,4.2986,4.2986,4.2986,4.2986,4.2986,4.2986,4.2986,4.2986,4.2986,4.2986,4.2986,4.2986,4.2986,4.2986,4.2986,4.2986,4.2986,4.2986,4.2986,4.2986,4.2986,4.2986,4.2986,4.2986,4.2986,4.2986,4.2986,4.2986,4.2986,4.2986,4.2986,4.2986,4.3194,4.3857,4.2909,4.1752,4.2291,4.1209,3.9923,3.9747,3.9697,3.9597,3.922,3.912,3.9019,3.8617,3.906,3.9518,3.9518,3.9981,4.0388,4.0388,4.0133,3.9811,3.9623,3.9636,3.9489,3.9387,3.9623,4.0318,4.1504,4.2069,4.2372,4.2372,4.1953,4.1683,4.1683,4.1555,4.1104,4.017,4.0547,4.0338,3.949,3.9891,4.0277,4.0696,4.0905,4.1145,4.1384,4.1803,4.1773,2.5905,2.5996,2.7133,0.0,0.0,0.0,4.0547,4.0956,4.1648,4.67,0.0,0.0,0.0,0.0,0.0,0.0,0.0,0.0,4.5263,4.4941,4.4535,4.3184,4.2986,4.2986,4.2986,0.0,0.0,0.0,0.0,0.0,0.0,4.2986,4.2986,4.2986,4.2986,4.2986,4.2986,4.2986,4.2986,4.2986,4.2986,4.2986,4.2986,4.2986,4.2986,4.2986,4.2986,4.2986,4.2986,4.2986,4.2986,4.2986,4.2986,4.2986,4.2986,4.2986,4.2986,4.2986,4.2986,4.2986,4.2986,4.2986,4.2986,4.3194,4.3857,4.3166,4.2233,4.2319,4.1492,4.04,3.9848,3.9697,3.9697,3.9697,3.9697,3.9697,3.9697,3.927,3.8868,3.8868,3.8417,3.8015,3.8015,3.8015,3.7839,3.7287,3.8187,3.8675,3.8187,3.921,4.0346,4.1504,4.2069,4.2449,4.2372,4.2372,4.2372,4.2372,4.1843,4.1011,3.9693,4.0713,4.082,3.9635,4.079,4.1384,4.1384,4.2043,4.2043,4.1444,4.2731,4.2641,2.4879,2.7211,0.0,3.1526,0.0,0.0,0.0,4.3426,0.0,0.0,0.0,0.0,0.0,0.0,0.0,0.0,0.0,0.0,4.5156,4.4209,4.3492,4.3073,4.2986,4.2986,4.2986,0.0,0.0,0.0,0.0,0.0,0.0,4.2986,4.2986,4.2986,4.2986,4.2986,4.2986,4.2986,4.2986,4.2986,4.2986,4.2986,4.2986,4.2986,4.2986,4.2986,4.2986,4.2986,4.2986,4.2986,4.2986,4.2986,4.2986,4.2986,4.2986,4.2986,4.2986,4.2986,4.2986,4.2986,4.2986,4.2986,4.2986,4.3048,4.3288,4.2764,4.2192,4.2271,4.1398,4.0475,4.0325,3.9973,3.9697,3.9697,3.9697,3.9697,3.9697,3.9572,3.9446,3.9446,3.932,3.9195,3.9195,3.8868,3.8417,3.7839,3.8032,3.8512,3.9254,4.0431,4.1435,4.2222,4.313,4.3539,4.309,4.303,4.2713,4.193,4.1666,4.1213,4.0325,3.9861,3.9662,3.9635,3.9952,4.0764,4.2073,4.2252,4.2491,4.2761,4.315,4.312,2.6867,2.956,0.0,3.462,3.8381,4.2358,0.0,0.0,0.0,0.0,0.0,0.0,0.0,0.0,0.0,0.0,0.0,0.0,0.0,4.3492,4.2986,4.2986,4.2986,4.2986,4.2986,0.0,0.0,0.0,0.0,0.0,0.0,4.2986,4.2986,4.2986,4.2986,4.2986,4.2986,4.2986,4.2861,4.266,4.2861,4.2861,4.266,4.2886,4.2986,4.2986,4.2986,4.2986,4.2986,4.2986,4.2986,4.2986,4.2986,4.2986,4.2986,4.2986,4.2986,4.2986,4.2986,4.2986,4.2986,4.2986,4.2986,4.2986,4.2986,4.2735,4.2384,4.1957,4.1354,4.0752,4.03,3.9948,3.9697,3.9697,3.9697,3.9697,3.9697,3.9697,3.9697,3.9697,3.9697,3.9697,3.9697,3.9421,3.8994,3.8442,3.8608,3.9013,3.9823,4.1407,4.2556,4.2969,4.3536,4.3808,4.3343,4.2636,4.1961,4.1256,4.0602,4.0037,3.9589,3.9816,3.99,3.9728,4.0625,4.1656,4.2761,4.2761,4.294,4.3329,4.3329,4.3329,3.0256,0.0,0.0,3.8452,4.0726,0.0,0.0,0.0,0.0,0.0,0.0,0.0,0.0,0.0,0.0,0.0,0.0,0.0,0.0,0.0,4.2986,4.2986,4.2986,4.2986,4.2986,0.0,0.0,0.0,0.0,0.0,0.0,4.2986,4.2986,4.2986,4.2986,4.2986,4.2986,4.2986,4.2735,4.2233,4.2735,4.271,4.2258,4.276,4.2986,4.2986,4.2986,4.2986,4.2986,4.2986,4.2986,4.2986,4.2986,4.2986,4.2986,4.2986,4.2986,4.2986,4.2986,4.2986,4.2986,4.2986,4.2986,4.2986,4.2986,4.2986,4.276,4.1781,4.1455,4.1178,4.0174,3.9848,3.9772,3.9772,3.9722,3.9697,3.9697,3.9697,3.9697,3.9697,3.9697,3.9697,3.9697,3.9697,3.9624,3.9222,3.9745,4.0213,4.0266,4.221,4.3573,4.3516,4.34,4.3255,4.3197,4.1691,4.0735,4.0646,3.905,3.8096,3.8004,4.0059,4.0746,3.9913,4.1947,4.3061,4.3329,4.3329,4.3329,4.3329,4.3329,4.3329,2.8243,3.1685,0.0,0.0,4.315,4.7794,5.1623,0.0,0.0,0.0,0.0,0.0,0.0,0.0,0.0,0.0,0.0,0.0,0.0,0.0,0.0,4.2986,4.2986,4.2986,4.2986,0.0,0.0,0.0,0.0,0.0,4.2986,4.2986,4.2986,4.2986,4.2986,4.2986,4.2986,4.2986,4.2911,0.0,4.2911,4.2911,4.2811,4.2911,4.2986,4.2986,4.2986,4.2986,4.2986,4.2986,4.2986,4.2986,4.2986,4.2986,4.2986,4.2986,4.2986,4.2986,4.2986,4.2986,4.2986,4.2986,4.2986,4.2986,4.2986,4.2986,4.2936,4.2685,4.2308,4.1932,4.1681,4.0978,4.035,4.035,3.9998,3.9697,3.9697,3.9697,3.9697,3.9697,3.9697,3.9697,3.9697,3.9697,4.0032,4.0863,4.1678,4.2285,4.2657,4.3211,4.3296,4.2823,4.2675,4.2481,4.1952,4.1542,4.0913,4.0041,3.9203,3.8356,3.7464,3.7474,3.8289,3.9913,4.0404,4.1532,4.3329,4.3329,4.3329,4.3329,4.3329,4.3329,2.9785,0.0,0.0,4.1983,0.0,5.0217,5.2722,5.2653,5.1881,0.0,0.0,0.0,0.0,0.0,0.0,0.0,0.0,0.0,0.0,0.0,0.0,0.0,4.2986,4.2986,0.0,0.0,0.0,0.0,0.0,4.2986,4.2986,4.2986,4.2986,4.2986,4.2986,4.2986,4.2986,4.2986,4.2836,4.2585,4.2861,4.2836,4.2585,4.2585,4.2585,4.2585,4.2585,4.2585,4.261,4.2861,4.2986,4.2986,4.2986,4.2986,4.2986,4.2986,4.2986,4.2986,4.2986,4.2986,4.2986,4.2986,4.2986,4.2986,4.2986,4.2986,4.2911,4.266,4.2384,4.2082,4.1831,4.1153,4.0526,4.0526,4.0099,3.9697,3.9697,3.9697,3.9697,3.9697,3.9697,3.9697,3.9697,3.9697,3.9878,4.0541,4.1523,4.2289,4.2517,4.3122,4.3393,4.3062,4.2467,4.1977,4.1531,4.0787,3.9878,3.8968,3.8402,3.768,3.6905,3.6508,3.752,3.9798,4.0404,4.1616,4.3329,4.3329,4.3329,4.3329,4.3329,4.3329,3.1083,0.0,3.8592,4.5642,4.9072,0.0,5.2698,5.2838,5.2664,5.2812,0.0,0.0,0.0,0.0,0.0,0.0,0.0,0.0,0.0,0.0,0.0,0.0,0.0,4.2986,0.0,0.0,0.0,0.0,0.0,4.2986,4.2986,4.2986,4.2986,4.2986,4.2886,4.2836,4.2836,4.2735,4.2459,4.2007,4.2484,4.2459,4.2007,4.1907,4.1932,4.2007,4.2007,4.2057,4.2183,4.266,4.2886,4.2986,4.2986,4.2986,4.2986,4.2986,4.2986,4.2986,4.2986,4.2986,4.2986,4.2986,4.2986,4.2986,4.2986,4.2986,4.2886,4.2434,4.2308,4.2183,4.1731,4.1204,4.0777,4.0676,4.0249,3.9798,3.9722,3.9697,3.9697,3.9697,3.9697,3.9697,3.9697,3.9878,4.0083,4.0083,4.1119,4.1887,4.1591,4.2544,4.3122,4.2834,4.1887,4.1319,4.1319,3.9955,3.8768,3.8191,3.7638,3.7086,3.6533,3.6408,3.752,3.9798,4.0831,4.1947,4.3329,4.3329,4.3329,4.3329,4.3329,4.3329,2.6949,0.0,4.0222,0.0,4.8736,5.0178,0.0,0.0,5.1727,0.0,5.1972,0.0,0.0,0.0,0.0,0.0,0.0,0.0,0.0,0.0,0.0,0.0,0.0,4.2986,0.0,0.0,0.0,0.0,4.2986,4.2986,4.2986,4.2986,4.2986,4.2986,4.2509,4.2258,4.2258,4.1781,4.153,4.1455,4.153,4.153,4.143,4.0953,4.1003,4.1455,4.1455,4.1731,4.2158,4.2233,4.2559,4.2986,4.2986,4.2986,4.2986,4.2986,4.2986,4.2986,4.2986,4.2986,4.2986,4.2986,4.2986,4.2986,4.2986,4.2986,4.2961,4.2886,4.2861,4.2861,4.2785,4.2359,4.1806,4.1354,4.0802,4.0275,3.9798,3.9697,3.9697,3.9697,3.9697,3.9697,3.9697,4.0642,4.1319,4.1319,4.2447,4.2834,4.169,4.1789,4.1419,4.0364,4.0083,3.9981,3.9981,3.9725,3.9346,3.8793,3.8216,3.7638,3.7086,3.6609,3.752,3.9798,4.0059,4.1169,4.3329,4.3329,4.3329,4.3329,4.3329,4.3329,3.0162,3.602,4.1976,0.0,4.9345,5.0528,5.2968,0.0,5.1846,5.275,5.1359,5.0095,5.0095,0.0,0.0,0.0,0.0,0.0,0.0,0.0,0.0,0.0,4.2986,4.2986,4.2986,0.0,0.0,0.0,4.2986,4.2986,4.2986,4.2986,4.2836,4.2534,4.2283,4.2007,4.1706,4.1455,4.1329,4.1329,4.1329,4.1329,4.1329,4.0777,4.0651,4.0877,4.0877,4.1178,4.1731,4.2032,4.2484,4.2986,4.2986,4.2986,4.2986,4.2986,4.2986,4.2986,4.2986,4.2986,4.2986,4.2986,4.2986,4.2986,4.2986,4.276,4.2509,4.2509,4.2308,4.2133,4.2434,4.2108,4.1681,4.1656,4.1304,4.0752,3.9873,3.9697,3.9697,3.9697,3.9697,3.9697,3.9697,4.0185,4.0567,4.0567,4.1019,4.1119,4.0642,4.0567,4.0364,3.98,3.9697,3.9697,3.9697,3.9697,3.9446,3.8894,3.8617,3.8241,3.7663,3.8133,3.9177,4.0907,4.0244,4.1029,4.3329,4.3329,4.3329,4.3329,4.3329,4.3329,3.1855,3.654,4.0593,4.5827,4.8115,4.9787,0.0,0.0,5.1348,0.0,5.0232,4.8574,4.7858,4.7105,4.6161,4.5155,4.3907,4.2986,4.2986,4.2986,4.2986,4.2986,4.2861,4.276,4.276,0.0,0.0,0.0,4.2559,4.2559,4.2559,4.2559,4.2384,4.1957,4.1806,4.153,4.1128,4.1003,4.0927,4.0927,4.0927,4.1003,4.1103,4.0551,4.045,4.0727,4.0576,4.0827,4.1379,4.1932,4.2484,4.2986,4.2986,4.2986,4.2986,4.2986,4.2886,4.2785,4.2936,4.2886,4.2785,4.2936,4.2986,4.2986,4.2986,4.2685,4.2359,4.2359,4.2082,4.1856,4.2258,4.2057,4.1781,4.1932,4.1756,4.1254,4.0149,3.9798,3.9697,3.9697,3.9697,3.9697,3.9697,3.9697,3.9697,3.9697,3.9697,3.9697,3.9697,3.9697,3.9697,3.9697,3.9697,3.9697,3.9697,3.9697,3.9446,3.8894,3.8868,3.8617,3.804,3.918,4.0482,4.1708,4.1179,4.1766,4.3569,4.3569,4.3509,4.3329,4.3329,4.3329,2.781,3.0745,3.3806,3.9622,4.3403,4.6485,0.0,0.0,4.9434,4.9283,4.8286,4.6679,4.4205,4.4493,4.5048,4.5048,4.3907,4.2986,4.2986,4.2986,4.2986,4.2986,4.2509,4.2208,4.2208,4.1731,0.0,0.0,4.143,4.143,4.143,4.143,4.1404,4.1379,4.0877,4.0576,4.0551,4.0049,3.9772,3.9772,3.9772,4.0049,4.0551,3.9998,4.03,4.1254,4.0752,4.0827,4.1379,4.1932,4.2484,4.2986,4.2986,4.2986,4.2986,4.2986,4.266,4.2258,4.2785,4.2635,4.2283,4.2811,4.2986,4.2986,4.2986,4.2961,4.2936,4.2936,4.2911,4.2911,4.2936,4.2911,4.276,4.2258,4.2133,4.1806,4.0701,4.0074,3.9697,3.9697,3.9697,3.9697,3.9697,3.9697,3.9697,3.9697,3.9697,3.9697,3.9697,3.9697,3.9697,3.9697,3.9697,3.9697,3.9697,3.9697,3.9446,3.8894,3.8868,3.8617,3.804,3.918,4.0482,4.1708,4.2817,4.3656,4.4257,4.4257,4.3958,4.3329,4.3329,4.3329,2.7785,3.0516,3.3283,3.785,4.0991,4.3514,4.573,4.6546,4.6927,4.7248,4.6034,4.4501,4.3615,4.3966,4.407,4.2798,4.2536,4.2333,4.1982,4.1932,4.1932,4.1932,4.1756,4.163,4.163,4.0537,4.0305,0.0,0.0,4.0305,4.1222,4.1329,4.1178,4.0827,4.0626,4.035,3.9998,4.0149,4.0224,4.0224,4.0576,4.0852,4.1028,4.0827,4.0978,4.1329,4.1128,4.1354,4.1882,4.2082,4.2484,4.2986,4.2986,4.2986,4.2986,4.2986,4.2861,4.271,4.2911,4.2836,4.271,4.2911,4.2986,4.2986,4.2986,4.2735,4.2459,4.2459,4.2208,4.2007,4.2359,4.2459,4.2484,4.266,4.1957,4.1229,4.1078,4.0325,3.9697,3.9697,3.9697,3.9697,3.9697,3.9697,3.9697,3.9697,3.9697,3.9697,3.9697,3.9697,3.9697,3.9697,3.9697,3.9697,3.9697,3.9697,3.9622,3.9421,4.0158,4.0156,3.9094,4.1055,4.1991,4.1635,4.2868,4.4002,4.4945,4.3808,4.3123,4.2806,4.1621,4.1532,2.6353,2.8648,0.0,0.0,3.7721,3.9534,4.3043,4.3988,4.4211,4.4647,4.3877,4.2918,4.2317,4.2632,4.2548,4.1462,4.1656,4.1756,4.1404,4.1329,4.1329,4.1329,4.1178,4.0839,4.0384,3.9274,3.8742,0.0,0.0,0.0,3.9981,4.0458,4.0626,4.0249,4.0249,4.0074,3.9697,4.0049,4.0325,4.0526,4.0877,4.1254,4.1605,4.1229,4.1254,4.1605,4.1229,4.1379,4.1882,4.1882,4.2208,4.271,4.271,4.2811,4.2986,4.2986,4.2861,4.2735,4.2911,4.2861,4.2735,4.2911,4.2986,4.2986,4.2986,4.271,4.2434,4.2434,4.2183,4.1982,4.2333,4.2434,4.2534,4.2886,4.2082,4.1304,4.1555,4.0601,3.9697,3.9697,3.9697,3.9697,3.9697,3.9697,3.9697,3.9697,3.9697,3.9697,3.9697,3.9697,3.9697,3.9697,3.9697,3.9697,3.9697,3.9697,3.9697,3.9697,4.0465,4.0541,3.9697,4.169,4.2447,4.1591,4.2834,4.3927,4.4676,4.3313,4.242,4.2193,4.0817,4.0513,0.0,0.0,0.0,0.0,0.0,0.0,4.1682,0.0,4.1165,4.1285,4.1828,4.1707,4.0007,4.0099,4.0651,4.1178,4.1304,4.1304,4.1304,4.1279,4.1279,4.1279,4.0827,3.9922,3.8455,3.7762,3.6811,0.0,3.6595,3.7346,3.7453,3.8792,3.9697,3.9697,3.9697,3.9697,3.9697,3.9722,3.9998,4.0526,4.0526,4.1103,4.2108,4.1028,4.1128,4.2057,4.0978,4.0827,4.1304,4.1329,4.1656,4.2158,4.2158,4.2484,4.2986,4.2986,4.2635,4.2258,4.2785,4.2635,4.2258,4.2811,4.2986,4.2986,4.2961,4.2961,4.2986,4.2849,4.2849,4.2849,4.2849,4.2849,4.2849,4.2849,4.2424,4.2133,4.2133,4.0877,3.9747,3.9722,3.9697,3.9697,3.9697,3.9697,3.9697,3.9697,3.9697,3.9697,3.9697,3.9697,3.9697,3.9697,3.9697,3.9697,3.9697,3.9697,3.9697,3.9697,3.9697,3.9697,3.9697,4.0945,4.1591,4.1492,4.2738,4.3409,4.3409,4.2802,4.2103,4.1471,4.0956,4.0349,2.3342,0.0,0.0,0.0,0.0,0.0,0.0,0.0,3.4983,3.7511,3.7103,3.6713,3.8164,3.8944,3.9371,3.9521,4.0224,4.0601,4.0199,4.0149,4.0149,4.0149,4.0023,3.9352,3.7905,3.658,3.5727,0.0,3.4736,3.4825,3.5836,3.7263,3.8582,3.9697,3.9697,3.9697,3.9697,4.0099,4.0375,4.0526,4.0927,4.1279,4.1555,4.1254,4.1279,4.153,4.0827,4.0601,4.0777,4.1178,4.1656,4.2158,4.2158,4.2484,4.2986,4.2986,4.2886,4.276,4.2936,4.2886,4.276,4.2936,4.2986,4.2737,4.1672,4.1305,4.1076,3.9896,3.9522,3.9522,3.9522,3.9522,3.9522,3.9522,3.9959,4.0298,3.9888,4.0375,4.0752,4.0375,3.9973,3.9697,3.9697,3.9697,3.9697,3.9697,3.9697,3.9697,3.9697,3.9697,3.9697,3.9697,3.9697,3.9697,3.9697,3.9697,3.9697,3.9697,4.0541,4.0642,3.9697,4.0945,4.1119,4.0262,4.0541,4.0743,4.0743,4.1108,4.1218,4.0935,3.9894,3.8662,0.0,0.0,0.0,0.0,0.0,0.0,3.0934,3.1488,3.2403,0.0,3.5791,3.5456,3.7031,3.7789,3.8241,3.8467,3.9245,3.9798,3.9697,3.9697,3.9697,3.9697,3.9129,3.8243,3.6703,3.5288,3.4069,3.3529,3.3191,3.3957,3.6162,3.7026,3.8137,3.9697,3.9697,3.9697,3.9697,4.0023,4.03,4.0526,4.0852,4.1128,4.1222,4.0409,4.007,3.9937,3.8838,3.8728,3.9283,3.9603,4.0542,4.1806,4.1806,4.2283,4.2986,4.2986,4.2625,4.2012,4.2012,4.1558,4.0961,4.0961,4.0961,4.0822,3.9873,3.9639,3.9405,3.8461,3.8223,3.8223,3.8223,3.8223,3.8223,3.8223,3.8706,3.9013,3.8688,3.916,3.9782,4.014,4.0099,3.9973,3.9747,3.9697,3.9697,3.9697,3.9697,3.9697,3.9697,3.9697,3.9697,3.9697,3.9697,3.9697,3.9697,3.9697,3.9697,3.9697,4.0364,4.0465,3.9697,4.0364,4.0465,3.9697,3.9697,3.9697,3.9697,4.0132,4.0094,3.9602,3.8833,3.7731,2.6488,2.6429,0.0,0.0,0.0,0.0,3.2077,3.1863,3.161,0.0,3.5683,3.5529,3.5821,3.6301,3.6784,3.7287,3.8065,3.8843,3.9597,3.9697,3.9697,3.9465,3.8243,3.6811,3.5178,3.3845,3.253,3.0995,3.2322,3.4292,3.7133,3.7453,3.8137,3.9697,3.9697,3.9697,3.9697,3.9697,3.9948,4.0425,4.0425,4.0701,4.1121,3.908,3.8214,3.8285,3.6196,3.6185,3.7548,3.7477,3.898,4.1329,4.1329,4.2007,4.2986,4.2849,4.1785,4.0592,4.0361,3.9405,3.8223,3.8223,3.8223,3.8223,3.7985,3.7985,3.7865,3.7746,3.7626,3.7626,3.7626,3.7626,3.7626,3.7626,3.7865,3.7963,3.7918,3.7606,3.7931,3.921,3.973,3.9798,3.9327,3.9411,3.9465,3.9465,3.9594,3.9697,3.9697,3.9697,3.9697,3.9697,3.9697,3.9697,3.9697,3.9697,3.9697,3.9697,3.9697,3.9697,3.9697,3.9697,3.9697,3.9697,3.9697,3.9697,3.9697,3.9647,3.9044,3.8015,3.7939,3.7362,2.9465,2.946,2.9247,2.7413,0.0,0.0,2.6176,2.6637,2.8052,0.0,2.9414,2.9424,3.2149,3.2911,3.3219,3.3319,3.5303,3.7513,3.9421,3.9697,3.9258,3.8031,3.769,3.6487,3.3733,3.3304,3.253,3.0995,3.2322,3.3845,3.5617,3.6811,3.8137,3.9697,3.9697,3.9697,3.9697,3.9697,3.9747,3.9848,3.9848,4.0149,4.0545,3.8524,3.8071,3.8674,3.6333,3.6283,3.7939,3.7619,3.898,4.1329,4.1329,4.2007,4.2849,4.1558,4.0822,4.0361,3.917,3.8461,3.8223,3.8223,3.8223,3.7985,3.666,3.6295,3.6051,3.4736,3.4383,3.4383,3.4383,3.4383,3.4383,3.4383,3.5335,3.6189,3.5728,3.6915,3.8109,3.838,3.7512,3.6763,3.6672,3.7308,3.7902,3.7902,3.8921,3.9697,3.9697,3.9697,3.9697,3.9697,3.9697,3.9697,3.9697,3.9697,3.9697,3.9697,3.9697,3.9697,3.9697,3.9697,3.9697,3.9697,3.9697,3.9697,3.9697,3.9245,3.8668,3.799,3.7563,3.6985,3.1698,3.134,3.1166,2.979,0.0,0.0,0.0,2.7202,2.7623,3.0278,2.9104,2.8412,3.1055,3.1289,3.121,3.1745,3.373,3.5529,3.6634,3.799,3.8311,3.69,3.6273,3.5125,3.2944,3.2292,3.1652,3.1015,3.1536,3.2644,3.4069,3.5617,3.6703,3.7477,3.8243,3.8582,3.8582,3.7926,3.8267,3.9697,3.8921,3.8704,3.8973,3.7167,3.6333,3.6206,3.4054,3.4124,3.5826,3.5468,3.6599,3.8909,4.0666,4.137,4.1306,4.0865,3.9639,3.8082,3.7243,3.6539,3.5827,3.5827,3.5827,3.5704,3.486,3.4612,3.4363,3.367,3.3418,3.3418,3.3418,3.3418,3.3418,3.3418,3.4007,3.4551,3.4225,3.5067,3.5897,3.6462,3.5742,3.5754,3.7519,3.82,3.8582,3.8582,3.8582,3.8582,3.8582,3.7926,3.7501,3.7501,3.7501,3.782,3.8582,3.8582,3.8921,3.9697,3.9697,3.9697,3.9697,3.9697,3.9697,3.9697,3.9697,3.9697,3.9697,3.8843,3.8291,3.799,3.7437,3.6885,0.0,0.0,0.0,0.0,0.0,3.0176,0.0,0.0,0.0,3.1137,0.0,0.0,0.0,0.0,0.0,0.0,0.0,0.0,0.0,3.4977,0.0,3.5298,3.4532,3.346,3.2096,3.0902,3.0293,3.0605,3.0734,3.1398,3.2931,3.4471,3.5288,3.5288,3.6487,3.7026,3.7026,3.5945,3.6619,3.9258,3.7796,3.724,3.7453,3.5727,3.4441,3.3612,3.1736,3.2009,3.3707,3.3266,3.4194,3.6273,3.9248,3.9937,3.9423,3.957,3.8082,3.5806,3.5437,3.4487,3.3418,3.3418,3.3418,3.3418,3.3418,3.3418,3.3418,3.3418,3.3418,3.3418,3.3418,3.3418,3.3418,3.3418,3.3418,3.3418,3.3418,3.365,3.4097,3.5134,3.507,3.5769,3.8451,3.9099,3.9129,3.8921,3.8137,3.7346,3.7133,3.6054,3.5288,3.5288,3.5288,3.5727,3.7026,3.7346,3.8007,3.9233,3.9569,3.9697,3.9697,3.9697,3.9697,3.9697,3.9597,3.9546,3.9521,3.8391,3.7889,3.799,3.7337,3.6784,0.0,0.0,0.0,0.0,3.4257,0.0,0.0,0.0,2.8925,2.7586,0.0,0.0,0.0,0.0,0.0,0.0,0.0,0.0,2.8825,3.0306,3.1635,3.213,3.2437,3.1863,3.0349,2.8461,2.8086,2.9609,2.9921,3.0748,3.2364,3.4274,3.5288,3.5288,3.5508,3.5508,3.5508,3.5398,3.6162,3.769,3.6271,3.6271,3.737,3.4604,3.3422,3.3612,3.1736,3.2009,3.3707,3.3266,3.4,3.5468,3.6725,3.7519,3.7668,3.6708,3.6152,3.556,3.4133,3.3544,3.3418,3.3418,3.3418,3.3418,3.3418,3.3418,3.3418,3.3418,3.3418,3.3418,3.3418,3.3418,3.3418,3.3418,3.3418,3.3418,3.3418,3.4487,3.5676,3.6318,3.6445,3.6451,3.6364,3.7115,3.737,3.5945,3.6811,3.7026,3.5727,3.5398,3.5288,3.5288,3.5288,3.5398,3.5508,3.6703,3.7583,3.769,3.9025,3.9697,3.9697,3.9697,3.9697,3.9697,3.922,3.8969,3.8969,3.7839,3.7538,3.799,3.6935,3.6408,0.0,0.0,0.0,0.0,0.0,0.0,2.9485,0.0,2.8397,0.0,0.0,0.0,0.0,0.0,0.0,0.0,0.0,0.0,0.0,0.0,2.9114,0.0,0.0,0.0,2.7965,2.7159,2.7266,2.8711,2.8481,2.8955,3.0711,3.2538,3.3343,3.2758,3.3529,3.4069,3.4069,3.3212,3.3866,3.6162,3.4736,3.4403,3.4936,3.362,3.2871,3.2391,3.1289,3.1465,3.2371,3.1948,3.237,3.3099,3.3859,3.4804,3.5768,3.5776,3.5211,3.4258,3.365,3.3418,3.3418,3.3418,3.3418,3.3418,3.3418,3.3418,3.3418,3.3418,3.3418,3.3418,3.3418,3.3418,3.3418,3.3418,3.3418,3.3418,3.3418,3.3902,3.4677,3.5465,3.5574,3.5439,3.587,3.6044,3.6054,3.5398,3.5068,3.4714,3.4069,3.3304,3.2778,3.2778,3.2778,3.3098,3.3957,3.5398,3.6595,3.7477,3.8921,3.9697,3.9697,3.9697,3.9697,3.9697,3.9145,3.8868,3.8868,3.7739,3.7312,3.7513,3.6734,3.6358,3.9463,0.0,0.0,0.0,0.0,0.0,0.0,0.0,0.0,0.0,0.0,0.0,0.0,0.0,0.0,0.0,0.0,0.0,0.0,0.0,0.0,0.0,0.0,0.0,0.0,2.5254,2.5703,2.7461,0.0,2.6914,2.9101,3.0802,3.1329,3.0684,3.1917,3.253,3.253,3.1441,3.2227,3.4626,3.3191,3.2758,3.3077,3.2644,3.1792,3.0577,3.0389,3.0329,3.0577,2.9898,3.0211,3.1387,3.1315,3.2354,3.3875,3.4759,3.4383,3.3418,3.3418,3.3418,3.3418,3.3418,3.3418,3.3418,3.3418,3.3418,3.3418,3.3418,3.3418,3.3418,3.3418,3.3418,3.3418,3.3418,3.3418,3.3418,3.3418,3.3776,3.4222,3.471,3.4554,3.4604,3.5015,3.5202,3.5178,3.4736,3.3733,3.2964,3.253,3.1556,3.0898,3.0898,3.0898,3.1325,3.2416,3.3866,3.5508,3.7346,3.8921,3.9697,3.9697,3.9697,3.9697,3.9697,3.9145,3.8793,3.8617,3.7663,3.6918,3.6453,3.6056,3.5858,0.0,0.0,0.0,3.6255,0.0,0.0,0.0,0.0,3.1061,0.0,0.0,0.0,0.0,0.0,0.0,0.0,0.0,0.0,0.0,0.0,0.0,0.0,0.0,0.0,0.0,2.2383,2.2617,0.0,2.4238,0.0,2.8144,2.9251,2.9898,3.0195,3.0644,3.0995,3.0995,3.0879,3.1652,3.3191,3.1652,3.1767,3.3077,3.1652,3.002,2.8564,2.8545,2.8545,2.8426,2.6832,2.8068,3.082,2.9619,3.041,3.2387,3.323,3.3418,3.3418,3.3418,3.3418,3.3418,3.3418,3.3418,3.3418,3.3418,3.3418,3.3418,3.3418,3.3418,3.3418,3.3418,3.3418,3.3418,3.3418,3.3418,3.3418,3.3418,3.4612,3.5411,3.4652,3.4442,3.4265,3.3359,3.4425,3.4847,3.3417,3.3077,3.253,3.1112,3.0898,3.0898,3.0898,3.0898,3.0898,3.0995,3.2322,3.4403,3.7346,3.8921,3.9697,3.9697,3.9697,3.9697,3.9697,3.9145,3.8592,3.804,3.7462,3.6306,3.4507,3.4483,3.4483,0.0,0.0,4.3499,3.8455,0.0,0.0,0.0,0.0,0.0,0.0,0.0,0.0,0.0,0.0,0.0,0.0,0.0,0.0,0.0,0.0,0.0,0.0,0.0,0.0,0.0,0.0,0.0,0.0,2.3477,0.0,0.0,2.8418,2.918,3.0176,3.0351,3.0586,3.0879,3.0898,3.1112,3.1652,3.0001,2.9493,2.9925,2.8408,2.7331,2.6832,2.6832,2.6832,2.6712,2.6227,2.6864,2.7974,2.7607,2.8161,2.9527,3.2123,3.3184,3.3418,3.3418,3.3418,3.3418,3.3418,3.3418,3.3418,3.3418,3.3418,3.3418,3.3418,3.3418,3.3418,3.3418,3.3418,3.3418,3.3418,3.3418,3.3418,3.3418,3.3776,3.4178,3.3753,3.3576,3.3296,3.2995,3.3051,3.2901,3.1868,3.1652,3.1441,3.0995,3.0898,3.0898,3.0898,3.0898,3.0898,3.0898,3.3212,3.5398,3.7346,3.8921,3.9697,3.9697,3.9697,3.9697,3.9697,3.8172,3.7176,3.6642,3.5183,3.3939,3.2955,3.2151,3.2151,4.3838,4.4139,0.0,3.9475,3.7755,0.0,3.1148,0.0,0.0,0.0,0.0,0.0,0.0,0.0,0.0,0.0,0.0,0.0,0.0,0.0,0.0,0.0,0.0,0.0,0.0,0.0,2.0781,2.2988,2.2983,0.0,0.0,0.0,2.8985,2.9707,3.0039,3.043,3.0879,3.0274,3.002,3.002,2.8307,2.7572,2.7572,2.647,2.5741,2.5146,2.5146,2.5146,2.5146,2.4517,2.5151,2.6364,2.5875,2.6404,2.7838,3.0158,3.1626,3.2492,3.3165,3.3418,3.3418,3.3418,3.3418,3.3418,3.3418,3.3418,3.3418,3.3418,3.3418,3.3418,3.3418,3.3418,3.3418,3.3418,3.3418,3.3418,3.3418,3.3418,3.3379,3.3223,3.2988,3.2695,3.2402,3.2246,3.1992,3.1426,3.1211,3.1113,3.1113,3.0976,3.0898,3.0898,3.0898,3.0898,3.0898,3.3098,3.5178,3.6595,3.7583,3.8582,3.9697,3.9233,3.8921,3.8921,3.7694,3.6388,3.5165,3.3912,3.2694,3.152,3.0721,3.0514]},{"header":{"parameterUnit":"m.s-1","parameterCategory":1,"la1":30.6,"la2":29.2853,"lo1":-89.7004,"lo2":-87.6739,"dy":0.0162,"dx":0.0183,"nx":112,"ny":82,"refTime":"2026-05-12T00:00:00:Z","depth":0,"parameterNumber":3,"parameterNumberName":"V-component_of_WINDS"},"data":[0.0,0.0,0.0,0.0,0.0,0.0,0.0,0.0,0.0,0.0,0.0,0.0,0.0,0.0,0.0,0.0,0.0,0.0,0.0,0.0,0.0,0.0,0.0,0.0,0.0,0.0,0.0,0.0,0.0,0.0,0.0,0.0,0.0,0.0,0.0,0.0,0.0,0.0,0.0,0.0,0.0,0.0,0.0,0.0,0.0,0.0,0.0,0.0,0.0,0.0,0.0,0.0,0.0,0.0,0.0,0.0,0.0,0.0,0.0,0.0,0.0,0.0,0.0,0.0,0.0,0.0,0.0,0.0,0.0,0.0,0.0,0.0,0.0,0.0,0.0,0.0,0.0,0.0,0.0,0.0,0.0,0.0,0.0,0.0,0.0,0.0,0.0,0.0,0.0,0.0,0.0,1.1889,1.2287,1.2204,1.1478,1.0581,0.9699,0.8858,0.0,0.0,0.0,0.0,0.0,0.0,0.0,0.0,0.0,0.0,0.0,0.0,0.0,0.0,0.0,0.0,0.0,0.0,0.0,0.0,0.0,0.0,0.0,0.0,0.0,0.0,0.0,0.0,0.0,0.0,0.0,0.0,0.0,0.0,0.0,0.0,0.0,0.0,0.0,0.0,0.0,0.0,0.0,0.0,0.0,0.0,0.0,0.0,0.0,0.0,0.0,0.0,0.0,0.0,0.0,0.0,0.0,0.0,0.0,0.0,0.0,0.0,0.0,0.0,0.0,0.0,0.0,0.0,0.0,0.0,0.0,0.0,0.0,0.0,0.0,0.0,0.0,0.0,0.0,0.0,0.0,0.0,0.0,0.0,0.0,0.0,0.0,0.0,0.0,0.0,0.0,0.0,0.0,0.0,0.0,0.0,0.0,0.0,0.0,0.0,0.0,0.0,0.0,0.0,1.1516,1.3405,1.3099,1.2453,1.1491,1.0394,0.9472,0.8844,0.0,0.0,0.0,0.0,0.0,0.0,0.0,0.0,0.0,0.0,0.0,0.0,0.0,0.0,0.0,0.0,0.0,0.0,0.0,0.0,0.0,0.0,0.0,0.0,0.0,0.0,0.0,0.0,0.0,0.0,0.0,0.0,0.0,0.0,0.0,0.0,0.0,0.0,0.0,0.0,0.0,0.0,0.0,0.0,0.0,0.0,0.0,0.0,0.0,0.0,0.0,0.0,0.0,0.0,0.0,0.0,0.0,0.0,0.0,0.0,0.0,0.0,0.0,0.0,0.0,0.0,0.0,0.0,0.0,0.0,0.0,0.0,0.0,0.0,0.0,0.0,0.0,0.0,0.0,0.0,0.0,0.0,0.0,0.0,0.0,0.0,0.0,0.0,0.0,0.0,0.0,0.0,0.0,0.0,0.0,0.0,0.0,0.0,0.0,0.0,0.0,0.0,0.0,1.1862,1.3459,1.453,1.4082,1.3302,1.2308,1.0664,0.9432,0.8844,0.7816,0.0,0.0,0.0,0.0,0.0,0.0,0.0,0.0,0.0,0.0,0.0,0.0,0.0,0.0,0.0,0.0,0.0,0.0,0.0,0.0,0.0,0.0,0.0,0.0,0.0,0.0,0.0,0.0,0.0,0.0,0.0,0.0,0.0,0.0,0.0,0.0,0.0,0.0,0.0,0.0,0.0,0.0,0.0,0.0,0.0,0.0,0.0,0.0,0.0,0.0,0.0,0.0,0.0,0.0,0.0,0.0,0.0,0.0,0.0,0.0,0.0,0.0,0.0,0.0,0.0,0.0,0.0,0.0,0.0,0.0,0.0,0.0,0.0,0.0,0.0,0.0,0.0,0.0,0.0,0.0,0.0,0.0,0.0,0.0,0.0,0.0,0.0,0.0,0.0,0.0,0.0,0.0,0.0,0.0,0.0,0.0,0.0,0.0,0.0,0.0,0.0,0.0,1.3609,1.4983,1.5151,1.4728,1.4097,1.3111,1.1088,0.9743,0.9292,0.7798,0.0,0.0,0.0,0.0,0.0,0.0,0.0,0.0,0.0,0.0,0.0,0.0,0.0,0.0,0.0,0.0,0.0,0.0,0.0,0.0,0.0,0.0,0.0,0.0,0.0,0.0,0.0,0.0,0.0,0.0,0.0,0.0,0.0,0.0,0.0,0.0,0.0,0.0,0.0,0.0,0.0,0.0,0.0,0.0,0.0,0.0,0.0,0.0,0.0,0.0,0.0,0.0,0.0,0.0,0.0,0.0,0.0,0.0,0.0,0.0,0.0,0.0,0.0,0.0,0.0,0.0,0.0,0.0,0.0,0.0,0.0,0.0,0.0,0.0,0.0,0.0,0.0,0.0,0.0,0.0,0.0,0.0,0.0,0.0,0.0,0.0,0.0,0.0,0.0,0.0,0.0,0.0,0.0,0.0,0.0,0.0,0.0,0.0,0.0,0.0,0.0,0.0,1.3828,1.5193,1.4808,1.4782,1.447,1.3459,1.1557,1.0501,1.0643,0.8107,0.0,0.0,0.0,0.0,0.0,0.0,0.0,0.0,0.0,0.0,0.0,0.0,0.0,0.0,0.0,0.0,0.0,0.0,0.0,0.0,0.0,0.0,0.0,0.0,0.0,0.0,0.0,0.0,0.0,0.0,0.0,0.0,0.0,0.0,0.0,0.0,0.0,0.0,0.0,0.0,0.0,0.0,0.0,0.0,0.0,0.0,0.0,0.0,0.0,0.0,0.0,0.0,0.0,0.0,0.0,0.0,0.0,0.0,0.0,0.0,0.0,0.0,0.0,0.0,0.0,0.0,0.0,0.0,0.0,0.0,0.0,0.0,0.0,0.0,0.0,0.0,0.0,0.0,0.0,0.0,0.0,0.0,0.0,0.0,0.0,0.0,0.0,0.0,0.0,0.0,0.0,0.0,0.0,0.0,0.0,0.0,0.0,0.0,0.0,0.0,0.0,0.0,1.3984,1.5565,0.0,1.5568,1.5106,1.4705,1.2647,1.1226,1.0795,0.0,0.0,0.0,0.0,0.0,0.0,0.0,0.0,0.0,0.0,0.0,0.0,0.0,0.0,0.0,0.0,0.0,0.0,0.0,0.0,0.0,0.0,0.0,0.0,0.0,0.0,0.0,0.0,0.0,0.0,0.0,0.0,0.0,0.0,0.0,0.0,0.0,0.0,0.0,0.0,0.0,0.0,0.0,0.0,0.0,0.0,0.0,0.0,0.0,0.0,0.0,0.0,0.0,0.0,0.0,0.0,0.0,0.0,0.0,0.0,0.0,0.0,0.0,0.0,0.0,0.0,0.0,0.0,0.0,0.0,0.0,0.0,0.0,0.0,0.0,0.0,0.0,0.0,0.0,0.0,0.0,0.0,0.0,0.0,0.0,0.0,0.0,0.0,0.0,0.0,0.0,0.0,0.0,0.0,0.0,0.0,0.0,0.0,0.0,0.0,0.0,0.0,1.2285,1.4297,1.5898,0.0,1.6078,1.5713,1.5713,1.3513,1.1903,1.1294,0.0,0.0,0.0,0.0,0.0,0.0,0.0,0.0,0.0,0.0,0.0,0.0,0.0,0.0,0.0,0.0,0.0,0.0,0.0,0.0,0.0,0.0,0.0,0.0,0.0,0.0,0.0,0.0,0.0,0.0,0.0,0.0,0.0,0.0,0.0,0.0,0.0,0.0,0.0,0.0,0.0,0.0,0.0,0.0,0.0,0.0,0.0,0.0,0.0,0.0,0.0,0.0,0.0,0.0,0.0,0.0,0.0,0.0,0.0,0.0,0.0,0.0,0.0,0.0,0.0,0.0,0.0,0.0,0.0,0.0,0.0,0.0,0.0,0.0,0.0,0.0,0.0,0.0,0.0,0.0,0.0,0.0,0.0,0.0,0.0,0.0,0.0,0.0,0.0,0.0,0.0,0.0,0.0,0.0,0.0,0.0,0.0,0.0,0.0,0.0,0.0,0.0,1.2773,1.4802,1.625,1.6636,1.6348,1.6135,1.6135,1.4052,1.2594,0.0,0.0,0.0,0.0,0.0,0.0,0.0,0.0,0.0,0.0,0.0,0.0,0.0,0.0,0.0,0.0,0.0,0.0,0.0,0.0,0.0,0.0,0.0,0.0,0.0,0.0,0.0,0.0,0.0,0.0,0.0,0.0,0.0,0.0,0.0,0.0,0.0,0.0,0.0,0.0,0.0,0.0,0.0,0.0,0.0,0.0,0.0,0.0,0.0,0.0,0.0,0.0,0.0,0.0,0.0,0.0,0.0,0.0,0.0,0.0,0.0,0.0,0.0,0.0,0.0,0.0,0.0,0.0,0.0,0.0,0.0,0.0,0.0,0.0,0.0,0.0,0.0,0.0,0.0,0.0,0.0,0.0,0.0,0.0,0.0,0.0,0.0,0.0,0.0,0.0,0.0,0.0,0.0,0.0,0.0,0.0,0.0,0.0,0.0,0.0,0.0,0.0,0.0,1.3184,1.5215,1.6699,1.7148,1.707,1.6875,1.6562,1.51,1.3906,1.3212,0.0,0.0,0.0,0.0,0.0,0.0,0.0,0.0,0.0,0.0,0.0,0.0,0.0,0.0,0.0,0.0,0.0,0.0,0.0,0.0,0.0,0.0,0.0,0.0,0.0,0.0,0.0,0.0,0.0,0.0,0.0,0.0,0.0,0.0,0.0,0.0,0.0,0.0,0.0,0.0,0.0,0.0,0.0,0.0,0.0,0.0,0.0,0.0,0.0,0.0,0.0,0.0,0.0,0.0,0.0,0.0,0.0,0.0,0.0,0.0,0.0,0.0,0.0,0.0,0.0,0.0,0.0,0.0,0.0,0.0,0.0,0.0,0.0,0.0,0.0,0.0,0.0,0.0,0.0,0.0,0.0,0.0,0.0,0.0,0.0,0.0,0.0,0.0,0.0,0.0,0.0,0.0,0.0,0.0,0.0,0.0,0.0,0.0,0.0,0.0,0.0,0.0,1.3574,1.5508,1.6973,1.7578,1.748,1.7207,1.6777,1.5684,1.4444,1.3125,0.0,0.0,0.0,0.0,0.0,0.0,0.0,0.0,0.0,0.0,0.0,0.0,0.0,0.0,0.0,0.0,0.0,0.0,0.0,0.0,0.0,0.0,0.0,0.0,0.0,0.0,0.0,0.0,0.0,0.0,0.0,0.0,0.0,0.0,0.0,0.0,0.0,0.0,0.0,0.0,0.0,0.0,0.0,0.0,0.0,0.0,0.0,0.0,0.0,0.0,0.0,0.0,0.0,0.0,0.0,0.0,0.0,0.0,0.0,0.0,0.0,0.0,0.0,0.0,0.0,0.0,0.0,0.0,0.0,0.0,0.0,0.0,0.0,0.0,0.0,0.0,0.0,0.0,0.0,0.0,0.0,0.0,0.0,0.0,0.0,0.0,0.0,0.0,0.0,0.0,0.0,0.0,0.0,0.0,0.0,0.0,0.0,0.0,0.0,0.0,0.0,0.0,1.3854,1.5585,1.707,1.791,1.7676,1.7266,1.6836,1.5977,1.459,1.2586,0.0,0.0,0.0,0.0,0.0,0.0,0.0,0.0,0.0,0.0,0.0,0.0,0.0,0.0,0.0,0.0,0.0,0.0,0.0,0.0,0.0,0.0,0.0,0.0,0.0,0.0,0.0,0.0,0.0,0.0,0.0,0.0,0.0,0.0,0.0,0.0,0.0,0.0,0.0,0.0,0.0,0.0,0.0,0.0,0.0,0.0,0.0,0.0,0.0,0.0,0.0,0.0,0.0,0.0,0.0,0.0,0.0,0.0,0.0,0.0,1.3379,0.0,0.0,0.0,0.0,0.0,0.0,0.0,0.0,0.0,0.0,0.0,0.0,0.0,0.0,0.0,0.0,0.0,0.0,0.0,0.0,0.0,0.0,0.0,0.0,0.0,0.0,0.0,0.0,0.0,0.0,0.0,0.0,0.0,0.0,0.0,0.0,0.0,0.0,0.0,0.0,0.0,1.3854,1.5585,1.707,1.791,1.793,1.7715,1.7285,1.6426,1.5466,1.4379,1.2446,0.0,0.0,0.0,0.0,0.0,0.0,0.0,0.0,0.0,0.0,0.0,0.0,0.0,0.0,0.0,0.0,0.0,0.0,0.0,0.0,0.0,0.0,0.0,0.0,0.0,0.0,0.0,0.0,0.0,0.0,0.0,0.0,0.0,0.0,0.0,0.0,0.0,0.0,0.0,0.0,0.0,0.0,0.0,0.0,0.0,0.0,0.0,0.0,0.0,0.0,0.0,0.0,0.0,0.0,0.0,0.0,0.0,0.0,0.0,0.0,1.4546,0.0,0.0,0.0,0.0,0.0,0.0,0.0,0.0,0.0,0.0,0.0,0.0,0.0,0.0,0.0,0.0,0.0,0.0,0.0,0.0,0.0,0.0,0.0,0.0,0.0,0.0,0.0,0.0,0.0,0.0,0.0,0.0,0.0,0.0,0.0,0.0,0.0,0.0,0.0,0.0,1.4258,1.5977,1.7285,1.7949,1.8008,1.7832,1.7422,1.6953,1.6176,1.4914,1.3302,0.0,0.0,0.0,0.0,0.0,0.0,0.0,0.0,0.0,0.0,0.0,0.0,0.0,0.0,0.0,0.0,0.0,0.0,0.0,0.0,0.0,0.0,0.0,0.0,0.0,0.0,0.0,0.0,0.0,0.0,0.0,0.0,0.0,0.0,0.0,0.0,0.0,0.0,0.0,0.0,0.0,0.0,0.0,0.0,0.0,0.0,0.0,0.0,0.0,0.0,0.0,0.0,0.0,1.9023,1.9238,1.8926,1.9258,1.9487,1.9608,1.8247,1.7736,1.7828,0.0,0.0,0.0,0.0,0.0,0.0,0.0,0.0,0.0,0.0,0.0,0.0,0.0,0.0,0.0,0.0,0.0,0.0,0.0,0.0,0.0,0.0,0.0,0.0,0.0,1.6095,1.6208,0.0,0.0,0.0,0.0,0.0,0.0,0.0,0.0,0.0,0.0,0.0,0.0,1.4727,1.6348,1.7539,1.7969,1.8008,1.7871,1.7519,1.7422,1.6699,1.5117,1.4199,1.3008,0.0,0.0,0.0,0.0,0.0,0.0,0.0,0.0,0.0,0.0,0.0,0.0,0.0,0.0,0.0,0.0,0.0,0.0,0.0,0.0,0.0,0.0,0.0,0.0,0.0,0.0,0.0,0.0,0.0,0.0,0.0,0.0,1.0003,1.0708,0.0,0.0,0.0,0.0,0.0,0.0,0.0,0.0,0.0,0.0,0.0,0.0,0.0,1.7432,1.7896,2.0023,2.115,2.1309,2.2168,2.2539,2.248,2.2519,2.3112,2.4157,2.3906,0.0,1.9918,1.9722,0.0,0.0,0.0,0.0,0.0,0.0,0.0,0.0,0.0,0.0,0.0,0.0,0.0,0.0,0.0,0.0,0.0,0.0,0.0,0.0,0.0,0.0,1.791,1.76,1.7687,1.7734,0.0,1.5195,1.3184,1.2637,1.1998,0.0,0.0,0.0,0.0,0.0,0.0,0.0,1.5156,1.6523,1.7539,1.7969,1.8008,1.7988,1.793,1.7598,1.6953,1.6017,1.5098,1.418,1.3203,1.2012,0.0,0.0,0.0,0.0,0.0,0.0,0.0,0.0,0.0,0.0,0.0,0.0,0.0,0.0,0.0,0.0,0.0,0.0,0.0,0.0,0.0,0.0,0.0,0.0,0.0,0.0,0.0,0.0,0.0,0.9844,1.1532,1.1815,1.2126,1.2147,0.0,0.0,0.0,0.0,0.0,0.0,0.0,0.0,0.0,1.8076,1.9371,2.0483,2.1384,2.2407,2.3066,2.332,2.3691,2.4207,2.49,2.49,2.5585,2.6777,2.7459,2.693,2.5486,2.37,2.2327,2.1283,0.0,0.0,0.0,0.0,2.0234,2.0248,2.2084,2.2353,0.0,2.095,0.0,0.0,0.0,0.0,0.0,0.0,0.0,0.0,0.0,0.0,0.0,1.9805,1.9824,1.9746,1.9492,1.8027,1.6348,0.0,1.441,1.3625,1.1934,0.0,0.0,0.0,0.0,0.0,1.6406,1.7656,1.8437,1.8379,1.8359,1.8262,1.8027,1.7832,1.7363,1.6484,1.584,1.5117,1.4258,1.3203,1.176,0.0,0.0,0.0,0.0,0.0,0.0,0.0,0.0,0.0,0.0,0.0,0.0,0.0,0.0,0.0,0.0,0.0,0.0,0.0,0.0,0.0,0.0,0.0,0.0,0.0,0.0,0.0,0.0,1.1353,1.3037,1.3285,1.4374,1.4719,0.0,0.0,0.0,0.0,0.0,0.0,1.7131,1.8803,2.0235,2.1569,2.2573,2.3496,2.4453,2.4921,2.5305,2.5625,2.5886,2.6609,2.7506,2.7506,2.814,2.9412,3.0083,3.0481,3.0374,2.7472,2.5778,2.5037,2.4083,2.3361,2.293,2.3904,2.4046,2.4089,2.6239,2.6627,2.5849,2.4489,0.0,2.097,1.7967,0.0,0.0,0.0,0.0,1.7502,1.8283,1.9698,2.0996,2.1328,2.1406,2.1309,2.0977,2.0312,1.918,0.0,1.6641,1.5918,1.3906,0.0,0.0,0.0,0.0,1.7207,1.7656,1.8633,1.9121,1.8691,1.8562,1.8457,1.8047,1.8008,1.7637,1.6777,1.6426,1.584,1.498,1.4238,1.2909,1.0866,0.0,0.0,0.0,0.0,0.0,0.0,0.0,0.0,0.0,0.0,0.0,0.0,0.0,0.0,0.0,0.0,0.0,0.0,0.0,0.0,0.0,0.0,0.0,0.0,0.0,0.0,0.0,0.0,0.0,1.5601,1.7113,0.0,0.0,0.0,0.0,1.6815,1.804,1.9192,2.0292,2.2399,2.3699,2.4185,2.5508,2.6191,2.625,2.7897,2.8796,2.8796,3.0044,3.0718,3.0718,3.0718,3.1502,3.2626,3.2218,3.2366,3.2732,3.0478,2.9201,2.8575,2.7999,2.7448,2.7122,2.815,2.855,2.8625,2.9351,2.8875,2.7779,2.6668,2.378,2.0525,1.9919,1.8521,0.0,0.0,1.9127,1.9552,2.0738,2.1465,2.1816,2.1855,2.1855,2.1855,2.1816,2.1465,2.0625,0.0,1.8184,1.7754,1.7207,0.0,1.7207,1.7168,1.7617,1.8105,1.8516,1.8984,1.9121,1.8691,1.8562,1.8457,1.8047,1.8008,1.7637,1.6777,1.6719,1.6309,1.541,1.4961,1.4026,1.258,1.0948,0.0,0.0,0.0,0.0,0.0,0.0,0.0,0.0,0.0,0.0,0.0,0.0,0.0,0.0,0.0,0.0,0.0,0.0,0.0,0.0,0.0,0.0,0.0,0.0,0.0,0.0,0.0,0.0,1.7988,1.9766,0.0,1.9216,1.9507,1.9995,2.058,2.174,2.289,2.3817,2.485,2.5644,2.6074,2.6543,2.7181,2.8041,2.8682,2.9437,3.0295,3.0778,3.1449,3.223,3.223,3.2909,3.404,3.3843,3.3941,3.4073,3.3294,3.1989,3.0482,3.0306,3.0105,2.998,3.0357,3.0507,3.0532,3.0758,3.0053,2.8722,2.651,2.4598,2.3,2.2197,2.153,2.1154,2.1656,2.202,2.2313,2.2746,2.2988,2.3105,2.3105,2.2695,2.2285,2.2285,2.1953,2.1465,2.084,1.9922,1.8926,1.7949,1.8242,1.8418,1.7871,1.8613,1.9297,1.9434,1.9844,1.9941,1.9512,1.9219,1.8887,1.8457,1.791,1.7363,1.6777,1.6465,1.5918,1.5039,1.4863,1.3968,1.2287,1.1477,0.9821,0.0,0.0,0.0,0.0,0.0,0.0,0.0,0.0,0.0,0.0,0.0,0.0,0.0,0.0,0.0,0.0,0.0,0.0,0.0,0.0,0.0,0.0,0.0,0.0,0.0,0.0,1.9496,1.9855,2.1967,2.2871,2.1562,2.25,2.3359,2.3789,2.4609,2.5391,2.6133,2.6582,2.6953,2.7226,2.75,2.8344,2.9737,3.029,3.1174,3.2397,3.2881,3.3387,3.4117,3.4117,3.449,3.5253,3.5077,3.5002,3.4977,3.4801,3.3847,3.2491,3.2315,3.224,3.2215,3.1571,3.1329,3.122,3.0688,2.9659,2.8358,2.632,2.5104,2.4419,2.3732,2.3574,2.3574,2.3574,2.3789,2.4004,2.4004,2.4004,2.4004,2.4004,2.3457,2.2949,2.2949,2.2598,2.2266,2.2129,2.1269,2.0273,1.9258,1.957,1.9707,1.8984,1.959,2.0137,2.0137,2.0391,2.0391,1.9961,1.9668,1.9258,1.8691,1.8008,1.7344,1.6777,1.6309,1.5742,1.5019,1.4863,1.4154,1.2744,1.1836,1.0274,0.8046,0.0,0.0,0.0,0.0,0.0,0.0,0.0,0.0,0.0,0.0,0.0,0.0,0.0,0.0,0.0,0.0,0.0,0.0,0.0,0.0,0.0,0.0,0.0,1.8052,1.9331,2.0642,2.1286,2.3683,2.4741,2.3398,2.4805,2.5957,2.6387,2.6426,2.6621,2.7051,2.748,2.7715,2.7734,2.8516,2.9667,3.1127,3.2933,3.4291,3.5346,3.6578,3.6935,3.6408,3.6408,3.6408,3.6383,3.583,3.5604,3.5554,3.5002,3.4776,3.4726,3.4148,3.3922,3.367,3.193,3.127,3.0974,2.9217,2.7891,2.6844,2.6313,2.5351,2.4453,2.4453,2.4453,2.4453,2.4453,2.4453,2.4453,2.4453,2.4453,2.4434,2.4434,2.4121,2.3809,2.3809,2.3457,2.3047,2.2637,2.2207,2.1777,2.1328,2.125,2.1094,2.0664,2.0664,0.0,2.0644,2.0644,2.0468,2.0036,1.9902,1.9551,1.864,1.8242,1.7637,1.6714,1.6309,1.5859,1.541,1.5,1.457,1.4068,1.2063,1.0611,0.9761,0.0,0.0,0.0,0.0,0.0,0.0,0.0,0.0,0.0,0.0,0.0,0.0,0.0,0.0,0.0,0.0,0.0,0.0,0.0,0.0,0.0,0.0,2.2143,2.1735,2.3454,2.5042,2.5743,2.7063,2.7374,2.6075,2.6387,2.6836,2.7285,2.7324,2.7637,2.8359,2.8516,2.8711,2.9043,3.0336,3.1611,3.3082,3.4578,3.6039,3.7246,3.7567,3.7688,3.7563,3.7563,3.7563,3.7513,3.696,3.6734,3.6684,3.6132,3.5906,3.583,3.4876,3.45,3.4385,3.3941,3.2967,3.1451,2.8844,2.767,2.7181,2.6154,2.5563,2.5371,2.5371,2.5371,2.5371,2.5371,2.5371,2.5371,2.5371,2.5137,2.4883,2.4883,2.4551,2.4238,2.4238,2.3906,2.3574,2.3457,2.3086,2.2559,2.1836,2.1699,2.1562,2.1113,2.1648,0.0,2.1624,2.1583,2.1419,2.104,2.0072,1.9238,1.8691,1.7969,1.7324,1.6777,1.6309,1.5723,1.5,1.4844,1.4434,1.3691,1.2196,1.1297,0.0,0.0,0.0,0.0,0.0,0.0,0.0,0.0,0.0,0.0,0.0,0.0,0.0,0.0,0.0,0.0,0.0,0.0,0.0,0.0,0.0,0.0,2.2611,2.5274,2.5797,2.6977,2.7926,2.8136,2.8796,2.8755,2.7388,2.7441,2.7734,2.8164,2.8184,2.8476,2.916,2.9199,2.9316,2.957,3.1244,3.2728,3.4123,3.5806,3.72,3.8366,3.8366,3.8241,3.8015,3.8015,3.8015,0.0,3.7663,3.7538,3.7487,3.6935,3.6709,0.0,0.0,0.0,0.0,0.0,3.1738,2.9759,2.7959,2.7288,2.6952,2.6192,2.5879,2.5742,2.5742,2.5742,2.5742,2.5742,2.5742,2.5742,2.5742,2.5547,2.5352,2.5352,2.5019,2.4687,2.4687,2.4355,2.4043,2.4043,2.3711,0.0,2.2773,2.2383,2.2158,2.2171,2.2484,2.278,2.2961,2.2746,2.2381,2.1734,2.0892,2.0072,1.9199,1.8398,0.0,0.0,0.0,1.5957,1.5078,1.4883,0.0,0.0,0.0,0.0,0.0,0.0,0.0,0.0,1.1796,1.1366,0.0,0.0,0.0,0.0,0.0,0.0,0.0,0.0,0.0,0.0,0.0,0.0,0.0,0.0,0.0,0.0,2.4943,2.8012,2.9782,3.0033,2.9813,2.9317,2.9547,2.925,2.8003,2.8144,2.8535,2.8965,2.8984,2.918,2.9609,0.0,0.0,0.0,0.0,3.3332,3.4639,3.6684,3.8129,3.8969,3.8969,3.8693,3.8191,3.8191,3.8191,3.8191,3.814,3.809,3.8065,3.7513,3.7287,3.7161,3.6056,3.5537,3.4996,3.2106,2.9423,2.7275,2.7216,0.0,0.0,2.6844,2.6665,2.6346,2.619,2.617,2.617,2.617,2.6053,2.5936,2.5976,2.5956,2.5917,2.5742,2.5526,2.5326,2.5232,2.4805,2.4492,2.4492,2.4102,2.3879,2.3969,2.328,2.2908,2.3489,2.3387,2.3535,2.434,2.401,2.3401,2.2403,0.0,0.0,2.0088,1.9213,1.8516,1.8047,1.7207,1.6387,1.5586,1.5195,1.4805,1.4301,1.4355,1.4727,1.5488,1.5488,1.5742,1.6172,1.3876,1.3349,0.0,0.0,0.0,0.0,0.0,0.0,0.0,0.0,0.0,0.0,0.0,0.0,0.0,0.0,0.0,2.447,2.7561,3.0345,3.263,3.2842,3.2317,3.114,3.0499,2.9828,2.8741,2.875,2.8984,2.9414,2.9453,2.9629,3.0059,3.0078,3.0254,3.0625,3.3359,3.4934,3.5154,3.7878,3.9415,3.9546,0.0,0.0,3.9371,3.9371,3.9371,3.9346,3.8894,3.8718,3.8668,3.809,3.7839,3.7739,3.6634,3.5614,3.4365,3.2248,3.0491,2.9164,2.879,2.8603,2.8718,2.9775,3.0097,2.9847,2.9452,2.9343,0.0,2.9343,2.8327,2.7303,2.7772,2.7585,2.6935,2.5917,2.6416,2.6812,2.5799,2.5254,2.4941,2.4941,2.4316,2.4038,2.4907,2.4695,2.4262,2.4135,2.5418,2.6147,2.5627,2.5439,2.4966,2.398,2.249,2.123,2.0648,1.9745,1.8828,1.8066,1.7207,1.6597,1.6484,1.6406,1.6152,1.5703,1.5684,1.5762,1.5937,1.5937,1.6348,1.7109,1.6286,1.5643,0.0,0.0,0.0,0.0,0.0,0.0,0.0,0.0,0.0,0.0,0.0,1.9707,2.0996,0.0,2.4257,2.6697,2.9255,3.1632,3.341,3.3212,3.2666,3.1972,3.0982,2.9887,2.8976,2.8926,2.918,2.9844,2.9883,3.0078,3.0527,3.0547,3.107,3.2418,3.4311,3.573,3.6749,3.8729,3.9697,3.9697,3.9697,3.9697,3.9697,3.9697,3.9697,3.9672,3.9396,3.927,3.9245,3.8668,3.8266,3.7939,3.7387,3.621,3.4695,3.3464,3.2194,3.0947,3.0708,3.0569,3.0472,3.1136,3.1173,3.0926,3.0678,3.0611,3.0611,3.0611,2.9958,2.9306,2.9306,2.9132,2.8704,2.7715,2.8049,2.8121,2.6935,2.694,2.7035,2.6513,2.6123,2.6013,2.6519,2.651,2.6349,2.6206,2.6837,2.7287,2.7384,2.6919,2.6141,2.5158,2.395,2.2911,2.2237,2.1011,1.992,1.9028,1.7915,1.7461,1.7671,1.7026,1.6621,1.6406,1.6406,1.6504,1.6719,1.6934,1.7383,1.8008,1.8008,1.7668,0.0,0.0,0.0,0.0,0.0,0.0,0.0,0.0,1.6478,1.8884,2.0799,2.2461,2.3574,2.4687,2.6264,2.8688,3.0602,3.2362,3.403,3.3076,3.2331,3.2331,3.1013,2.9839,2.9231,2.938,2.9917,3.071,3.0977,3.1405,3.1868,3.1908,3.2649,3.4432,3.5424,3.6864,3.8404,3.9438,3.9948,3.9848,3.9848,3.9798,3.9697,3.9697,3.9697,3.9697,3.9697,3.9697,3.9672,3.922,3.8768,3.8316,3.8216,3.727,3.5761,3.4841,3.3645,3.2331,3.2632,3.2483,3.2264,3.2558,3.2356,3.2011,3.1632,3.149,3.149,3.149,3.123,3.0976,3.0759,3.0694,3.0396,2.9622,2.9579,2.9418,2.8236,2.868,2.9143,2.8143,2.7894,2.8004,2.8177,2.8197,2.8084,2.8084,2.7908,2.8086,2.8775,2.8047,2.7083,2.6215,2.5445,2.4492,2.3305,2.1913,2.0762,1.9947,1.8894,1.8427,1.8709,1.771,1.7227,1.7227,1.7227,1.7402,1.7754,1.8086,1.8437,1.8769,1.9199,1.9219,1.6152,1.5704,1.5753,1.6244,1.5275,1.5234,0.0,0.0,1.9763,2.2636,2.4335,2.5391,2.5937,2.6445,2.7824,3.0877,3.1806,3.3162,3.5759,3.3899,3.2331,3.2331,3.0369,2.927,2.998,3.1258,3.2225,3.2726,3.4004,3.498,3.5467,3.5489,3.5823,3.6496,3.7966,3.8769,3.9038,4.0375,4.0902,4.0425,4.0425,4.0174,3.9697,3.9697,3.9697,3.9697,3.9697,3.9697,3.9697,3.9622,3.9572,3.9446,3.8969,3.8642,3.8216,3.5933,3.3923,3.2431,3.3773,3.4142,3.429,3.5473,3.5829,3.5466,3.372,3.3195,3.3195,3.3195,3.208,3.1162,3.2254,3.2272,3.1433,2.9806,3.0214,3.0664,2.9487,2.9304,2.9304,2.9235,2.8522,2.8177,2.923,2.8692,2.8084,2.8084,2.89,2.9349,2.8925,2.8398,2.7748,2.7176,2.5826,2.4253,2.2317,2.0893,2.0013,1.9915,1.9448,1.9193,1.9206,1.9095,1.9004,1.9004,1.9004,1.9023,1.9082,1.9121,1.918,1.9219,1.9648,1.9824,1.9453,1.8099,1.6894,0.0,1.7568,1.7745,2.0256,2.151,2.2745,2.4937,2.6184,2.6914,2.709,2.748,2.8501,0.0,3.2134,3.3604,3.574,3.4179,3.2891,3.316,3.0864,2.9434,2.9805,3.135,3.2574,3.3035,3.4778,3.5804,3.614,3.6387,3.7224,3.8661,3.8942,3.9633,4.0857,4.1155,4.1229,4.1003,4.1003,4.0877,4.0651,4.0325,3.9998,3.9697,3.9697,3.9697,3.9697,3.9697,3.9697,3.9672,3.9446,3.9145,3.8768,3.732,3.6281,3.5665,3.6308,3.6309,3.6135,3.6643,3.6131,3.5138,3.4318,3.3422,3.2932,3.3738,3.3499,3.3098,3.3728,3.3801,3.3228,3.1882,3.1977,3.1952,3.0687,3.1045,3.1335,3.0574,3.0194,3.0097,3.0621,2.9819,2.9106,2.9106,2.9443,2.9704,2.9478,2.8925,2.8027,2.6602,2.5588,2.4181,2.2188,2.1494,2.0968,2.065,2.0044,1.9752,2.0073,1.9568,1.9297,1.9297,1.9297,1.9297,1.9297,1.9531,1.9648,1.9668,2.0098,2.0293,2.1523,2.0356,0.0,1.9664,2.0128,2.0654,2.1739,2.3267,2.5006,2.6613,2.7402,2.7832,2.7832,2.8086,2.904,3.1254,3.2471,3.3788,3.553,3.4337,3.3123,3.3038,3.0874,2.9656,3.0198,3.2017,3.3369,3.3711,3.5959,3.7432,3.7571,3.8036,3.9137,4.0725,4.0362,4.0918,4.2384,4.1982,4.1706,4.1555,4.1555,4.148,4.1329,4.0777,4.03,3.9923,3.9747,3.9697,3.9697,3.9697,3.9697,3.9697,3.9697,3.9446,3.9044,3.8617,3.8266,3.8015,3.8015,3.7638,3.7186,3.7186,3.5917,3.4288,3.397,3.2855,3.2028,3.3453,3.3773,3.3929,3.452,3.4726,3.4449,3.3345,3.3068,3.2896,3.1952,3.2438,3.2871,3.2277,3.2131,3.2107,3.2169,3.1214,3.0394,3.0241,3.0011,2.9804,2.9804,2.9277,2.8102,2.5995,2.5203,2.4196,2.2563,2.2167,2.1966,2.1849,2.1238,2.104,2.141,2.0762,2.0346,2.0072,2.0052,1.9925,1.9648,1.9941,2.0098,2.0098,2.041,2.0625,2.125,0.0,2.2948,2.2537,2.334,2.4314,2.4918,2.5318,2.6056,2.7912,2.8262,2.8281,2.8281,2.8281,2.9359,3.2613,3.3196,3.3788,3.553,3.4337,3.2679,3.1254,2.9776,2.963,0.0,3.3835,3.5156,3.5178,3.8407,4.0646,4.1064,4.1722,4.2273,4.2936,4.2936,4.2936,4.2961,4.2936,4.266,4.2133,4.2133,4.1856,4.1329,4.0777,4.0501,4.045,3.9923,3.9697,3.9697,3.9697,3.9697,3.9697,3.9697,3.9697,3.9672,3.9647,3.8944,3.8015,3.8015,3.7638,3.7186,3.7186,3.5917,3.419,3.2755,3.1418,3.0618,3.2028,3.2331,3.2704,3.4336,3.4726,3.4449,3.3345,3.3068,3.3068,3.3068,3.3068,3.3386,3.4428,3.4149,3.386,3.4272,3.3095,3.1929,3.1272,3.0343,2.9804,2.9804,2.9277,2.8102,2.5995,2.4895,2.4116,2.3475,2.2542,2.2392,2.3356,2.343,2.3408,2.3408,2.3408,2.287,2.192,2.192,2.1486,2.0527,2.0547,2.0547,2.0547,2.0566,2.0801,2.2969,0.0,2.3643,2.4307,2.5267,2.6064,2.6462,2.7232,2.7956,2.8563,2.8027,2.7539,2.7832,2.7637,2.8068,3.0003,3.2187,3.417,3.5329,3.5538,3.5282,3.4418,3.3038,0.0,0.0,0.0,0.0,3.5156,3.7958,3.9649,3.9819,4.1718,4.2785,4.2961,4.2986,4.2986,4.2986,4.2986,4.2886,4.271,4.271,4.2409,4.1882,4.1681,4.1204,4.0526,4.0701,4.0576,4.0249,4.0249,4.0249,4.0199,3.9848,3.9697,3.9697,3.9697,3.9446,3.912,3.912,3.8768,3.8141,3.6797,3.5088,3.3288,3.1527,3.0016,2.9408,3.1622,3.2331,3.2773,3.4755,3.5002,3.4525,3.3796,3.3345,3.3068,3.3068,3.3641,3.4262,3.4677,3.4821,3.4886,3.5051,3.4376,3.3349,3.208,3.0676,2.9804,2.9804,2.9277,2.8374,2.7076,2.5631,2.4767,2.461,2.3643,2.3487,2.4588,2.4273,2.3996,2.3996,2.3319,2.2807,2.2499,2.2127,2.1749,2.1445,2.1445,2.1445,2.1445,2.1445,2.1523,2.4805,2.5252,2.5461,2.6565,2.7381,2.7809,2.7921,2.8439,2.8789,2.832,2.7461,2.6836,2.6953,2.6621,2.6979,2.8946,3.161,3.3885,3.4863,3.6038,3.6445,3.5572,3.453,3.4088,0.0,0.0,0.0,3.5899,3.7989,3.9354,3.9843,4.1892,4.2986,4.2986,4.2986,4.2986,4.2986,4.2986,4.2986,4.2986,4.2986,4.2785,4.2434,4.2258,4.1756,4.1103,4.1279,4.1128,4.0802,4.0601,4.0526,4.045,3.9898,3.9697,3.9697,3.9697,3.9697,3.9697,3.9697,3.932,3.8566,3.6609,3.4737,3.2797,3.087,2.9702,2.9513,3.1724,3.2632,3.3435,3.5095,3.5278,3.4826,3.4073,3.3944,3.3871,3.3666,3.4511,3.5359,3.5682,3.6014,3.6296,3.6447,3.5358,3.3998,3.2448,3.0958,3.0005,2.9804,2.9478,2.8746,2.7579,2.6551,2.5807,2.5724,2.506,2.506,2.6183,2.5855,2.5667,2.5667,2.4588,2.3919,2.353,2.2816,2.2267,2.1894,2.1894,2.1894,2.1894,2.1894,2.1973,2.6641,2.7461,2.8125,2.9336,2.9648,2.9512,2.9082,2.8926,2.8535,2.7246,2.6582,2.6094,0.0,0.0,2.6068,2.9199,3.1438,3.322,3.4477,3.5981,3.6378,0.0,0.0,0.0,0.0,0.0,0.0,3.7501,0.0,3.9733,4.1164,4.2384,4.2986,4.2986,4.2986,4.2986,4.2986,4.2986,4.2986,4.2986,4.2986,4.2986,4.2961,4.2434,4.2183,4.2133,4.163,4.1404,4.1354,4.0827,4.0601,4.0551,3.9973,3.9747,3.9747,3.9697,3.9697,3.9697,3.9697,3.9346,3.8591,3.6531,3.476,3.2945,3.0912,3.0328,3.0721,3.2028,3.3353,3.4582,3.5332,3.5554,3.537,3.4287,3.4805,3.5447,3.4865,3.5601,3.6604,3.7587,3.7843,3.8015,3.8329,3.6228,3.3978,3.2478,3.1318,3.0407,2.9854,2.9804,2.9245,2.7753,2.7526,2.7311,2.6808,2.6685,2.7085,2.8099,2.8172,2.8147,2.8147,2.7061,2.6,2.5027,2.3865,2.2859,2.1953,2.1953,2.1953,2.1953,2.1953,2.2168,2.8047,2.9238,3.0156,3.0469,3.0547,3.043,2.998,2.9141,2.8086,2.6816,2.5176,2.3848,0.0,0.0,0.0,2.6963,3.0858,0.0,3.4952,3.7392,0.0,3.7927,0.0,3.8447,3.8906,3.7964,0.0,0.0,3.9564,3.9435,4.0314,4.2028,4.2986,4.2986,4.2986,4.2986,4.2986,4.2986,4.2986,4.2986,4.2986,4.2986,4.2961,4.2836,4.2534,4.2158,4.2434,4.2333,4.1932,4.1806,4.1731,4.163,4.0676,4.03,4.0249,3.9848,3.9697,3.9697,3.9697,3.9597,3.896,3.5911,3.5086,3.4783,3.1696,3.1309,3.2028,3.3453,3.4068,3.4654,3.5899,3.6544,3.6635,3.5843,3.6236,3.6579,3.5951,3.6632,3.751,3.7767,3.8472,3.8738,3.809,3.6363,3.4744,3.3595,3.1806,3.0407,2.9854,2.9804,2.9651,2.9269,2.847,2.8264,2.8944,2.8198,2.8198,2.9276,2.895,2.8725,2.8725,2.6877,2.5701,2.5462,2.395,2.3051,2.2812,2.2812,2.2812,2.2812,2.2812,2.2871,2.9707,3.0742,3.1406,3.1211,3.1035,3.0527,2.9121,2.8105,2.6816,2.459,2.3164,0.0,2.125,2.2305,0.0,0.0,0.0,0.0,3.3617,3.6848,3.8932,0.0,3.9631,0.0,4.0425,3.9907,4.0168,0.0,4.0293,3.997,4.0867,4.2215,4.2986,4.2986,4.2986,4.2986,4.2986,4.2986,4.2986,4.2986,4.2986,4.2986,4.2986,4.2986,4.2811,4.2534,0.0,4.2811,4.2509,4.2258,4.2158,4.2057,4.0953,4.0526,4.045,3.9898,3.9697,3.9697,3.9697,3.9697,3.9262,3.6438,3.5957,3.5789,3.2878,3.2686,3.3731,3.4237,3.4775,3.5547,3.6777,3.7443,3.7652,3.7504,3.8089,3.8436,3.7535,3.8141,3.8868,3.8604,3.9017,3.9017,3.7994,3.6662,3.5319,3.4047,3.2371,3.111,3.0557,3.008,2.9804,2.9804,2.9209,2.9106,2.9727,2.9184,2.9106,2.9779,2.9478,2.9048,2.8562,2.6943,2.5791,2.5218,2.3831,2.3387,2.3887,2.3887,2.4145,2.4553,2.4059,2.3887,3.1367,3.1973,3.2148,3.1719,3.1191,3.0137,2.7598,2.6504,2.5098,2.1738,0.0,2.0449,1.9258,2.0508,2.2168,2.3555,0.0,3.0282,3.1695,3.5391,3.7949,3.8238,3.9927,4.1214,4.1455,4.1505,4.1756,4.2233,4.1101,4.0989,4.2258,4.271,4.2986,4.2986,4.2986,4.2986,4.2986,4.2986,4.2986,4.2986,4.2986,4.2986,4.2986,4.2986,4.2986,4.2986,0.0,0.0,4.2936,4.2459,4.2258,4.2158,4.1128,4.0727,4.0651,4.0231,4.0082,4.0082,4.0006,3.9981,3.9572,3.7581,3.6948,3.6606,3.4372,3.4513,3.5425,3.5089,3.5787,3.6896,3.8017,3.8469,3.8666,3.9084,4.0063,4.0509,3.9402,3.9799,4.0217,3.9559,3.9409,3.9017,3.7814,3.6838,3.5623,3.3964,3.288,3.2039,3.1562,3.0633,2.998,2.9905,2.9955,2.9955,2.9804,2.9854,2.988,2.9804,2.9624,2.9106,2.8164,2.6953,2.5797,2.4787,2.3714,2.3627,2.4787,2.4787,2.5378,2.6483,2.5294,2.4787,3.2422,3.2637,3.2578,3.2168,3.1172,2.9746,2.7519,2.5566,0.0,0.0,1.9297,1.8398,1.7812,1.9394,2.1445,2.3457,2.6948,3.0007,3.2074,3.434,3.6438,0.0,3.9316,0.0,0.0,0.0,0.0,0.0,0.0,4.2588,4.2836,4.2936,4.2986,4.2986,4.2986,4.2986,4.2986,4.2986,4.2986,4.2986,4.2986,4.2986,4.2986,4.2986,4.2986,4.2986,4.2986,0.0,4.2961,4.2861,4.2836,4.276,4.2133,4.1882,4.1947,4.1931,4.1925,4.1847,4.1376,4.1319,4.0893,3.8202,3.791,3.8185,3.6582,3.6444,3.7014,3.7912,3.7924,3.8107,3.9271,4.0318,4.0914,4.0453,4.1259,4.19,4.1126,4.0681,4.0217,3.9559,3.9409,3.8767,3.6838,3.6369,3.5547,3.3487,3.2685,3.219,3.2089,3.1512,3.0959,3.0507,3.0859,3.0758,2.988,3.0206,3.0281,2.9829,2.8949,2.8347,2.8084,2.6191,2.5041,2.4787,2.3714,2.3627,2.4787,2.4787,2.5378,2.6483,2.5294,2.4787,3.2949,3.3125,3.2969,3.2324,3.1463,2.9868,2.6388,0.0,0.0,0.0,1.7773,1.7148,1.6484,1.8301,2.0312,2.1562,2.4375,2.7191,2.9566,3.2102,3.423,3.6116,3.7838,3.9637,0.0,0.0,0.0,0.0,0.0,4.2986,4.2986,4.2986,4.2986,4.2986,4.2986,4.2986,4.2986,4.2986,4.2986,4.2986,4.2986,4.2986,4.2986,4.2986,4.2986,4.2986,4.2986,0.0,4.2986,4.2986,4.3381,4.3965,4.3506,4.3675,4.4281,4.4118,4.3805,4.348,4.321,4.2912,4.235,4.1089,4.0007,3.9143,3.8181,3.8216,3.8575,3.8778,3.9013,3.936,4.049,4.1169,4.1695,4.1895,4.2189,4.2282,4.1953,4.1115,4.0307,3.9978,3.9649,3.8694,3.6604,3.6212,3.5494,3.3386,3.2842,3.2667,3.2667,3.2441,3.1938,3.111,3.1235,3.1185,3.0658,3.0608,3.0507,3.0231,2.9436,2.845,2.7279,2.6213,2.5126,2.3973,2.3387,2.4095,2.6084,2.6084,2.7144,2.8998,2.7222,2.6454,3.3105,3.3281,3.3086,3.2246,3.1526,2.972,2.5204,2.3368,0.0,1.7447,1.6523,1.6269,1.5664,1.7305,1.9023,0.0,2.1934,2.4394,2.7266,2.9916,3.2385,0.0,3.6556,0.0,4.0937,4.0822,0.0,0.0,0.0,0.0,4.2986,4.3087,4.3112,4.2986,4.2986,4.2986,4.2986,4.2986,4.3037,4.3162,4.3037,4.3037,4.3162,4.3037,4.2986,4.2986,4.2986,0.0,0.0,4.3381,4.4209,4.5422,4.4943,4.5484,4.6422,4.6209,4.5595,4.5064,4.4925,4.4478,4.3882,4.3598,4.2181,4.0464,4.0027,4.0148,4.0334,4.0106,4.0275,4.0772,4.1872,4.2034,4.2193,4.3061,4.294,4.2521,4.2402,4.1564,4.0726,4.0457,3.9847,3.8764,3.6554,3.6163,3.5413,3.3411,3.3068,3.3068,3.3068,3.3068,3.2742,3.1838,3.1738,3.1662,3.1411,3.1009,3.0783,3.0783,3.0019,2.8747,2.688,2.6629,2.553,2.3418,2.3418,2.4682,2.7442,2.7442,2.8831,3.1304,2.8951,2.7917,3.2832,3.2851,3.2656,3.1797,3.0822,2.8859,2.4315,0.0,2.0623,1.6911,1.582,1.5625,1.5937,1.6523,1.7734,2.0117,0.0,2.3379,2.7148,2.8859,3.1513,3.6134,0.0,0.0,4.2375,4.1419,0.0,0.0,0.0,0.0,4.3037,4.3463,4.3489,4.2986,4.2986,4.2986,4.2986,4.2986,4.3237,4.3714,4.3212,4.3237,4.3714,4.3212,4.2986,4.2986,4.2986,0.0,0.0,4.4833,4.5661,4.6888,4.6833,4.6909,4.7161,4.7742,4.753,4.6899,4.6354,4.5815,4.5024,4.3882,4.3313,4.3122,4.3067,4.2818,4.2602,4.3641,4.3111,4.262,4.379,4.3617,4.317,4.325,4.3299,4.309,4.2491,4.2252,4.1833,4.0636,3.9924,3.8825,3.6563,3.5872,3.5031,3.3316,3.3068,3.3068,3.3068,3.3068,3.3043,3.2943,3.2918,3.2491,3.1486,3.1336,3.1311,3.1311,2.9845,2.8597,2.776,2.6844,2.5709,2.4297,2.4297,2.546,2.785,2.785,2.9098,3.1304,2.8951,2.7917,3.1816,3.2226,3.2207,3.1348,3.0574,2.8943,2.4751,2.2738,2.0774,1.745,1.6058,1.5469,1.5644,1.6035,1.7026,1.9049,1.9501,2.0879,2.4786,2.6031,2.8287,3.331,3.441,0.0,0.0,0.0,4.2006,0.0,0.0,0.0,4.4016,4.4192,4.4041,4.3489,4.3463,4.3313,4.2986,4.3313,4.3589,4.379,4.3589,4.3589,4.379,4.3237,4.3381,4.4209,4.4209,0.0,0.0,4.6265,4.7094,4.8339,4.8339,4.8837,4.965,4.9897,4.9587,4.8938,4.8319,4.767,4.6962,4.6104,4.5779,4.5508,4.3975,4.365,4.3811,4.426,4.3978,4.3685,4.4154,4.3838,4.3329,4.3329,4.3329,4.3269,4.3,4.2641,4.2192,4.1683,4.0539,3.9002,3.7171,3.6087,3.494,3.3316,3.3068,3.3068,3.3068,3.3068,3.3068,3.3068,3.3068,3.2893,3.2441,3.2089,3.1888,3.1888,3.024,2.8911,2.7917,2.6797,2.5653,2.4414,2.5108,2.6499,2.8476,2.9178,3.0467,3.239,2.988,2.8813,3.0625,3.125,3.1445,3.084,2.9966,2.8263,2.4456,2.2402,2.0444,1.7322,1.5978,1.541,1.541,1.5664,1.6496,1.8301,1.8594,1.9929,2.366,2.5112,2.7427,3.1847,0.0,3.5757,0.0,4.1668,4.2983,4.4477,0.0,0.0,4.5146,4.5121,4.4794,4.4066,4.4041,4.3865,4.3463,4.384,4.4141,4.4292,4.4548,4.4699,4.4648,4.4506,4.4883,4.5661,0.0,0.0,0.0,4.7707,4.8539,4.9776,4.9776,5.0383,5.1229,5.1229,5.081,5.0182,4.9703,4.8985,4.8207,4.7758,4.7459,4.6931,4.5207,4.4891,4.5288,4.5288,4.4899,4.4496,4.4137,4.3688,4.3329,4.3329,4.3329,4.3329,4.3329,4.297,4.2503,4.1981,4.0706,3.9112,3.7208,3.6173,3.5063,3.3593,3.3319,3.3269,3.3093,3.3068,3.3068,3.3068,3.3068,3.3068,3.3068,3.2541,3.229,3.2466,3.0798,2.9339,2.8365,2.7136,2.5993,2.4805,2.6064,2.7467,2.8993,3.015,3.1588,3.3068,3.0598,2.905,2.9355,2.9902,3.0215,3.0215,2.875,2.6424,2.2819,2.1063,1.9375,1.6098,1.541,1.541,1.541,1.541,1.6138,1.826,1.9438,2.1261,2.4633,2.7291,3.0008,0.0,0.0,3.5795,4.0084,4.3011,4.4618,4.4618,0.0,0.0,4.6301,4.6301,4.5773,4.4644,4.4618,4.4618,4.4593,4.4618,4.4895,4.5447,4.643,4.679,4.6737,4.7646,4.7674,0.0,0.0,0.0,0.0,4.9161,4.9969,5.1229,5.1229,5.1229,5.1229,5.1229,5.081,5.0242,5.0242,4.9374,4.8297,4.8267,4.7848,4.7309,4.7309,4.7309,4.7279,4.7279,4.6322,4.4975,4.3688,4.3329,4.3329,4.3329,4.3329,4.3329,4.3329,4.3329,4.2773,4.0943,4.0238,3.9152,3.6751,3.5827,3.5152,3.4048,3.3897,3.3696,3.3144,3.3068,3.3068,3.3068,3.3068,3.3068,3.3068,3.2541,3.2466,3.3043,3.1355,3.0127,2.9373,2.8215,2.703,2.5723,2.6935,2.8215,2.9396,3.0574,3.1865,3.3068,3.0598,2.8121,2.5547,2.6367,2.6934,2.6035,2.5219,2.3909,2.1431,2.0024,1.8659,1.6605,1.5758,1.541,1.541,1.541,1.6597,2.018,2.051,2.1887,2.612,2.8377,3.0835,3.3946,3.7853,4.1041,0.0,0.0,4.4945,4.5723,0.0,0.0,4.6301,4.7324,4.6964,4.5246,4.5221,4.5461,4.6169,4.6534,4.7363,4.8507,4.8355,4.8273,4.8218,4.7631,0.0,0.0,0.0,0.0,0.0,5.0603,5.0822,5.1229,5.1229,5.1229,5.1229,5.1229,5.1079,5.084,5.0391,4.9972,4.9464,4.8566,4.8147,4.7908,4.7429,4.7309,4.713,4.6202,4.5633,4.4975,4.3688,4.3329,4.3329,4.3329,4.3329,4.3329,4.3329,4.271,4.1971,4.141,3.9892,3.8318,3.7193,3.6199,3.5177,3.4073,3.3897,3.3696,3.3144,3.3068,3.3068,3.3068,3.3068,3.3068,3.3068,3.2918,3.2893,3.3068,3.0992,2.9602,2.9396,2.7389,2.611,2.5742,2.7767,2.905,2.9396,3.1512,3.2239,3.1777,3.0147,2.8958,2.2812,2.3906,2.457,2.375,2.2928,2.1859,2.0082,1.8742,1.7491,1.6425,1.5895,1.5555,1.5499,1.5924,1.7222,2.0353,2.0986,2.2548,2.6795,0.0,0.0,3.5917,0.0,0.0,0.0,4.4443,4.5246,4.5949,0.0,0.0,4.7087,4.8532,4.8805,4.7545,4.7429,4.7705,4.8319,4.8454,4.8952,4.9801,4.9727,4.9546,4.9266,4.9121,0.0,0.0,0.0,0.0,0.0,5.1229,5.1229,5.1229,5.1229,5.1229,5.1229,5.1229,5.1229,5.1169,5.075,5.0451,5.0062,4.9015,4.8327,4.7848,4.7429,4.7309,4.701,4.5663,4.5304,4.4975,4.3688,4.3329,4.3329,4.3329,4.3329,4.3329,4.3329,4.2386,4.1504,4.1085,3.942,3.7821,3.7118,3.6361,3.5554,3.465,3.4525,3.4324,3.3771,3.352,3.3395,3.3395,3.3194,3.3068,3.3068,3.3068,3.3068,3.3068,3.1223,3.0033,3.0033,2.7767,2.6668,2.7125,2.8588,2.9396,2.9396,3.1424,3.1952,3.1223,3.0956,3.0328,0.0,2.207,2.2754,2.2656,2.1426,1.9922,1.8652,1.7129,0.0,1.5663,1.5717,1.5813,1.5732,1.6731,1.8025,1.9306,2.0981,2.3399,0.0,3.04,0.0,0.0,4.047,0.0,4.2503,4.4471,4.5733,4.5876,0.0,0.0,4.8647,5.0045,5.0823,5.0823,5.0933,5.0933,5.0823,5.027,4.9965,5.0018,5.0834,5.0847,5.0212,5.152,0.0,0.0,0.0,0.0,0.0,5.1229,5.1229,5.1229,5.1229,5.1229,5.1229,5.1229,5.1229,5.1229,5.1229,5.081,5.0182,4.9494,4.8386,4.7309,4.7309,4.7309,4.704,4.5723,4.5334,4.5005,4.3748,4.3359,4.3329,4.3329,4.3329,4.325,4.317,4.2275,4.1169,3.9972,3.8827,3.7678,3.6546,3.6358,3.6182,3.5629,3.5554,3.5353,3.4801,3.4248,3.3922,3.3947,3.342,3.3093,3.3144,3.3093,3.3068,3.3068,3.1865,3.1223,3.1223,2.8958,2.8236,2.9418,2.9487,2.9579,2.967,3.0664,3.1223,3.14,3.2438,3.1777,1.6289,0.0,1.8965,1.7969,1.7422,1.6875,0.0,1.5371,1.4998,1.4557,0.0,1.5263,1.5861,1.6825,1.8351,2.1193,2.2867,2.501,2.8726,3.3892,0.0,4.0023,4.2386,4.432,4.5656,4.6656,4.7845,4.9351,0.0,5.0157,5.0157,5.1618,5.2509,5.2509,5.3518,5.3623,5.2509,5.2259,5.2502,5.3099,5.2852,5.2299,5.1647,5.1458,0.0,0.0,0.0,0.0,5.1229,5.1229,5.1229,5.1229,5.1229,5.1229,5.1229,5.1229,5.1229,5.1229,5.1229,5.1109,5.078,4.9643,4.8386,4.7309,4.7309,4.7309,4.713,4.6322,4.5693,4.5095,4.4287,4.3718,4.3329,4.3329,4.3329,4.3061,4.2193,4.1085,3.9972,3.8738,3.7586,3.6709,3.6452,3.6358,3.6182,3.5629,3.5554,3.5353,3.4801,3.4248,3.4073,3.4474,3.3646,3.3244,3.3671,3.3319,3.3068,3.3068,3.1865,3.1223,3.1223,2.9761,2.9143,2.9396,3.0305,3.1223,3.2239,3.1512,3.1689,3.2612,3.1952,3.1865,1.4492,1.6074,1.75,1.6602,1.6367,1.6191,1.5527,1.4766,0.0,0.0,0.0,1.5253,1.6172,1.745,1.9312,2.1936,2.3785,0.0,0.0,0.0,3.9251,4.172,4.4155,4.6047,0.0,4.8364,4.9494,5.0574,0.0,5.1304,5.1304,5.2451,5.3202,5.3524,5.4298,5.4399,5.3524,5.3231,5.3314,5.3713,5.2755,5.2247,5.2187,5.1528,5.1229,0.0,0.0,0.0,5.1229,5.1229,5.1229,5.1229,5.1229,5.1229,5.1229,5.1229,5.1229,5.1229,5.1229,5.102,5.0601,4.9583,4.8566,4.7698,4.7399,4.7309,4.716,4.6501,4.5843,4.5155,4.4496,4.3838,4.3329,4.3329,4.3329,4.2981,4.1864,4.0661,3.9536,3.8289,3.715,3.6358,3.6358,3.6358,3.6257,3.5956,3.5906,3.5805,3.5504,3.5002,3.4776,3.5077,3.4349,3.3847,3.3897,3.3621,3.3345,3.3093,3.2413,3.204,3.204,3.0866,3.0214,3.0214,3.0866,3.1865,3.3068,3.1865,3.1865,3.3068,3.2413,3.2413,1.4126,1.5781,1.7272,1.6628,1.6589,1.6651,1.6078,0.0,0.0,0.0,0.0,0.0,0.0,1.8762,0.0,0.0,0.0,0.0,3.5301,3.7375,3.9648,4.3325,4.5736,0.0,4.8284,5.005,5.1125,5.1232,0.0,5.2294,5.2207,5.2852,5.3443,5.4042,5.4042,5.4012,5.3892,5.3533,5.3294,5.3174,5.1947,5.1618,5.2037,5.1468,5.1229,0.0,0.0,0.0,5.1229,5.1229,5.1229,5.1229,5.1229,5.1229,5.1229,5.1229,5.1229,5.1229,5.1229,5.078,5.0152,4.9583,4.8895,4.8177,4.7608,4.7369,4.7189,4.6621,4.5992,4.5334,4.4766,4.4047,4.3479,4.3479,4.323,4.271,4.1587,4.0404,3.9271,3.8017,3.7057,3.6358,3.6358,3.6358,3.6358,3.6358,3.6358,3.6358,3.6358,3.5881,3.5579,3.5655,3.5102,3.4525,3.4073,3.3947,3.3671,3.3119,3.3068,3.3068,3.3068,3.2064,3.1488,3.1488,3.1488,3.204,3.3068,3.204,3.204,3.3068,3.3068,3.3068,1.4212,1.6016,1.7105,1.5745,1.6285,1.6788,1.5633,0.0,0.0,0.0,0.0,0.0,0.0,2.0953,2.2514,0.0,0.0,3.1107,0.0,0.0,4.1464,4.3425,0.0,4.9104,5.125,5.2137,5.2943,5.3638,0.0,5.3625,5.306,5.3136,5.3234,5.3324,5.3324,5.3084,5.2516,5.3533,5.3773,5.3174,5.2426,5.1798,5.1379,5.1259,5.1229,5.1229,0.0,5.1229,5.1229,5.1229,5.1229,5.1229,5.1229,5.1229,5.1229,5.1229,5.1229,5.1229,5.1229,5.078,5.0212,5.0122,4.9254,4.8267,4.8177,4.7758,4.7279,4.7189,4.6681,4.6142,4.6052,4.5095,4.4167,4.4167,4.296,4.1504,4.0404,3.9183,3.8043,3.6896,3.6546,3.6358,3.6358,3.6358,3.6358,3.6358,3.6358,3.6358,3.6358,3.5881,3.573,3.6182,3.5328,3.47,3.46,3.4173,3.3671,3.3119,3.3068,3.3068,3.3068,3.2896,3.281,3.281,3.281,3.2896,3.3068,3.2896,3.2896,3.3068,3.3068,3.3068,1.3542,1.5,1.6315,1.6306,1.7943,1.9488,1.917,0.0,0.0,0.0,0.0,0.0,0.0,0.0,2.5233,2.9056,0.0,3.4581,3.7761,0.0,0.0,0.0,0.0,5.0421,5.188,5.2705,5.3225,5.3683,0.0,0.0,5.2665,5.2306,5.2276,5.2636,5.2665,5.2665,5.2725,5.2995,5.2965,5.2636,5.1977,5.1708,5.1738,5.1379,5.1229,5.1229,0.0,5.1229,5.1229,5.1229,5.1229,5.1229,5.1229,5.1229,5.1229,5.1229,5.1229,5.1229,5.1229,5.102,5.072,5.0361,4.9823,4.9104,4.77,4.7585,4.767,4.655,4.6253,4.6322,4.6322,4.5574,4.4766,4.4407,4.3642,4.2631,4.117,3.9885,3.8738,3.7586,3.6803,3.6358,3.6358,3.6358,3.6358,3.6358,3.6358,3.6358,3.6358,3.6132,3.6081,3.6332,3.5906,3.5378,3.4776,3.45,3.3972,3.3144,3.3068,3.3068,3.3068,3.3068,3.3068,3.3068,3.3068,3.3068,3.3068,3.3068,3.3068,3.3068,3.3068,3.3068,1.3348,1.4602,1.6117,1.7447,0.0,2.0983,2.2037,0.0,0.0,0.0,0.0,0.0,0.0,2.606,0.0,3.3857,3.5665,0.0,0.0,0.0,0.0,0.0,0.0,5.1366,5.2165,5.2852,5.3114,5.2965,0.0,0.0,5.1977,5.1498,5.1439,5.1947,5.1977,5.2217,5.2725,5.2217,5.2037,5.2187,5.1528,5.1498,5.1947,5.1439,5.1229,5.1229,5.1229,5.1229,5.1229,5.1229,5.1229,5.1229,5.1229,5.1229,5.1229,5.1229,5.1229,5.1229,5.1229,5.1229,5.1139,5.0631,5.0361,4.9727,4.7381,4.743,4.7852,4.5953,4.5903,4.6561,4.6561,4.6052,4.5394,4.4915,4.44,4.3803,4.2415,4.1056,3.9843,3.8926,3.7939,3.7243,3.7243,3.7243,3.7243,3.7243,3.6989,3.6803,3.6803,3.6546,3.6358,3.6358,3.6358,3.5906,3.4826,3.46,3.4173,3.3319,3.3144,3.3068,3.3068,3.3068,3.3068,3.3068,3.3068,3.3068,3.3068,3.3219,3.3194,3.3093,3.3345,3.3319,1.4733,1.6133,1.7444,1.8976,1.8722,0.0,2.1167,2.2293,0.0,0.0,0.0,0.0,0.0,3.0691,3.3215,3.6447,3.7307,3.9079,0.0,0.0,0.0,0.0,0.0,0.0,5.294,5.3204,5.2935,0.0,0.0,0.0,5.1319,5.1259,5.1229,5.1289,5.1289,5.1319,5.1349,5.1319,5.1588,5.2187,5.1528,5.1259,5.1289,5.1229,5.1229,5.1229,5.1229,5.1229,5.1229,5.1229,5.1229,5.1229,5.1229,5.1229,5.1229,5.1229,5.1229,5.1229,5.1229,5.1229,5.1199,5.1169,5.075,4.9816,4.7905,4.7783,4.7852,4.5953,4.6314,4.7249,4.7249,4.6741,4.6232,4.6202,4.4873,4.3603,4.3488,4.2016,4.0686,4.0597,4.0096,3.9623,3.9623,3.9623,3.9623,3.9623,3.8649,3.8017,3.8017,3.7057,3.6358,3.6358,3.6358,3.5906,3.4826,3.4248,3.3922,3.3847,3.337,3.3068,3.3068,3.3068,3.3068,3.3068,3.3068,3.3068,3.3068,3.3596,3.3571,3.3093,3.4123,3.4048,1.4048,1.5563,1.7099,1.8011,1.9437,0.0,0.0,0.0,0.0,0.0,0.0,0.0,0.0,0.0,3.6084,3.7916,3.9956,4.2085,4.4414,4.6796,0.0,0.0,0.0,0.0,5.2576,5.2187,5.1858,0.0,0.0,0.0,5.1229,5.1229,5.1229,5.1229,5.1229,5.1229,5.1229,5.1229,5.1349,5.1588,5.1349,5.1229,5.1229,5.1229,5.1229,5.1229,5.1229,5.1229,5.1229,5.1229,5.1229,5.1229,5.1229,5.1229,5.1229,5.1229,5.1229,5.1229,5.1229,5.1229,5.1229,5.1229,5.105,5.0411,4.8545,4.8429,4.8567,4.6563,4.6667,4.7309,4.7309,4.713,4.683,4.6411,4.5773,4.5191,4.4778,4.3574,4.2505,4.2505,4.1779,4.1079,4.1079,4.0775,4.0438,4.0438,3.9755,3.9183,3.9183,3.8827,3.8315,3.7494,3.6497,3.568,3.5278,3.4726,3.4399,3.4399,3.4223,3.3947,3.3596,3.3596,3.342,3.3093,3.3068,3.3244,3.3596,3.3796,3.3972,3.4123,3.4525,3.45,1.4599,1.6213,1.8093,1.8861,0.0,0.0,2.6393,2.906,0.0,0.0,0.0,0.0,0.0,0.0,0.0,0.0,4.198,4.4226,4.6025,4.8404,5.0051,5.0475,0.0,0.0,5.1887,5.1498,0.0,0.0,0.0,0.0,0.0,5.1229,5.1229,5.1229,5.1229,5.1229,5.1229,5.1229,5.1229,5.1229,5.1229,5.1229,5.1229,5.1229,5.1229,5.1229,5.1229,5.1229,5.1229,5.1229,5.1229,5.1229,5.1229,5.1229,5.1229,5.1229,5.1229,5.1229,5.1229,5.1229,5.1229,5.1229,5.1229,5.0798,4.8923,4.8928,4.9102,4.6969,4.699,4.7578,4.7369,4.7309,4.7189,4.6741,4.6621,4.6501,4.6022,4.5132,4.4471,4.4471,4.3632,4.2934,4.2934,4.2477,4.2136,4.1937,4.1224,4.0714,4.0432,4.0145,3.9448,3.8198,3.657,3.5554,3.5554,3.5203,3.4977,3.4977,3.5491,3.5417,3.4765,3.4325,3.4149,3.4178,3.377,3.3796,3.4148,3.4324,3.4525,3.4726,3.5077,3.5052,1.6984,1.8714,2.0914,0.0,0.0,0.0,2.919,3.1003,3.298,3.6159,0.0,0.0,0.0,0.0,0.0,0.0,0.0,0.0,4.8751,4.9259,4.9679,5.1011,5.1229,5.1229,5.1229,0.0,0.0,0.0,0.0,0.0,0.0,5.1229,5.1229,5.1229,5.1229,5.1229,5.1229,5.1229,5.1229,5.1229,5.1229,5.1229,5.1229,5.1229,5.1229,5.1229,5.1229,5.1229,5.1229,5.1229,5.1229,5.1229,5.1229,5.1229,5.1229,5.1229,5.1229,5.1229,5.1229,5.1229,5.1229,5.1229,5.1229,5.0798,4.8923,4.9222,4.9667,4.7207,4.7313,4.8147,4.7489,4.7309,4.7309,4.7309,4.7309,4.7309,4.7309,4.68,4.6322,4.6322,4.5783,4.5304,4.5304,4.5304,4.5095,4.4436,4.3353,4.2391,4.1673,4.0603,3.9475,3.8198,3.657,3.5462,3.5554,3.5554,3.5554,3.5554,3.7182,3.758,3.6532,3.5391,3.5328,3.6479,3.5302,3.4726,3.4726,3.5278,3.5278,3.4776,3.5855,3.578,1.7179,1.9231,0.0,2.28,0.0,0.0,0.0,3.3624,0.0,0.0,0.0,0.0,0.0,0.0,0.0,0.0,0.0,0.0,4.885,4.9969,5.0698,5.1105,5.1229,5.1229,5.1229,0.0,0.0,0.0,0.0,0.0,0.0,5.1229,5.1229,5.1229,5.1229,5.1229,5.1229,5.1229,5.1229,5.1229,5.1229,5.1229,5.1229,5.1229,5.1229,5.1229,5.1229,5.1229,5.1229,5.1229,5.1229,5.1229,5.1229,5.1229,5.1229,5.1229,5.1229,5.1229,5.1229,5.1229,5.1229,5.1229,5.1229,5.1075,5.0461,5.0292,5.006,4.9275,4.8685,4.8237,4.8057,4.7638,4.7309,4.7309,4.7309,4.7309,4.7309,4.716,4.701,4.701,4.686,4.6711,4.6711,4.6322,4.5783,4.5095,4.4727,4.4108,4.3026,4.1868,4.054,3.8859,3.7493,3.6533,3.6157,3.6107,3.6481,3.726,3.7847,3.7764,3.7113,3.7498,3.731,3.6479,3.6131,3.5749,3.5303,3.5454,3.5655,3.5881,3.6207,3.6182,1.9971,2.2174,0.0,2.6685,3.0121,3.3844,0.0,0.0,0.0,0.0,0.0,0.0,0.0,0.0,0.0,0.0,0.0,0.0,0.0,5.0698,5.1229,5.1229,5.1229,5.1229,5.1229,0.0,0.0,0.0,0.0,0.0,0.0,5.1229,5.1229,5.1229,5.1229,5.1229,5.1229,5.1229,5.1079,5.084,5.1079,5.1079,5.084,5.1109,5.1229,5.1229,5.1229,5.1229,5.1229,5.1229,5.1229,5.1229,5.1229,5.1229,5.1229,5.1229,5.1229,5.1229,5.1229,5.1229,5.1229,5.1229,5.1229,5.1229,5.1229,5.093,5.0511,5.0002,4.9284,4.8566,4.8027,4.7608,4.7309,4.7309,4.7309,4.7309,4.7309,4.7309,4.7309,4.7309,4.7309,4.7309,4.7309,4.698,4.6471,4.5813,4.5005,4.4291,4.3459,4.1952,4.0561,3.9374,3.8687,3.8082,3.7844,3.8054,3.845,3.915,3.938,3.9344,3.9074,3.8787,3.8363,3.7866,3.6901,3.6211,3.5881,3.5881,3.6031,3.6358,3.6358,3.6358,2.3959,0.0,0.0,3.2265,3.4173,0.0,0.0,0.0,0.0,0.0,0.0,0.0,0.0,0.0,0.0,0.0,0.0,0.0,0.0,0.0,5.1229,5.1229,5.1229,5.1229,5.1229,0.0,0.0,0.0,0.0,0.0,0.0,5.1229,5.1229,5.1229,5.1229,5.1229,5.1229,5.1229,5.093,5.0331,5.093,5.09,5.0361,5.096,5.1229,5.1229,5.1229,5.1229,5.1229,5.1229,5.1229,5.1229,5.1229,5.1229,5.1229,5.1229,5.1229,5.1229,5.1229,5.1229,5.1229,5.1229,5.1229,5.1229,5.1229,5.1229,5.096,4.9793,4.9404,4.9075,4.7878,4.7489,4.7399,4.7399,4.7339,4.7309,4.7309,4.7309,4.7309,4.7309,4.7309,4.7309,4.7309,4.7309,4.7013,4.633,4.453,4.3312,4.3369,4.1479,4.0103,4.005,4.0118,4.016,4.0106,4.0613,4.0913,4.1002,4.1511,4.1757,4.184,3.9711,3.9006,3.9913,3.7769,3.6615,3.6358,3.6358,3.6358,3.6358,3.6358,3.6358,2.3281,2.6352,0.0,0.0,3.6207,3.905,3.8199,0.0,0.0,0.0,0.0,0.0,0.0,0.0,0.0,0.0,0.0,0.0,0.0,0.0,0.0,5.1229,5.1229,5.1229,5.1229,0.0,0.0,0.0,0.0,0.0,5.1229,5.1229,5.1229,5.1229,5.1229,5.1229,5.1229,5.1229,5.1139,0.0,5.1139,5.1139,5.102,5.1139,5.1229,5.1229,5.1229,5.1229,5.1229,5.1229,5.1229,5.1229,5.1229,5.1229,5.1229,5.1229,5.1229,5.1229,5.1229,5.1229,5.1229,5.1229,5.1229,5.1229,5.1229,5.1229,5.1169,5.087,5.0421,4.9972,4.9673,4.8835,4.8087,4.8087,4.7668,4.7309,4.7309,4.7309,4.7309,4.7309,4.7309,4.7309,4.7309,4.7309,4.6872,4.5783,4.3919,4.2842,4.3408,4.3023,4.2547,4.2082,4.212,4.1928,4.1407,4.1542,4.1999,4.2938,4.2596,4.2785,4.3671,4.2731,4.142,3.9913,3.936,3.8225,3.6358,3.6358,3.6358,3.6358,3.6358,3.6358,2.3798,0.0,0.0,3.5228,0.0,3.9588,3.9012,4.0402,4.1825,0.0,0.0,0.0,0.0,0.0,0.0,0.0,0.0,0.0,0.0,0.0,0.0,0.0,5.1229,5.1229,0.0,0.0,0.0,0.0,0.0,5.1229,5.1229,5.1229,5.1229,5.1229,5.1229,5.1229,5.1229,5.1229,5.105,5.075,5.1079,5.105,5.075,5.075,5.075,5.075,5.075,5.075,5.078,5.1079,5.1229,5.1229,5.1229,5.1229,5.1229,5.1229,5.1229,5.1229,5.1229,5.1229,5.1229,5.1229,5.1229,5.1229,5.1229,5.1229,5.1139,5.084,5.0511,5.0152,4.9853,4.9045,4.8297,4.8297,4.7788,4.7309,4.7309,4.7309,4.7309,4.7309,4.7309,4.7309,4.7309,4.7309,4.7106,4.6432,4.492,4.3983,4.4414,4.3882,4.3393,4.3062,4.3594,4.385,4.3574,4.3738,4.4095,4.4435,4.3789,4.3537,4.3787,4.3509,4.2222,3.9972,3.936,3.8134,3.6358,3.6358,3.6358,3.6358,3.6358,3.6358,2.3851,0.0,3.2097,3.7792,3.9209,0.0,3.9891,4.0544,4.0961,4.0707,0.0,0.0,0.0,0.0,0.0,0.0,0.0,0.0,0.0,0.0,0.0,0.0,0.0,5.1229,0.0,0.0,0.0,0.0,0.0,5.1229,5.1229,5.1229,5.1229,5.1229,5.1109,5.105,5.105,5.093,5.0601,5.0062,5.0631,5.0601,5.0062,4.9942,4.9972,5.0062,5.0062,5.0122,5.0272,5.084,5.1109,5.1229,5.1229,5.1229,5.1229,5.1229,5.1229,5.1229,5.1229,5.1229,5.1229,5.1229,5.1229,5.1229,5.1229,5.1229,5.1109,5.0571,5.0421,5.0272,4.9733,4.9105,4.8596,4.8476,4.7967,4.7429,4.7339,4.7309,4.7309,4.7309,4.7309,4.7309,4.7309,4.7106,4.6931,4.6931,4.5869,4.5115,4.5389,4.4442,4.3882,4.4163,4.5115,4.5689,4.5689,4.6166,4.6202,4.5514,4.4855,4.4197,4.3539,4.3389,4.2222,3.9972,3.8917,3.7769,3.6358,3.6358,3.6358,3.6358,3.6358,3.6358,2.096,0.0,3.2138,0.0,3.8941,4.0452,0.0,0.0,4.2263,0.0,4.1899,0.0,0.0,0.0,0.0,0.0,0.0,0.0,0.0,0.0,0.0,0.0,0.0,5.1229,0.0,0.0,0.0,0.0,5.1229,5.1229,5.1229,5.1229,5.1229,5.1229,5.0661,5.0361,5.0361,4.9793,4.9494,4.9404,4.9494,4.9494,4.9374,4.8805,4.8865,4.9404,4.9404,4.9733,5.0242,5.0331,5.072,5.1229,5.1229,5.1229,5.1229,5.1229,5.1229,5.1229,5.1229,5.1229,5.1229,5.1229,5.1229,5.1229,5.1229,5.1229,5.1199,5.1109,5.1079,5.1079,5.099,5.0481,4.9823,4.9284,4.8626,4.7997,4.7429,4.7309,4.7309,4.7309,4.7309,4.7309,4.7309,4.6344,4.5689,4.5689,4.4535,4.4163,4.5298,4.5207,4.5598,4.6638,4.6931,4.7019,4.7019,4.7133,4.689,4.6232,4.5544,4.4855,4.4197,4.3629,4.2222,3.9972,3.9711,3.8559,3.6358,3.6358,3.6358,3.6358,3.6358,3.6358,2.2217,2.605,3.0079,0.0,3.668,3.7903,3.7607,0.0,4.1056,4.066,4.2526,4.4126,4.4126,0.0,0.0,0.0,0.0,0.0,0.0,0.0,0.0,0.0,5.1229,5.1229,5.1229,0.0,0.0,0.0,5.1229,5.1229,5.1229,5.1229,5.105,5.069,5.0391,5.0062,4.9703,4.9404,4.9254,4.9254,4.9254,4.9254,4.9254,4.8596,4.8446,4.8716,4.8716,4.9075,4.9733,5.0092,5.0631,5.1229,5.1229,5.1229,5.1229,5.1229,5.1229,5.1229,5.1229,5.1229,5.1229,5.1229,5.1229,5.1229,5.1229,5.096,5.0661,5.0661,5.0421,5.0212,5.0571,5.0182,4.9673,4.9643,4.9224,4.8566,4.7519,4.7309,4.7309,4.7309,4.7309,4.7309,4.7309,4.6844,4.6462,4.6462,4.5958,4.5869,4.6344,4.6462,4.6638,4.7222,4.7309,4.7309,4.7309,4.7309,4.701,4.6352,4.6022,4.5574,4.4885,4.3867,4.2567,4.0907,4.0244,3.8765,3.6358,3.6358,3.6358,3.6358,3.6358,3.6358,2.2201,2.4763,2.6995,3.194,3.432,3.5677,0.0,0.0,4.0298,0.0,4.2713,4.4705,4.5415,4.6696,4.801,4.9063,5.0287,5.1229,5.1229,5.1229,5.1229,5.1229,5.1079,5.096,5.096,0.0,0.0,0.0,5.072,5.072,5.072,5.072,5.0511,5.0002,4.9823,4.9494,4.9015,4.8865,4.8775,4.8775,4.8775,4.8865,4.8985,4.8327,4.8207,4.8536,4.8356,4.8656,4.9314,4.9972,5.0631,5.1229,5.1229,5.1229,5.1229,5.1229,5.1109,5.099,5.1169,5.1109,5.099,5.1169,5.1229,5.1229,5.1229,5.087,5.0481,5.0481,5.0152,4.9883,5.0361,5.0122,4.9793,4.9972,4.9763,4.9164,4.7848,4.7429,4.7309,4.7309,4.7309,4.7309,4.7309,4.7309,4.7309,4.7309,4.7309,4.7309,4.7309,4.7309,4.7309,4.7309,4.7309,4.7309,4.7309,4.7309,4.701,4.6352,4.6322,4.6022,4.5334,4.4091,4.2846,4.1708,4.0466,3.8777,3.6558,3.6558,3.6508,3.6358,3.6358,3.6358,1.8495,2.0641,2.3018,2.8132,3.2558,3.567,0.0,0.0,4.1114,4.0807,4.216,4.4103,4.6583,4.8132,4.9161,4.9161,5.0287,5.1229,5.1229,5.1229,5.1229,5.1229,5.0661,5.0301,5.0301,4.9733,0.0,0.0,4.9374,4.9374,4.9374,4.9374,4.9344,4.9314,4.8716,4.8356,4.8327,4.7728,4.7399,4.7399,4.7399,4.7728,4.8327,4.7668,4.8027,4.9164,4.8566,4.8656,4.9314,4.9972,5.0631,5.1229,5.1229,5.1229,5.1229,5.1229,5.084,5.0361,5.099,5.081,5.0391,5.102,5.1229,5.1229,5.1229,5.1199,5.1169,5.1169,5.1139,5.1139,5.1169,5.1139,5.096,5.0361,5.0212,4.9823,4.8506,4.7758,4.7309,4.7309,4.7309,4.7309,4.7309,4.7309,4.7309,4.7309,4.7309,4.7309,4.7309,4.7309,4.7309,4.7309,4.7309,4.7309,4.7309,4.7309,4.701,4.6352,4.6322,4.6022,4.5334,4.4091,4.2846,4.1708,4.0455,3.8964,3.7136,3.7136,3.6885,3.6358,3.6358,3.6358,1.686,1.8609,2.0596,2.4698,2.8835,3.2345,3.3684,3.7861,4.1517,4.1802,4.3875,4.6083,4.6976,4.7981,4.8731,4.9233,5.0024,5.0451,5.0032,4.9972,4.9972,4.9972,4.9763,4.9613,4.9613,5.0059,4.9995,0.0,0.0,4.9995,4.9344,4.9254,4.9075,4.8656,4.8416,4.8087,4.7668,4.7848,4.7938,4.7938,4.8356,4.8686,4.8895,4.8656,4.8835,4.9254,4.9015,4.9284,4.9912,5.0152,5.0631,5.1229,5.1229,5.1229,5.1229,5.1229,5.1079,5.09,5.1139,5.105,5.09,5.1139,5.1229,5.1229,5.1229,5.093,5.0601,5.0601,5.0301,5.0062,5.0481,5.0601,5.0631,5.084,5.0002,4.9134,4.8955,4.8057,4.7309,4.7309,4.7309,4.7309,4.7309,4.7309,4.7309,4.7309,4.7309,4.7309,4.7309,4.7309,4.7309,4.7309,4.7309,4.7309,4.7309,4.7309,4.7219,4.698,4.6196,4.5991,4.6591,4.4608,4.3673,4.4067,4.2868,4.0675,3.7713,3.8082,3.8152,3.8039,3.8474,3.8225,1.5215,1.6707,0.0,0.0,2.5804,2.912,3.2583,3.6422,3.9808,4.1817,4.4069,4.6024,4.6998,4.7765,4.8517,4.9194,4.9643,4.9763,4.9344,4.9254,4.9254,4.9254,4.9075,4.9104,4.9428,4.9818,5.0036,0.0,0.0,0.0,4.9152,4.8862,4.8416,4.7967,4.7967,4.7758,4.7309,4.7728,4.8057,4.8297,4.8716,4.9164,4.9583,4.9134,4.9164,4.9583,4.9134,4.9314,4.9912,4.9912,5.0301,5.09,5.09,5.102,5.1229,5.1229,5.1079,5.093,5.1139,5.1079,5.093,5.1139,5.1229,5.1229,5.1229,5.09,5.0571,5.0571,5.0272,5.0032,5.0451,5.0571,5.069,5.1109,5.0152,4.9224,4.9523,4.8386,4.7309,4.7309,4.7309,4.7309,4.7309,4.7309,4.7309,4.7309,4.7309,4.7309,4.7309,4.7309,4.7309,4.7309,4.7309,4.7309,4.7309,4.7309,4.7309,4.7309,4.655,4.6432,4.7309,4.5298,4.4535,4.5389,4.4163,4.2235,3.9875,4.0039,4.0079,3.9865,4.0111,3.9639,0.0,0.0,0.0,0.0,0.0,0.0,3.1984,0.0,3.5942,4.0748,4.2195,4.3567,4.6636,4.7788,4.8446,4.9075,4.9224,4.9224,4.9224,4.9194,4.9194,4.9194,4.8656,4.8645,4.9665,4.9213,4.9296,0.0,4.9456,4.8891,4.881,4.7904,4.7309,4.7309,4.7309,4.7309,4.7309,4.7339,4.7668,4.8297,4.8297,4.8985,5.0182,4.8895,4.9015,5.0122,4.8835,4.8656,4.9224,4.9254,4.9643,5.0242,5.0242,5.0631,5.1229,5.1229,5.081,5.0361,5.099,5.081,5.0361,5.102,5.1229,5.1229,5.1199,5.1199,5.1229,5.1293,5.1293,5.1293,5.1293,5.1293,5.1293,5.1293,5.0783,5.0212,5.0212,4.8716,4.7369,4.7339,4.7309,4.7309,4.7309,4.7309,4.7309,4.7309,4.7309,4.7309,4.7309,4.7309,4.7309,4.7309,4.7309,4.7309,4.7309,4.7309,4.7309,4.7309,4.7309,4.7309,4.7309,4.6077,4.5389,4.5479,4.4256,4.3598,4.3598,4.2989,4.2472,4.1834,4.1135,4.0526,1.3477,0.0,0.0,0.0,0.0,0.0,0.0,0.0,3.3783,3.7839,3.9963,4.2048,4.5281,4.6411,4.692,4.71,4.7938,4.8386,4.7908,4.7848,4.7848,4.7848,4.7698,4.7951,4.8955,4.9661,5.0087,0.0,5.0779,5.0671,5.0009,4.9004,4.8072,4.7309,4.7309,4.7309,4.7309,4.7788,4.8117,4.8297,4.8775,4.9194,4.9523,4.9164,4.9194,4.9494,4.8656,4.8386,4.8596,4.9075,4.9643,5.0242,5.0242,5.0631,5.1229,5.1229,5.1109,5.096,5.1169,5.1109,5.096,5.1169,5.1229,5.1386,5.2154,5.2395,5.2575,5.3427,5.3656,5.3656,5.3656,5.3656,5.3656,5.3656,5.2548,5.1348,5.0826,4.9637,4.8566,4.8117,4.7638,4.7309,4.7309,4.7309,4.7309,4.7309,4.7309,4.7309,4.7309,4.7309,4.7309,4.7309,4.7309,4.7309,4.7309,4.7309,4.7309,4.7309,4.6432,4.6344,4.7309,4.6077,4.5869,4.6726,4.6432,4.6255,4.6255,4.4665,4.3816,4.3706,4.2594,4.2192,0.0,0.0,0.0,0.0,0.0,0.0,2.5727,2.8602,3.1842,0.0,3.8888,4.0967,4.3937,4.5035,4.5574,4.5843,4.677,4.7429,4.7309,4.7309,4.7309,4.7309,4.7679,4.8293,4.9376,5.0397,5.1229,5.1631,5.1849,5.1303,4.9773,4.9135,4.8377,4.7309,4.7309,4.7309,4.7309,4.7698,4.8027,4.8297,4.8686,4.9015,4.9344,4.9458,4.9482,4.9539,4.9266,4.8906,4.8511,4.8905,4.94,4.9823,4.9823,5.0391,5.1229,5.1229,5.1479,5.188,5.188,5.2245,5.2664,5.2664,5.2664,5.2723,5.3396,5.3569,5.3742,5.4421,5.4589,5.4589,5.4589,5.4589,5.4589,5.4589,5.3767,5.2964,5.2524,5.1732,5.0463,4.8263,4.7788,4.7638,4.7369,4.7309,4.7309,4.7309,4.7309,4.7309,4.7309,4.7309,4.7309,4.7309,4.7309,4.7309,4.7309,4.7309,4.7309,4.7309,4.6638,4.655,4.7309,4.6638,4.655,4.7309,4.7309,4.7309,4.7309,4.6167,4.5318,4.4762,4.4086,4.3596,1.5293,1.6675,0.0,0.0,0.0,0.0,2.6797,2.8066,2.9736,0.0,3.7438,3.9286,4.1941,4.3071,4.3838,4.4436,4.5364,4.6292,4.7189,4.7309,4.7309,4.7452,4.8293,4.9296,5.0474,5.1377,5.2312,5.3416,5.2487,5.108,4.9054,4.881,4.8377,4.7309,4.7309,4.7309,4.7309,4.7309,4.7608,4.8177,4.8177,4.8506,4.9224,4.9573,4.9801,4.9894,5.0279,4.9805,4.8934,4.8841,4.9005,4.9254,4.9254,5.0062,5.1229,5.1293,5.2063,5.29,5.3077,5.3742,5.4589,5.4589,5.4589,5.4589,5.4755,5.4755,5.4838,5.492,5.5002,5.5002,5.5002,5.5002,5.5002,5.5002,5.4838,5.4723,5.4659,5.4209,5.2448,4.842,4.8196,4.8494,4.792,4.7598,4.7452,4.7452,4.7396,4.7309,4.7309,4.7309,4.7309,4.7309,4.7309,4.7309,4.7309,4.7309,4.7309,4.7309,4.7309,4.7309,4.7309,4.7309,4.7309,4.7309,4.7309,4.7309,4.7309,4.7249,4.6531,4.5304,4.5214,4.4526,1.7012,1.7789,1.8722,1.8665,0.0,0.0,2.1674,2.336,2.5818,0.0,3.0459,3.2535,3.6178,3.8364,3.9589,3.9709,4.2073,4.4706,4.698,4.7309,4.7624,4.846,4.8677,4.9536,5.1451,5.1776,5.2312,5.3416,5.2487,5.1377,5.0165,4.9296,4.8377,4.7309,4.7309,4.7309,4.7309,4.7309,4.7369,4.7489,4.7489,4.7848,4.8535,4.8867,4.9615,5.063,5.047,5.0169,4.9667,4.9027,4.9005,4.9254,4.9254,5.0062,5.1293,5.2245,5.2723,5.3077,5.3913,5.4421,5.4589,5.4589,5.4589,5.4755,5.5651,5.5889,5.6047,5.6963,5.7222,5.7222,5.7222,5.7222,5.7222,5.7222,5.6547,5.5726,5.528,5.4729,5.3426,5.0018,5.0235,5.0833,5.0707,4.9509,4.8512,4.8512,4.7849,4.7309,4.7309,4.7309,4.7309,4.7309,4.7309,4.7309,4.7309,4.7309,4.7309,4.7309,4.7309,4.7309,4.7309,4.7309,4.7309,4.7309,4.7309,4.7309,4.7309,4.677,4.6082,4.5274,4.4766,4.4077,1.8301,1.8831,1.9855,2.0379,0.0,0.0,0.0,2.3961,2.5535,2.8358,2.9232,3.0335,3.3157,3.4903,3.6221,3.6842,3.9668,4.2342,4.3658,4.5274,4.6682,4.7657,4.8576,4.97,5.1218,5.2184,5.2939,5.345,5.3008,5.2241,5.1229,5.0165,4.9376,4.8841,4.8293,4.8072,4.8072,4.8543,4.8324,4.7309,4.7849,4.8225,4.856,4.9322,5.047,5.1948,5.1941,5.1801,5.1403,5.0653,5.0374,5.0252,4.9551,5.0186,5.1697,5.2541,5.3569,5.464,5.5215,5.573,5.6237,5.6237,5.6237,5.6315,5.6887,5.7039,5.7189,5.7735,5.7881,5.7881,5.7881,5.7881,5.7881,5.7881,5.7446,5.6938,5.6679,5.6392,5.5542,5.3053,5.2741,5.2023,4.979,4.8675,4.8072,4.8072,4.8072,4.8072,4.8072,4.8543,4.8872,4.8872,4.8872,4.8625,4.8072,4.8072,4.7849,4.7309,4.7309,4.7309,4.7309,4.7309,4.7309,4.7309,4.7309,4.7309,4.7309,4.6292,4.5633,4.5274,4.4616,4.3958,0.0,0.0,0.0,0.0,0.0,2.3365,0.0,0.0,0.0,2.8407,0.0,0.0,0.0,0.0,0.0,0.0,0.0,0.0,0.0,4.1683,0.0,4.5588,4.753,4.9143,5.0138,5.143,5.2469,5.301,5.2438,5.1998,5.1691,5.0865,5.0397,5.0397,4.9536,4.9135,4.9135,4.9931,4.9487,4.7624,4.8594,4.8973,4.881,5.0087,5.1544,5.3016,5.3344,5.3271,5.291,5.2218,5.1662,5.1089,5.0236,5.0887,5.2317,5.3232,5.464,5.6204,5.6437,5.7114,5.7881,5.7881,5.7881,5.7881,5.7881,5.7881,5.7881,5.7881,5.7881,5.7881,5.7881,5.7881,5.7881,5.7881,5.7881,5.7881,5.7881,5.7701,5.7029,5.515,5.4262,5.2534,4.8775,4.7855,4.7679,4.7849,4.8377,4.8891,4.9054,4.9852,5.0397,5.0397,5.0397,5.0087,4.9135,4.8891,4.8429,4.7593,4.7366,4.7309,4.7309,4.7309,4.7309,4.7309,4.7189,4.713,4.71,4.5753,4.5155,4.5274,4.4496,4.3838,0.0,0.0,0.0,0.0,2.4889,0.0,0.0,0.0,2.4596,2.3457,0.0,0.0,0.0,0.0,0.0,0.0,0.0,0.0,3.4352,3.6118,3.872,4.2062,4.4851,4.7017,4.8101,4.7838,4.8646,5.1285,4.8827,4.8264,5.0801,5.0574,5.0397,5.0397,5.0242,5.0242,5.0242,5.032,4.9773,4.8677,4.9694,4.9694,4.8922,5.0822,5.2211,5.3016,5.3344,5.3271,5.291,5.2218,5.1369,5.0653,5.1726,5.2599,5.3547,5.5197,5.5936,5.636,5.7372,5.7808,5.7881,5.7881,5.7881,5.7881,5.7881,5.7881,5.7881,5.7881,5.7881,5.7881,5.7881,5.7881,5.7881,5.7881,5.7881,5.7881,5.7881,5.7114,5.5731,5.3341,5.278,5.23,5.1216,4.9703,4.8922,4.9931,4.9296,4.9135,5.0087,5.032,5.0397,5.0397,5.0397,5.032,5.0242,4.9376,4.8759,4.8677,4.7764,4.7309,4.7309,4.7309,4.7309,4.7309,4.6741,4.6441,4.6441,4.5095,4.4736,4.5274,4.4018,4.3389,0.0,0.0,0.0,0.0,0.0,0.0,2.4414,0.0,2.3828,0.0,0.0,0.0,0.0,0.0,0.0,0.0,0.0,0.0,0.0,0.0,3.5634,0.0,0.0,0.0,4.6313,4.6338,4.7225,4.9729,4.7872,4.7952,5.0861,5.0829,5.1099,5.217,5.1631,5.1229,5.1229,5.1882,5.141,4.9773,5.0779,5.1005,5.0595,5.1525,5.2605,5.3908,5.3652,5.3685,5.3874,5.3171,5.2824,5.297,5.3923,5.4109,5.404,5.562,5.6624,5.7297,5.7701,5.7881,5.7881,5.7881,5.7881,5.7881,5.7881,5.7881,5.7881,5.7881,5.7881,5.7881,5.7881,5.7881,5.7881,5.7881,5.7881,5.7881,5.7881,5.7554,5.6587,5.4612,5.3746,5.3039,5.1706,5.0532,4.9852,5.032,5.055,5.0747,5.1229,5.1776,5.2203,5.2203,5.2203,5.1954,5.1303,5.032,4.9456,4.8841,4.7849,4.7309,4.7309,4.7309,4.7309,4.7309,4.6651,4.6322,4.6322,4.4975,4.4466,4.4706,4.3778,4.3329,2.8019,0.0,0.0,0.0,0.0,0.0,0.0,0.0,0.0,0.0,0.0,0.0,0.0,0.0,0.0,0.0,0.0,0.0,0.0,0.0,0.0,0.0,0.0,0.0,0.0,4.3741,4.4519,4.7564,0.0,4.6616,5.0405,5.076,5.1629,5.3145,5.2597,5.2312,5.2312,5.311,5.259,5.0855,5.1849,5.217,5.1921,5.2241,5.3174,5.4599,5.3988,5.4156,5.4599,5.4216,5.4222,5.4363,5.5349,5.5201,5.4741,5.617,5.7222,5.7881,5.7881,5.7881,5.7881,5.7881,5.7881,5.7881,5.7881,5.7881,5.7881,5.7881,5.7881,5.7881,5.7881,5.7881,5.7881,5.7881,5.7881,5.7881,5.7881,5.7628,5.6955,5.5279,5.45,5.3541,5.1912,5.098,5.0474,5.0779,5.1451,5.1993,5.2312,5.3041,5.3518,5.3518,5.3518,5.3179,5.2383,5.141,5.0242,4.8891,4.7849,4.7309,4.7309,4.7309,4.7309,4.7309,4.6651,4.6232,4.6022,4.4885,4.4388,4.4418,4.3935,4.3693,0.0,0.0,0.0,2.7569,0.0,0.0,0.0,0.0,2.6063,0.0,0.0,0.0,0.0,0.0,0.0,0.0,0.0,0.0,0.0,0.0,0.0,0.0,0.0,0.0,0.0,3.8768,3.9174,0.0,4.1982,0.0,4.8748,5.0409,5.1524,5.23,5.3078,5.3416,5.3416,5.3484,5.2939,5.1849,5.2939,5.287,5.1921,5.2939,5.3881,5.4579,5.4544,5.4544,5.4606,5.532,5.4791,5.3653,5.5124,5.5718,5.5815,5.7268,5.7881,5.7881,5.7881,5.7881,5.7881,5.7881,5.7881,5.7881,5.7881,5.7881,5.7881,5.7881,5.7881,5.7881,5.7881,5.7881,5.7881,5.7881,5.7881,5.7881,5.7881,5.7039,5.5853,5.4392,5.4063,5.3527,5.2112,5.1038,5.0703,5.1704,5.1921,5.2312,5.3348,5.3518,5.3518,5.3518,5.3518,5.3518,5.3416,5.2487,5.1005,4.8891,4.7849,4.7309,4.7309,4.7309,4.7309,4.7309,4.6651,4.5992,4.5334,4.4646,4.4437,4.4768,4.4737,4.4737,0.0,0.0,3.554,3.128,0.0,0.0,0.0,0.0,0.0,0.0,0.0,0.0,0.0,0.0,0.0,0.0,0.0,0.0,0.0,0.0,0.0,0.0,0.0,0.0,0.0,0.0,0.0,0.0,4.0663,0.0,0.0,4.9221,5.0541,5.2266,5.257,5.2976,5.3484,5.3518,5.3348,5.2939,5.3847,5.4038,5.371,5.4572,5.5119,5.532,5.532,5.532,5.5379,5.561,5.5695,5.5802,5.629,5.7105,5.795,5.736,5.7476,5.7881,5.7881,5.7881,5.7881,5.7881,5.7881,5.7881,5.7881,5.7881,5.7881,5.7881,5.7881,5.7881,5.7881,5.7881,5.7881,5.7881,5.7881,5.7881,5.7881,5.7628,5.7163,5.6734,5.6157,5.5688,5.5185,5.4467,5.369,5.3037,5.2939,5.311,5.3416,5.3518,5.3518,5.3518,5.3518,5.3518,5.3518,5.1882,5.032,4.8891,4.7849,4.7309,4.7309,4.7309,4.7309,4.7309,4.735,4.6946,4.6272,4.6268,4.6076,4.5778,4.6346,4.6346,3.6784,3.7698,0.0,3.4315,3.355,0.0,2.9429,0.0,0.0,0.0,0.0,0.0,0.0,0.0,0.0,0.0,0.0,0.0,0.0,0.0,0.0,0.0,0.0,0.0,0.0,0.0,3.5994,3.9817,3.8824,0.0,0.0,0.0,4.9207,5.1454,5.2029,5.2706,5.3484,5.3783,5.3881,5.3881,5.4668,5.4999,5.4999,5.5495,5.5836,5.615,5.615,5.615,5.615,5.6385,5.649,5.6538,5.7107,5.7939,5.8694,5.7933,5.7947,5.8317,5.8027,5.7881,5.7881,5.7881,5.7881,5.7881,5.7881,5.7881,5.7881,5.7881,5.7881,5.7881,5.7881,5.7881,5.7881,5.7881,5.7881,5.7881,5.7881,5.7881,5.7814,5.7543,5.7137,5.663,5.6122,5.5852,5.5412,5.4431,5.4059,5.389,5.389,5.3653,5.3518,5.3518,5.3518,5.3518,5.3518,5.1954,5.0474,4.9456,4.8759,4.8072,4.7309,4.7593,4.7849,4.7849,4.803,4.7853,4.7307,4.7543,4.7348,4.673,4.7306,4.744]}]]